[[{"header":{"parameterUnit":"m.s-1","parameterCategory":1,"la1":31.0,"la2":29.5877,"lo1":-88.7671,"lo2":-86.6584,"dy":0.0162,"dx":0.0185,"nx":115,"ny":88,"refTime":"2024-11-29T12:00:00:Z","depth":0,"parameterNumber":2,"parameterNumberName":"U-component_of_WINDS"},"data":[0.0,0.0,0.0,0.0,0.0,0.0,0.0,0.0,0.0,0.0,0.0,0.0,0.0,0.0,0.0,0.0,0.0,0.0,0.0,0.0,0.0,0.0,0.0,0.0,0.0,0.0,0.0,0.0,0.0,0.0,0.0,0.0,0.0,0.0,0.0,0.0,0.0,0.0,0.0,0.0,0.0,0.0,0.0,0.0,0.0,0.0,0.0,0.0,0.0,0.0,0.0,0.0,0.0,0.0,0.0,0.0,0.0,0.0,0.0,0.0,0.0,0.0,0.0,0.0,0.0,0.0,0.0,0.0,0.0,0.0,0.0,0.0,0.0,0.0,0.0,0.0,0.0,0.0,0.0,0.0,0.0,0.0,0.0,0.0,0.0,0.0,0.0,0.0,0.0,0.0,0.0,0.0,0.0,0.0,0.0,0.0,0.0,0.0,0.0,0.0,0.0,0.0,0.0,0.0,0.0,0.0,0.0,0.0,0.0,0.0,0.0,0.0,0.0,0.0,0.0,0.0,0.0,0.0,0.0,0.0,0.0,0.0,0.0,0.0,0.0,0.0,0.0,0.0,0.0,0.0,0.0,0.0,0.0,0.0,0.0,0.0,0.0,0.0,0.0,0.0,0.0,0.0,0.0,0.0,0.0,0.0,0.0,0.0,0.0,0.0,0.0,0.0,0.0,0.0,0.0,0.0,0.0,0.0,0.0,0.0,0.0,0.0,0.0,0.0,0.0,0.0,0.0,0.0,0.0,0.0,0.0,0.0,0.0,0.0,0.0,0.0,0.0,0.0,0.0,0.0,0.0,0.0,0.0,0.0,0.0,0.0,0.0,0.0,0.0,0.0,0.0,0.0,0.0,0.0,0.0,0.0,0.0,0.0,0.0,0.0,0.0,0.0,0.0,0.0,0.0,0.0,0.0,0.0,0.0,0.0,0.0,0.0,0.0,0.0,0.0,0.0,0.0,0.0,0.0,0.0,0.0,0.0,0.0,0.0,0.0,0.0,0.0,0.0,0.0,0.0,0.0,0.0,0.0,0.0,0.0,0.0,0.0,0.0,0.0,0.0,0.0,0.0,0.0,0.0,0.0,0.0,0.0,0.0,0.0,0.0,0.0,0.0,0.0,0.0,0.0,0.0,0.0,0.0,0.0,0.0,0.0,0.0,0.0,0.0,0.0,0.0,0.0,0.0,0.0,0.0,0.0,0.0,0.0,0.0,0.0,0.0,0.0,0.0,0.0,0.0,0.0,0.0,0.0,0.0,0.0,0.0,0.0,0.0,0.0,0.0,0.0,0.0,0.0,0.0,0.0,0.0,0.0,0.0,0.0,0.0,0.0,0.0,0.0,0.0,0.0,0.0,0.0,0.0,0.0,0.0,0.0,0.0,0.0,0.0,0.0,0.0,0.0,0.0,0.0,0.0,0.0,0.0,0.0,0.0,0.0,0.0,0.0,0.0,0.0,0.0,0.0,0.0,0.0,0.0,0.0,0.0,0.0,0.0,0.0,0.0,0.0,0.0,0.0,0.0,0.0,0.0,0.0,0.0,0.0,0.0,0.0,0.0,0.0,0.0,0.0,0.0,0.0,0.0,0.0,0.0,0.0,0.0,0.0,0.0,0.0,0.0,0.0,0.0,0.0,0.0,0.0,0.0,0.0,0.0,0.0,0.0,0.0,0.0,0.0,0.0,0.0,0.0,0.0,0.0,0.0,0.0,0.0,0.0,0.0,0.0,0.0,0.0,0.0,0.0,0.0,0.0,0.0,0.0,0.0,0.0,0.0,0.0,0.0,0.0,0.0,0.0,0.0,0.0,0.0,0.0,0.0,0.0,0.0,0.0,0.0,0.0,0.0,0.0,0.0,0.0,0.0,0.0,0.0,0.0,0.0,0.0,0.0,0.0,0.0,0.0,0.0,0.0,0.0,0.0,0.0,0.0,0.0,0.0,0.0,0.0,0.0,0.0,0.0,0.0,0.0,0.0,0.0,0.0,0.0,0.0,0.0,0.0,0.0,0.0,0.0,0.0,0.0,0.0,0.0,0.0,0.0,0.0,0.0,0.0,0.0,0.0,0.0,0.0,0.0,0.0,0.0,0.0,0.0,0.0,0.0,0.0,0.0,0.0,0.0,0.0,0.0,0.0,0.0,0.0,0.0,0.0,0.0,0.0,0.0,0.0,0.0,0.0,0.0,0.0,0.0,0.0,0.0,0.0,0.0,0.0,0.0,0.0,0.0,0.0,0.0,0.0,0.0,0.0,0.0,0.0,0.0,0.0,0.0,0.0,0.0,0.0,0.0,0.0,0.0,0.0,0.0,0.0,0.0,0.0,0.0,0.0,0.0,0.0,0.0,0.0,0.0,0.0,0.0,0.0,0.0,0.0,0.0,0.0,0.0,0.0,0.0,0.0,0.0,0.0,0.0,0.0,0.0,0.0,0.0,0.0,0.0,0.0,0.0,0.0,0.0,0.0,0.0,0.0,0.0,0.0,0.0,0.0,0.0,0.0,0.0,0.0,0.0,0.0,0.0,0.0,0.0,0.0,0.0,0.0,0.0,0.0,0.0,0.0,0.0,0.0,0.0,0.0,0.0,0.0,0.0,0.0,0.0,0.0,0.0,0.0,0.0,0.0,0.0,0.0,0.0,0.0,0.0,0.0,0.0,0.0,0.0,0.0,0.0,0.0,0.0,0.0,0.0,0.0,0.0,0.0,0.0,0.0,0.0,0.0,0.0,0.0,0.0,0.0,0.0,0.0,0.0,0.0,0.0,0.0,0.0,0.0,0.0,0.0,0.0,0.0,0.0,0.0,0.0,0.0,0.0,0.0,0.0,0.0,0.0,0.0,0.0,0.0,0.0,0.0,0.0,0.0,0.0,0.0,0.0,0.0,0.0,0.0,0.0,0.0,0.0,0.0,0.0,0.0,0.0,0.0,0.0,0.0,0.0,0.0,0.0,0.0,0.0,0.0,0.0,0.0,0.0,0.0,0.0,0.0,0.0,0.0,0.0,0.0,0.0,0.0,0.0,0.0,0.0,0.0,0.0,0.0,0.0,0.0,0.0,0.0,0.0,0.0,0.0,0.0,0.0,0.0,0.0,0.0,0.0,0.0,0.0,0.0,0.0,0.0,0.0,0.0,0.0,0.0,0.0,0.0,0.0,0.0,0.0,0.0,0.0,0.0,0.0,0.0,0.0,0.0,0.0,0.0,0.0,0.0,0.0,0.0,0.0,0.0,0.0,0.0,0.0,0.0,0.0,0.0,0.0,0.0,0.0,0.0,0.0,0.0,0.0,0.0,0.0,0.0,0.0,0.0,0.0,0.0,0.0,0.0,0.0,0.0,0.0,0.0,0.0,0.0,0.0,0.0,0.0,0.0,0.0,0.0,0.0,0.0,0.0,0.0,0.0,0.0,0.0,0.0,0.0,0.0,0.0,0.0,0.0,0.0,0.0,0.0,0.0,0.0,0.0,0.0,0.0,0.0,0.0,0.0,0.0,0.0,0.0,0.0,0.0,0.0,0.0,0.0,0.0,0.0,0.0,0.0,0.0,0.0,0.0,0.0,0.0,0.0,0.0,0.0,0.0,0.0,0.0,0.0,0.0,0.0,0.0,0.0,0.0,0.0,0.0,0.0,0.0,0.0,0.0,0.0,0.0,0.0,0.0,0.0,0.0,0.0,0.0,0.0,0.0,0.0,0.0,0.0,0.0,0.0,0.0,0.0,0.0,0.0,0.0,0.0,0.0,0.0,0.0,0.0,0.0,0.0,0.0,0.0,0.0,0.0,0.0,0.0,0.0,0.0,0.0,0.0,0.0,0.0,0.0,0.0,0.0,0.0,0.0,0.0,0.0,0.0,0.0,0.0,0.0,0.0,0.0,0.0,0.0,0.0,0.0,0.0,0.0,0.0,0.0,0.0,0.0,0.0,0.0,0.0,0.0,0.0,0.0,0.0,0.0,0.0,0.0,0.0,0.0,0.0,0.0,0.0,0.0,0.0,0.0,0.0,0.0,0.0,0.0,0.0,0.0,0.0,0.0,0.0,0.0,0.0,0.0,0.0,0.0,0.0,0.0,0.0,0.0,0.0,0.0,0.0,0.0,0.0,0.0,0.0,0.0,0.0,0.0,0.0,0.0,0.0,0.0,0.0,0.0,0.0,0.0,0.0,0.0,0.0,0.0,0.0,0.0,0.0,0.0,0.0,0.0,0.0,0.0,0.0,0.0,0.0,0.0,0.0,0.0,0.0,0.0,0.0,0.0,0.0,0.0,0.0,0.0,0.0,0.0,0.0,6.1748,0.0,0.0,0.0,0.0,0.0,0.0,0.0,0.0,0.0,0.0,0.0,0.0,0.0,0.0,0.0,0.0,0.0,0.0,0.0,0.0,0.0,0.0,0.0,0.0,0.0,0.0,0.0,0.0,0.0,0.0,0.0,0.0,0.0,0.0,0.0,0.0,0.0,0.0,0.0,0.0,0.0,0.0,0.0,0.0,0.0,0.0,0.0,0.0,0.0,0.0,0.0,0.0,0.0,0.0,0.0,0.0,0.0,0.0,0.0,0.0,0.0,0.0,0.0,0.0,0.0,0.0,0.0,0.0,0.0,0.0,0.0,0.0,0.0,0.0,0.0,0.0,0.0,0.0,0.0,0.0,0.0,0.0,0.0,0.0,0.0,0.0,0.0,0.0,0.0,0.0,0.0,0.0,0.0,0.0,0.0,0.0,0.0,0.0,0.0,0.0,0.0,0.0,0.0,0.0,0.0,0.0,0.0,0.0,0.0,0.0,6.4101,6.3711,6.3243,6.2818,6.2439,0.0,0.0,0.0,0.0,0.0,0.0,0.0,0.0,0.0,0.0,0.0,0.0,0.0,0.0,0.0,0.0,0.0,0.0,0.0,0.0,0.0,0.0,0.0,0.0,0.0,0.0,0.0,0.0,0.0,0.0,0.0,0.0,0.0,0.0,0.0,0.0,0.0,0.0,0.0,0.0,0.0,0.0,0.0,0.0,0.0,0.0,0.0,0.0,0.0,0.0,0.0,0.0,0.0,0.0,0.0,0.0,0.0,0.0,0.0,0.0,0.0,0.0,0.0,0.0,0.0,0.0,0.0,0.0,0.0,0.0,0.0,0.0,0.0,0.0,0.0,0.0,0.0,0.0,0.0,0.0,0.0,0.0,0.0,0.0,0.0,0.0,0.0,0.0,0.0,0.0,0.0,0.0,0.0,0.0,0.0,0.0,0.0,0.0,0.0,0.0,0.0,0.0,0.0,0.0,0.0,0.0,0.0,0.0,0.0,0.0,0.0,0.0,6.3945,6.3403,6.3017,0.0,0.0,0.0,0.0,0.0,0.0,0.0,0.0,0.0,0.0,0.0,0.0,0.0,0.0,0.0,0.0,0.0,0.0,0.0,0.0,0.0,0.0,0.0,0.0,0.0,0.0,0.0,0.0,0.0,0.0,0.0,0.0,0.0,0.0,0.0,0.0,0.0,0.0,0.0,0.0,0.0,0.0,0.0,0.0,0.0,0.0,0.0,0.0,0.0,0.0,0.0,0.0,0.0,0.0,0.0,0.0,0.0,0.0,0.0,0.0,0.0,0.0,0.0,0.0,0.0,0.0,0.0,0.0,0.0,0.0,0.0,0.0,0.0,0.0,0.0,0.0,0.0,0.0,0.0,0.0,0.0,0.0,0.0,0.0,0.0,0.0,0.0,0.0,0.0,0.0,0.0,0.0,0.0,0.0,0.0,0.0,0.0,0.0,0.0,0.0,0.0,0.0,0.0,0.0,0.0,0.0,0.0,0.0,0.0,0.0,6.6249,6.5507,6.539,0.0,6.3113,0.0,0.0,0.0,0.0,0.0,0.0,0.0,0.0,0.0,0.0,0.0,0.0,0.0,0.0,0.0,0.0,0.0,0.0,0.0,0.0,0.0,0.0,0.0,0.0,0.0,0.0,0.0,0.0,0.0,0.0,0.0,0.0,0.0,0.0,0.0,0.0,0.0,0.0,0.0,0.0,0.0,0.0,0.0,0.0,0.0,0.0,0.0,0.0,0.0,0.0,0.0,0.0,0.0,0.0,0.0,0.0,0.0,0.0,0.0,0.0,0.0,0.0,0.0,0.0,0.0,0.0,0.0,0.0,0.0,0.0,0.0,0.0,0.0,0.0,0.0,0.0,0.0,0.0,0.0,0.0,0.0,0.0,0.0,0.0,0.0,0.0,0.0,0.0,0.0,0.0,0.0,0.0,0.0,0.0,0.0,0.0,0.0,0.0,0.0,0.0,0.0,0.0,0.0,0.0,0.0,0.0,0.0,0.0,0.0,0.0,0.0,6.6327,6.5351,6.4262,0.0,0.0,0.0,0.0,0.0,0.0,0.0,0.0,0.0,0.0,0.0,0.0,0.0,0.0,0.0,0.0,0.0,0.0,0.0,0.0,0.0,0.0,0.0,0.0,0.0,0.0,0.0,0.0,0.0,0.0,0.0,0.0,0.0,0.0,0.0,0.0,0.0,0.0,0.0,0.0,0.0,0.0,0.0,0.0,0.0,0.0,0.0,0.0,0.0,0.0,0.0,0.0,0.0,0.0,0.0,0.0,0.0,0.0,0.0,0.0,0.0,0.0,0.0,0.0,0.0,0.0,0.0,0.0,0.0,0.0,0.0,0.0,0.0,0.0,0.0,0.0,0.0,0.0,0.0,0.0,0.0,0.0,0.0,0.0,0.0,0.0,0.0,0.0,0.0,0.0,0.0,0.0,0.0,0.0,0.0,0.0,0.0,0.0,0.0,0.0,0.0,0.0,0.0,0.0,0.0,0.0,0.0,0.0,0.0,0.0,6.5936,0.0,6.6717,6.5194,6.4023,6.336,0.0,0.0,0.0,0.0,0.0,0.0,0.0,0.0,0.0,0.0,0.0,0.0,0.0,0.0,0.0,0.0,0.0,0.0,0.0,0.0,0.0,0.0,0.0,0.0,0.0,0.0,0.0,0.0,0.0,0.0,0.0,0.0,0.0,0.0,0.0,0.0,0.0,0.0,0.0,0.0,0.0,0.0,0.0,0.0,0.0,0.0,0.0,0.0,0.0,0.0,0.0,0.0,0.0,0.0,0.0,0.0,0.0,0.0,0.0,0.0,0.0,0.0,0.0,0.0,0.0,0.0,0.0,0.0,0.0,0.0,0.0,0.0,0.0,0.0,0.0,0.0,0.0,0.0,0.0,0.0,0.0,0.0,0.0,0.0,0.0,0.0,0.0,0.0,0.0,0.0,0.0,0.0,0.0,0.0,0.0,0.0,0.0,0.0,0.0,0.0,0.0,0.0,0.0,0.0,0.0,0.0,0.0,0.0,0.0,6.5936,6.6795,6.6795,6.5194,6.4297,0.0,0.0,0.0,0.0,0.0,0.0,0.0,0.0,0.0,0.0,0.0,0.0,0.0,0.0,0.0,0.0,0.0,0.0,0.0,0.0,0.0,0.0,0.0,0.0,0.0,0.0,0.0,0.0,0.0,0.0,0.0,0.0,0.0,0.0,0.0,0.0,0.0,0.0,0.0,0.0,0.0,0.0,0.0,0.0,0.0,0.0,0.0,0.0,0.0,0.0,0.0,0.0,0.0,0.0,0.0,0.0,0.0,0.0,0.0,0.0,0.0,0.0,0.0,0.0,0.0,0.0,0.0,0.0,0.0,0.0,0.0,0.0,0.0,0.0,0.0,0.0,0.0,0.0,0.0,0.0,0.0,0.0,0.0,0.0,0.0,0.0,0.0,0.0,0.0,0.0,0.0,0.0,0.0,0.0,0.0,0.0,0.0,0.0,0.0,0.0,0.0,0.0,0.0,0.0,0.0,0.0,0.0,0.0,0.0,6.4375,6.5936,6.6795,6.6756,6.5155,6.4297,0.0,0.0,0.0,0.0,0.0,0.0,0.0,0.0,0.0,0.0,0.0,0.0,0.0,0.0,0.0,0.0,0.0,0.0,0.0,0.0,0.0,0.0,0.0,0.0,0.0,0.0,0.0,0.0,0.0,0.0,0.0,0.0,0.0,0.0,0.0,0.0,0.0,0.0,0.0,0.0,0.0,0.0,0.0,0.0,0.0,0.0,0.0,0.0,0.0,0.0,0.0,0.0,0.0,0.0,0.0,0.0,0.0,0.0,0.0,0.0,0.0,0.0,0.0,0.0,0.0,0.0,0.0,0.0,0.0,0.0,0.0,0.0,0.0,0.0,0.0,0.0,0.0,0.0,0.0,0.0,0.0,0.0,0.0,0.0,0.0,0.0,0.0,0.0,0.0,0.0,0.0,0.0,0.0,0.0,0.0,0.0,0.0,0.0,0.0,0.0,0.0,0.0,0.0,0.0,0.0,0.0,0.0,0.0,0.0,6.5116,0.0,6.6795,0.0,6.5155,6.4297,0.0,0.0,0.0,0.0,0.0,0.0,0.0,0.0,0.0,0.0,0.0,0.0,0.0,0.0,0.0,0.0,0.0,0.0,0.0,0.0,0.0,0.0,0.0,0.0,0.0,0.0,0.0,0.0,0.0,0.0,0.0,0.0,0.0,0.0,0.0,0.0,0.0,0.0,0.0,0.0,0.0,0.0,0.0,0.0,0.0,0.0,0.0,0.0,0.0,0.0,0.0,0.0,0.0,0.0,0.0,0.0,0.0,0.0,0.0,0.0,0.0,0.0,0.0,0.0,0.0,0.0,0.0,0.0,0.0,0.0,0.0,0.0,0.0,0.0,0.0,0.0,0.0,0.0,0.0,0.0,0.0,0.0,0.0,0.0,0.0,0.0,0.0,0.0,0.0,0.0,0.0,0.0,0.0,0.0,0.0,0.0,0.0,0.0,0.0,0.0,0.0,0.0,0.0,0.0,0.0,0.0,0.0,0.0,0.0,6.6717,6.6834,6.6912,6.6795,6.5234,6.4336,0.0,0.0,0.0,0.0,0.0,0.0,0.0,0.0,0.0,0.0,0.0,0.0,0.0,0.0,0.0,0.0,0.0,0.0,0.0,0.0,0.0,0.0,0.0,0.0,0.0,0.0,0.0,0.0,0.0,0.0,0.0,0.0,0.0,0.0,0.0,0.0,0.0,0.0,0.0,0.0,0.0,0.0,0.0,0.0,0.0,0.0,0.0,0.0,0.0,0.0,0.0,0.0,0.0,0.0,0.0,0.0,0.0,0.0,0.0,0.0,0.0,0.0,0.0,0.0,0.0,0.0,0.0,0.0,0.0,0.0,0.0,0.0,0.0,0.0,0.0,0.0,0.0,0.0,0.0,0.0,0.0,0.0,0.0,0.0,0.0,0.0,0.0,0.0,0.0,0.0,0.0,0.0,0.0,0.0,0.0,0.0,0.0,0.0,0.0,0.0,0.0,0.0,0.0,0.0,0.0,0.0,0.0,0.0,0.0,6.7654,6.8279,6.8318,6.7693,6.66,6.5507,0.0,0.0,0.0,0.0,0.0,0.0,0.0,0.0,0.0,0.0,0.0,0.0,0.0,0.0,0.0,0.0,0.0,0.0,0.0,0.0,0.0,0.0,0.0,0.0,0.0,0.0,0.0,0.0,0.0,0.0,0.0,0.0,0.0,0.0,0.0,0.0,0.0,0.0,0.0,0.0,0.0,0.0,0.0,0.0,0.0,0.0,0.0,0.0,0.0,0.0,0.0,0.0,0.0,0.0,0.0,0.0,0.0,0.0,0.0,0.0,0.0,0.0,0.0,0.0,0.0,0.0,0.0,0.0,0.0,0.0,0.0,0.0,0.0,0.0,0.0,0.0,0.0,0.0,0.0,0.0,0.0,0.0,0.0,0.0,0.0,0.0,0.0,0.0,0.0,0.0,0.0,0.0,0.0,0.0,0.0,0.0,0.0,0.0,0.0,0.0,0.0,0.0,0.0,0.0,0.0,0.0,0.0,0.0,0.0,6.9946,6.9913,6.9606,6.9098,6.7927,6.6483,6.4843,0.0,0.0,0.0,0.0,0.0,0.0,0.0,0.0,0.0,0.0,0.0,0.0,0.0,0.0,0.0,0.0,0.0,0.0,0.0,0.0,0.0,0.0,0.0,0.0,0.0,0.0,0.0,0.0,0.0,0.0,0.0,0.0,0.0,0.0,0.0,0.0,0.0,0.0,0.0,0.0,0.0,0.0,0.0,0.0,0.0,0.0,0.0,0.0,0.0,0.0,0.0,0.0,0.0,0.0,0.0,0.0,0.0,0.0,0.0,0.0,0.0,0.0,0.0,0.0,0.0,0.0,0.0,0.0,0.0,0.0,0.0,0.0,0.0,0.0,0.0,0.0,0.0,0.0,0.0,0.0,0.0,0.0,0.0,0.0,0.0,0.0,0.0,0.0,0.0,0.0,0.0,0.0,0.0,0.0,0.0,0.0,0.0,0.0,0.0,0.0,0.0,0.0,0.0,0.0,0.0,0.0,0.0,0.0,7.3399,7.1897,7.1084,7.085,6.9215,6.7459,0.0,0.0,0.0,0.0,0.0,0.0,0.0,0.0,0.0,0.0,0.0,0.0,0.0,0.0,0.0,0.0,0.0,0.0,0.0,0.0,0.0,0.0,0.0,0.0,0.0,0.0,0.0,0.0,0.0,0.0,0.0,0.0,0.0,0.0,0.0,0.0,0.0,0.0,0.0,0.0,0.0,0.0,0.0,0.0,0.0,0.0,0.0,0.0,0.0,0.0,0.0,0.0,0.0,0.0,0.0,0.0,0.0,0.0,0.0,0.0,0.0,0.0,0.0,0.0,0.0,0.0,0.0,0.0,0.0,0.0,0.0,0.0,0.0,0.0,0.0,0.0,0.0,0.0,0.0,0.0,0.0,0.0,0.0,0.0,0.0,0.0,0.0,0.0,0.0,0.0,0.0,0.0,0.0,0.0,0.0,0.0,0.0,0.0,0.0,0.0,0.0,0.0,0.0,0.0,0.0,0.0,0.0,0.0,0.0,7.5936,7.6294,7.517,7.2633,7.1513,6.9567,0.0,0.0,0.0,0.0,0.0,0.0,0.0,0.0,0.0,0.0,0.0,0.0,0.0,0.0,0.0,0.0,0.0,0.0,0.0,0.0,0.0,0.0,0.0,0.0,0.0,0.0,0.0,0.0,0.0,0.0,0.0,0.0,0.0,0.0,0.0,0.0,0.0,0.0,0.0,0.0,0.0,0.0,0.0,0.0,0.0,0.0,0.0,0.0,0.0,0.0,0.0,0.0,0.0,0.0,0.0,0.0,0.0,0.0,0.0,0.0,0.0,0.0,0.0,0.0,0.0,0.0,0.0,0.0,0.0,0.0,0.0,0.0,0.0,0.0,0.0,0.0,0.0,0.0,0.0,0.0,0.0,0.0,0.0,0.0,0.0,0.0,0.0,0.0,0.0,0.0,0.0,0.0,0.0,0.0,0.0,0.0,0.0,0.0,0.0,0.0,0.0,0.0,0.0,0.0,0.0,0.0,0.0,0.0,7.5053,7.8105,7.9713,7.9244,7.6513,7.4278,7.1441,0.0,0.0,0.0,0.0,0.0,0.0,0.0,0.0,0.0,0.0,0.0,0.0,0.0,0.0,0.0,0.0,0.0,0.0,0.0,0.0,0.0,0.0,0.0,0.0,0.0,0.0,0.0,0.0,0.0,0.0,0.0,0.0,0.0,0.0,0.0,0.0,0.0,0.0,0.0,0.0,0.0,0.0,0.0,0.0,0.0,0.0,0.0,0.0,0.0,0.0,0.0,0.0,0.0,0.0,0.0,0.0,0.0,0.0,0.0,0.0,0.0,0.0,0.0,0.0,0.0,0.0,0.0,0.0,0.0,0.0,0.0,0.0,0.0,0.0,0.0,0.0,0.0,0.0,0.0,0.0,0.0,0.0,0.0,0.0,0.0,0.0,0.0,0.0,0.0,0.0,0.0,0.0,0.0,0.0,0.0,0.0,0.0,0.0,0.0,0.0,0.0,0.0,0.0,0.0,0.0,0.0,0.0,0.0,7.7248,7.9959,8.2387,8.2855,8.1138,7.7082,7.3236,0.0,0.0,0.0,0.0,0.0,0.0,0.0,0.0,0.0,0.0,0.0,0.0,0.0,0.0,0.0,0.0,0.0,0.0,0.0,0.0,0.0,0.0,0.0,0.0,0.0,0.0,0.0,0.0,0.0,0.0,0.0,0.0,0.0,0.0,0.0,0.0,0.0,0.0,0.0,0.0,0.0,0.0,0.0,0.0,0.0,0.0,0.0,0.0,0.0,0.0,0.0,0.0,0.0,0.0,0.0,0.0,0.0,0.0,0.0,0.0,0.0,0.0,0.0,0.0,0.0,0.0,0.0,0.0,0.0,0.0,0.0,0.0,0.0,0.0,0.0,0.0,0.0,0.0,0.0,0.0,0.0,0.0,0.0,0.0,0.0,0.0,0.0,0.0,0.0,0.0,0.0,0.0,0.0,0.0,0.0,0.0,0.0,0.0,0.0,0.0,0.0,0.0,0.0,0.0,0.0,0.0,0.0,0.0,7.8672,8.2582,8.3869,8.4025,8.2972,7.8799,7.4954,0.0,0.0,0.0,0.0,0.0,0.0,0.0,0.0,0.0,0.0,0.0,0.0,0.0,0.0,0.0,0.0,0.0,0.0,0.0,0.0,0.0,0.0,0.0,0.0,0.0,0.0,0.0,0.0,0.0,0.0,0.0,0.0,0.0,0.0,0.0,0.0,0.0,0.0,0.0,0.0,0.0,0.0,0.0,0.0,0.0,0.0,0.0,0.0,6.1719,0.0,0.0,0.0,0.0,0.0,0.0,0.0,0.0,0.0,0.0,0.0,0.0,0.0,0.0,0.0,0.0,0.0,0.0,0.0,0.0,0.0,0.0,0.0,0.0,0.0,0.0,0.0,0.0,0.0,0.0,0.0,0.0,0.0,0.0,0.0,0.0,0.0,0.0,0.0,0.0,0.0,0.0,0.0,0.0,0.0,0.0,0.0,0.0,0.0,0.0,0.0,0.0,0.0,0.0,0.0,0.0,0.0,0.0,0.0,8.0358,8.3419,8.5127,8.54,8.4044,8.036,7.651,0.0,0.0,0.0,0.0,0.0,0.0,0.0,0.0,0.0,0.0,0.0,0.0,0.0,0.0,0.0,0.0,0.0,0.0,0.0,0.0,0.0,0.0,0.0,0.0,0.0,0.0,0.0,0.0,0.0,0.0,0.0,0.0,0.0,0.0,0.0,0.0,0.0,0.0,0.0,0.0,0.0,0.0,0.0,0.0,0.0,0.0,0.0,0.0,0.0,0.0,0.0,0.0,0.0,0.0,0.0,0.0,0.0,0.0,0.0,0.0,0.0,0.0,0.0,0.0,0.0,0.0,0.0,0.0,0.0,0.0,0.0,0.0,0.0,0.0,0.0,0.0,0.0,0.0,0.0,0.0,0.0,0.0,0.0,0.0,0.0,0.0,0.0,0.0,0.0,0.0,0.0,0.0,0.0,0.0,0.0,0.0,0.0,0.0,0.0,0.0,0.0,0.0,0.0,0.0,0.0,0.0,0.0,7.8854,8.1928,8.406,8.618,8.657,8.4997,8.1695,7.7876,0.0,0.0,0.0,0.0,0.0,0.0,0.0,0.0,0.0,0.0,0.0,0.0,0.0,0.0,0.0,0.0,0.0,0.0,0.0,0.0,0.0,0.0,0.0,0.0,0.0,0.0,0.0,0.0,0.0,0.0,0.0,0.0,0.0,0.0,0.0,0.0,0.0,0.0,0.0,6.457,6.6088,0.0,0.0,0.0,0.0,0.0,0.0,0.0,0.0,6.1914,0.0,0.0,0.0,0.0,0.0,0.0,0.0,0.0,0.0,0.0,0.0,0.0,0.0,0.0,0.0,0.0,0.0,0.0,0.0,0.0,0.0,0.0,0.0,0.0,0.0,0.0,0.0,0.0,0.0,0.0,0.0,0.0,0.0,0.0,0.0,0.0,0.0,0.0,0.0,0.0,0.0,0.0,0.0,0.0,0.0,0.0,0.0,0.0,0.0,0.0,0.0,0.0,0.0,0.0,0.0,0.0,7.6627,7.9478,8.2786,8.6636,8.7078,8.6843,8.5856,8.2553,7.8735,7.4402,0.0,0.0,0.0,0.0,0.0,0.0,0.0,0.0,0.0,0.0,0.0,0.0,0.0,0.0,0.0,0.0,0.0,0.0,0.0,0.0,0.0,0.0,0.0,0.0,0.0,0.0,0.0,0.0,0.0,0.0,0.0,0.0,0.0,0.0,0.0,0.0,0.0,0.0,0.0,6.7338,6.8008,0.0,0.0,0.0,0.0,0.0,0.0,0.0,0.0,6.2305,0.0,0.0,0.0,0.0,0.0,0.0,0.0,0.0,0.0,0.0,0.0,0.0,0.0,0.0,0.0,0.0,0.0,0.0,0.0,0.0,0.0,0.0,0.0,0.0,0.0,0.0,0.0,0.0,0.0,0.0,0.0,0.0,0.0,0.0,0.0,0.0,0.0,0.0,0.0,0.0,0.0,0.0,0.0,0.0,0.0,0.0,0.0,0.0,0.0,0.0,0.0,0.0,0.0,0.0,0.0,7.7681,8.0727,8.3926,8.7276,8.7789,8.7399,8.6066,8.2365,7.85,0.0,0.0,0.0,0.0,0.0,0.0,0.0,0.0,0.0,0.0,0.0,0.0,0.0,0.0,0.0,0.0,0.0,0.0,0.0,0.0,0.0,0.0,0.0,0.0,0.0,0.0,0.0,0.0,0.0,0.0,0.0,0.0,0.0,0.0,0.0,0.0,0.0,0.0,0.0,0.0,6.7924,6.8515,6.9375,0.0,0.0,0.0,0.0,0.0,0.0,6.3281,6.2422,0.0,0.0,0.0,0.0,0.0,0.0,0.0,0.0,0.0,0.0,0.0,0.0,0.0,0.0,0.0,0.0,0.0,0.0,0.0,0.0,0.0,0.0,0.0,0.0,0.0,0.0,0.0,0.0,0.0,0.0,0.0,0.0,0.0,0.0,0.0,0.0,0.0,0.0,0.0,0.0,0.0,0.0,0.0,0.0,0.0,0.0,0.0,0.0,0.0,0.0,0.0,0.0,0.0,0.0,0.0,7.8579,8.1859,8.4941,8.7752,8.8374,8.7906,8.6347,8.2209,7.8227,0.0,0.0,0.0,0.0,0.0,0.0,0.0,0.0,0.0,0.0,0.0,0.0,0.0,0.0,0.0,0.0,0.0,0.0,0.0,0.0,0.0,0.0,0.0,0.0,0.0,0.0,0.0,0.0,0.0,0.0,0.0,0.0,0.0,0.0,0.0,0.0,0.0,0.0,0.0,0.0,0.0,6.918,7.0508,6.9101,0.0,0.0,0.0,0.0,6.5117,6.4219,0.0,0.0,0.0,0.0,0.0,0.0,0.0,0.0,0.0,0.0,0.0,0.0,0.0,0.0,0.0,0.0,0.0,0.0,0.0,0.0,0.0,0.0,0.0,0.0,0.0,0.0,0.0,0.0,0.0,0.0,0.0,0.0,0.0,0.0,0.0,0.0,0.0,0.0,0.0,0.0,0.0,0.0,0.0,0.0,0.0,0.0,0.0,0.0,0.0,0.0,0.0,0.0,0.0,0.0,0.0,0.0,7.9398,8.2132,8.5478,8.9329,8.895,8.817,8.7221,8.3107,7.8858,0.0,0.0,0.0,0.0,0.0,0.0,0.0,0.0,0.0,0.0,0.0,0.0,0.0,0.0,0.0,0.0,0.0,0.0,0.0,0.0,0.0,0.0,0.0,0.0,0.0,0.0,0.0,0.0,0.0,0.0,0.0,0.0,0.0,0.0,0.0,0.0,0.0,0.0,0.0,0.0,0.0,7.0469,7.0664,7.1094,7.0898,0.0,0.0,6.8555,6.7851,6.6367,0.0,0.0,0.0,0.0,0.0,0.0,0.0,0.0,0.0,0.0,0.0,0.0,0.0,0.0,0.0,0.0,0.0,0.0,0.0,0.0,0.0,0.0,0.0,0.0,0.0,0.0,0.0,0.0,0.0,0.0,0.0,0.0,0.0,0.0,0.0,0.0,0.0,0.0,0.0,0.0,0.0,0.0,0.0,0.0,0.0,0.0,0.0,0.0,0.0,0.0,0.0,0.0,0.0,0.0,0.0,7.4987,7.9639,8.3146,8.6531,8.9719,8.9535,8.8716,8.7417,8.2748,7.8468,0.0,0.0,0.0,0.0,0.0,0.0,0.0,0.0,0.0,0.0,0.0,0.0,0.0,0.0,0.0,0.0,0.0,0.0,0.0,0.0,0.0,0.0,0.0,0.0,0.0,0.0,0.0,0.0,0.0,0.0,0.0,0.0,0.0,0.0,0.0,0.0,0.0,0.0,0.0,0.0,0.0,0.0,7.2031,7.25,0.0,0.0,0.0,7.0586,6.9765,0.0,0.0,0.0,0.0,0.0,0.0,0.0,0.0,0.0,0.0,0.0,0.0,0.0,0.0,0.0,0.0,0.0,0.0,0.0,0.0,0.0,0.0,0.0,0.0,0.0,0.0,0.0,0.0,0.0,0.0,0.0,0.0,0.0,0.0,0.0,0.0,0.0,0.0,0.0,0.0,0.0,0.0,0.0,0.0,0.0,0.0,0.0,0.0,0.0,0.0,0.0,0.0,0.0,0.0,0.0,0.0,0.0,7.9665,8.3848,8.7273,8.9779,8.9876,8.9106,8.7369,8.2397,0.0,0.0,0.0,0.0,0.0,0.0,0.0,0.0,0.0,0.0,0.0,0.0,0.0,0.0,0.0,0.0,0.0,0.0,0.0,0.0,0.0,0.0,0.0,0.0,0.0,0.0,0.0,0.0,0.0,0.0,0.0,0.0,0.0,0.0,0.0,0.0,0.0,0.0,0.0,0.0,0.0,0.0,7.1914,7.3437,7.3984,7.418,0.0,0.0,7.2344,7.1484,6.9765,6.7656,0.0,0.0,0.0,0.0,0.0,0.0,0.0,0.0,0.0,0.0,0.0,0.0,0.0,0.0,0.0,0.0,0.0,0.0,0.0,0.0,0.0,0.0,0.0,0.0,0.0,0.0,0.0,0.0,0.0,0.0,0.0,0.0,0.0,0.0,0.0,0.0,0.0,0.0,0.0,0.0,0.0,0.0,0.0,0.0,0.0,0.0,0.0,0.0,0.0,0.0,0.0,0.0,0.0,0.0,0.0,7.9587,8.38,8.7263,8.9688,8.9866,8.9096,8.7302,8.239,7.8077,0.0,0.0,0.0,0.0,0.0,0.0,0.0,0.0,0.0,0.0,0.0,0.0,0.0,0.0,0.0,0.0,0.0,0.0,0.0,0.0,0.0,0.0,0.0,0.0,0.0,0.0,0.0,0.0,0.0,0.0,0.0,0.0,0.0,0.0,0.0,0.0,0.0,0.0,0.0,0.0,0.0,7.3437,7.4375,7.5898,7.664,0.0,0.0,7.4101,7.3281,7.1055,6.8555,6.5937,0.0,0.0,0.0,0.0,0.0,0.0,0.0,0.0,0.0,0.0,0.0,0.0,0.0,0.0,0.0,0.0,0.0,0.0,0.0,0.0,0.0,0.0,0.0,0.0,0.0,0.0,0.0,0.0,0.0,0.0,0.0,0.0,0.0,0.0,0.0,0.0,0.0,0.0,0.0,0.0,0.0,0.0,0.0,0.0,0.0,0.0,0.0,0.0,0.0,0.0,0.0,0.0,0.0,7.5815,7.9578,8.4366,8.7777,8.9715,8.9855,8.9057,8.7331,8.2897,7.8624,0.0,0.0,0.0,0.0,0.0,0.0,0.0,0.0,0.0,0.0,0.0,0.0,0.0,0.0,0.0,0.0,0.0,0.0,0.0,0.0,0.0,0.0,0.0,0.0,0.0,0.0,0.0,0.0,5.6562,5.6836,5.664,0.0,0.0,0.0,0.0,0.0,0.0,0.0,0.0,0.0,0.0,7.4609,7.6015,7.7656,0.0,0.0,7.7226,7.6328,7.4414,7.2812,7.0781,6.7695,6.5469,0.0,0.0,0.0,0.0,0.0,0.0,0.0,0.0,0.0,0.0,0.0,0.0,0.0,0.0,0.0,0.0,0.0,0.0,0.0,0.0,0.0,0.0,0.0,0.0,0.0,0.0,0.0,0.0,0.0,0.0,0.0,0.0,0.0,0.0,0.0,0.0,0.0,0.0,0.0,0.0,0.0,0.0,0.0,0.0,0.0,0.0,0.0,0.0,0.0,0.0,0.0,0.0,7.6103,7.9539,8.4674,8.8092,8.9742,9.0078,8.9437,8.7682,8.3553,7.9437,0.0,0.0,0.0,0.0,0.0,0.0,0.0,0.0,0.0,0.0,0.0,0.0,0.0,0.0,0.0,0.0,0.0,0.0,0.0,0.0,0.0,0.0,0.0,0.0,0.0,0.0,0.0,0.0,5.7305,5.7265,5.668,0.0,0.0,0.0,0.0,0.0,0.0,0.0,0.0,0.0,0.0,7.5625,7.7344,7.9023,7.9883,7.9336,7.8828,7.7773,7.5703,7.4219,7.2305,6.9414,0.0,0.0,0.0,0.0,0.0,0.0,0.0,0.0,0.0,0.0,0.0,0.0,0.0,0.0,0.0,0.0,0.0,0.0,0.0,0.0,0.0,0.0,0.0,0.0,0.0,0.0,0.0,0.0,0.0,0.0,6.1036,0.0,0.0,0.0,0.0,0.0,0.0,0.0,0.0,0.0,0.0,0.0,0.0,0.0,0.0,0.0,0.0,0.0,0.0,0.0,0.0,0.0,0.0,0.0,7.9533,8.4702,8.8105,8.9781,9.0638,9.0273,8.855,8.4434,8.0556,7.7056,0.0,0.0,0.0,0.0,0.0,0.0,0.0,0.0,0.0,0.0,0.0,0.0,0.0,0.0,0.0,0.0,0.0,0.0,0.0,0.0,0.0,0.0,0.0,0.0,0.0,0.0,5.7969,5.7109,5.664,0.0,0.0,0.0,0.0,0.0,0.0,0.0,0.0,0.0,0.0,7.3164,7.6523,7.8242,7.9922,8.0937,8.0898,7.957,7.8203,7.7265,7.5,7.2695,0.0,0.0,0.0,0.0,0.0,0.0,0.0,0.0,0.0,0.0,0.0,0.0,0.0,0.0,0.0,0.0,0.0,0.0,0.0,0.0,0.0,0.0,0.0,0.0,0.0,0.0,0.0,6.3435,6.282,0.0,0.0,0.0,0.0,0.0,0.0,0.0,0.0,0.0,0.0,0.0,6.9164,6.9473,0.0,0.0,0.0,0.0,0.0,0.0,0.0,0.0,0.0,0.0,0.0,0.0,7.6567,8.1156,8.5195,8.835,9.0599,9.095,9.0312,8.8628,8.5565,8.0985,7.4759,0.0,0.0,0.0,0.0,0.0,0.0,0.0,0.0,0.0,0.0,0.0,0.0,0.0,0.0,0.0,0.0,0.0,0.0,0.0,0.0,0.0,0.0,0.0,0.0,0.0,5.9687,0.0,0.0,0.0,0.0,0.0,0.0,0.0,0.0,0.0,0.0,0.0,6.889,7.0878,7.4919,7.8047,7.914,8.0781,8.164,0.0,0.0,0.0,0.0,0.0,0.0,0.0,0.0,0.0,0.0,0.0,0.0,0.0,0.0,6.4726,6.2178,6.1648,6.1627,6.1619,0.0,0.0,0.0,0.0,0.0,0.0,0.0,0.0,0.0,0.0,0.0,0.0,0.0,0.0,6.559,0.0,6.3623,0.0,0.0,0.0,0.0,0.0,0.0,0.0,0.0,6.9899,7.1137,7.2242,7.28,7.2916,0.0,7.1214,6.928,0.0,0.0,0.0,0.0,0.0,0.0,0.0,0.0,7.7382,8.1944,8.5711,8.8764,9.096,9.1392,9.0729,8.9036,8.5682,8.0992,7.4837,7.1285,6.8005,0.0,0.0,0.0,0.0,0.0,0.0,0.0,0.0,0.0,0.0,0.0,0.0,0.0,0.0,0.0,0.0,0.0,0.0,0.0,0.0,0.0,0.0,0.0,6.0195,0.0,0.0,0.0,0.0,0.0,0.0,0.0,0.0,0.0,6.4356,6.7546,7.0709,7.3065,7.6286,7.8867,8.0,0.0,0.0,0.0,0.0,0.0,0.0,0.0,7.7578,7.6172,7.5225,7.4262,7.3119,7.2456,7.2065,7.2065,0.0,0.0,6.6082,6.5166,6.5145,6.5129,6.5104,6.5406,6.6215,6.68,6.754,0.0,0.0,0.0,0.0,0.0,0.0,0.0,0.0,6.8936,6.8552,0.0,6.5909,0.0,0.0,0.0,0.0,0.0,0.0,0.0,0.0,7.2839,7.4022,7.4199,7.5724,7.6049,7.5175,7.4386,7.3535,7.2413,6.7694,0.0,0.0,0.0,0.0,0.0,0.0,7.8437,8.1989,8.6272,8.9333,9.1007,9.1934,9.1509,8.9676,8.4911,8.0686,7.7335,7.3939,7.0894,6.8279,6.4999,0.0,0.0,0.0,0.0,0.0,0.0,0.0,0.0,0.0,0.0,0.0,0.0,0.0,0.0,0.0,0.0,0.0,0.0,0.0,0.0,6.0508,0.0,0.0,0.0,0.0,0.0,0.0,0.0,0.0,0.0,0.0,6.7383,6.944,7.2124,7.5507,0.0,0.0,0.0,0.0,8.3633,8.3633,8.3633,8.332,8.25,8.0937,7.957,7.8789,0.0,0.0,7.7218,7.7179,7.7062,7.714,7.7023,7.5618,7.0699,6.966,6.9522,6.9514,6.9497,6.98,7.0571,7.0844,7.1351,7.4784,0.0,0.0,0.0,0.0,7.2052,7.2437,7.2399,7.2168,7.1668,7.0937,6.8462,0.0,0.0,0.0,0.0,0.0,0.0,7.2877,7.3728,7.5701,7.69,7.7465,7.7935,7.8051,7.7766,7.693,7.6118,7.5198,7.2645,7.0286,6.8236,0.0,0.0,0.0,0.0,7.9825,8.4437,8.7021,8.9467,9.1903,9.2191,9.1247,8.8974,8.5184,8.2092,7.9873,7.6516,7.351,7.0972,6.8161,0.0,0.0,0.0,0.0,0.0,0.0,0.0,0.0,0.0,0.0,0.0,0.0,0.0,0.0,0.0,0.0,0.0,0.0,0.0,6.2969,6.2617,6.2265,0.0,0.0,0.0,0.0,0.0,0.0,0.0,0.0,0.0,7.3906,7.4335,7.5228,0.0,0.0,8.1367,8.1875,8.3398,8.4531,8.4531,0.0,0.0,0.0,8.3203,8.2383,8.2187,8.0895,7.9903,7.9873,7.9366,7.8936,7.8975,7.8975,7.8429,7.7101,7.5176,7.4031,7.3946,7.393,7.4225,7.5014,7.5248,7.5551,7.8823,7.6746,7.4053,7.3437,7.4284,7.513,7.5476,7.5476,7.5476,7.4822,7.3591,7.1398,7.0298,7.0015,6.937,0.0,0.0,0.0,7.5639,7.6157,7.8205,7.939,7.9864,8.0512,8.0679,8.0383,7.9507,7.8683,7.7906,7.6243,7.4618,7.3032,0.0,0.0,7.4889,7.8167,8.1901,8.5962,8.8145,9.0227,9.2169,9.191,9.0921,8.9091,8.6434,8.4013,8.1981,7.9287,7.6477,7.3627,7.105,6.7927,0.0,0.0,0.0,0.0,0.0,0.0,0.0,0.0,0.0,0.0,0.0,5.6601,0.0,0.0,0.0,0.0,6.0586,6.2734,6.4648,6.4648,0.0,0.0,0.0,0.0,0.0,0.0,0.0,6.9961,7.2812,7.5625,7.832,7.8828,7.9335,8.0339,8.1833,8.2929,8.3281,0.0,8.5547,8.5898,8.6211,8.6289,8.5976,8.5508,8.4922,8.4219,8.3278,8.2597,8.2534,8.2098,8.1747,8.1708,8.1708,8.1708,8.1708,8.0413,7.8845,7.7621,7.734,7.7528,7.8035,7.8386,7.8854,8.2477,8.2054,7.8207,7.7053,7.7746,7.8477,7.8823,7.8861,7.8746,7.7823,7.6284,7.4591,7.335,7.2661,7.3639,0.0,7.4309,7.6784,7.7896,7.8001,8.0396,8.1504,8.1542,8.3045,8.3413,8.2747,8.1992,8.1234,8.0459,7.8873,7.8099,7.8022,7.5769,7.5305,7.6862,8.095,8.4301,8.679,8.9421,9.1216,9.2071,9.1331,9.0531,8.9781,8.804,8.5983,8.3685,8.1779,7.932,7.6158,7.3504,7.0225,6.6165,0.0,0.0,0.0,0.0,0.0,0.0,0.0,0.0,0.0,0.0,0.0,0.0,0.0,0.0,0.0,6.2656,0.0,6.5898,6.6797,0.0,0.0,0.0,6.7734,6.8594,7.0117,7.1797,7.3594,0.0,0.0,8.1094,0.0,8.3945,8.3984,8.3945,8.4219,8.5,8.5937,8.6797,8.7578,8.8281,8.8515,8.7812,8.7539,8.6953,8.5625,8.5112,8.4901,8.4876,8.4714,8.4753,8.4597,8.4792,8.472,8.4759,8.4447,8.3855,8.0673,8.0158,8.0119,8.0275,8.0743,8.1446,8.3901,8.3208,8.2208,8.1516,8.1131,8.1323,8.1785,8.2247,8.1016,8.0246,7.9746,7.7438,7.5967,7.5243,7.6172,7.6636,7.6828,7.8632,7.9841,8.0551,8.1771,8.2603,8.3143,8.3548,8.3693,8.3547,8.3326,8.3228,8.3128,8.2122,8.1581,8.1542,8.0972,8.0198,7.9492,8.2922,8.572,8.7681,8.959,9.1067,9.2016,9.0764,8.9932,8.9794,8.6897,8.5039,8.4401,8.1529,7.9244,7.7706,7.4632,7.155,6.8546,6.5549,0.0,0.0,0.0,0.0,0.0,0.0,0.0,0.0,0.0,5.7851,5.8555,0.0,6.043,0.0,6.5859,6.8594,6.9414,7.0273,0.0,0.0,7.1367,7.2109,7.3008,7.4023,7.5586,7.789,7.9492,8.1289,8.3711,8.5469,8.6797,8.7383,8.6953,8.664,8.6875,8.8164,8.9179,8.9375,8.957,8.9648,8.9375,8.8828,8.8242,8.789,8.6715,8.58,8.5813,8.526,8.4831,8.4792,8.4792,8.4843,8.4897,8.4888,8.4636,8.377,8.3575,8.3568,8.3592,8.3717,8.3919,8.517,8.4709,8.4709,8.4439,8.3978,8.3593,8.3747,8.4093,8.3208,8.2362,8.1516,7.9361,7.7968,7.7285,7.816,7.8822,7.9392,8.0586,8.1628,8.2505,8.3307,8.3864,8.4265,8.4581,8.4635,8.4358,8.4407,8.427,8.4095,8.3592,8.3399,8.3399,8.4107,8.3991,8.3192,8.5307,8.7306,8.9023,9.0417,9.1626,9.254,9.108,9.0135,8.9713,8.7195,8.5455,8.4728,8.2151,8.0134,7.8867,7.5971,7.3133,7.0567,6.7555,6.4989,0.0,0.0,0.0,0.0,0.0,0.0,0.0,0.0,0.0,0.0,0.0,6.3164,0.0,6.9101,7.1523,7.2383,7.3555,7.4297,7.4336,7.4726,7.539,7.625,7.7422,7.8867,8.0625,8.2304,8.3867,8.5312,8.6992,8.8203,8.8672,8.8984,8.9062,8.875,8.9453,9.0117,9.0508,9.0586,9.0586,9.0586,8.9844,8.9258,8.9179,8.8163,8.7255,8.7258,8.6549,8.5963,8.5963,8.5963,8.5975,8.5999,8.5986,8.6008,8.5981,8.5969,8.5644,8.4966,8.5122,8.5434,8.6094,8.606,8.6094,8.6094,8.6055,8.5363,8.5055,8.5055,8.4939,8.3978,8.2362,8.0939,7.9892,7.9297,8.0029,8.0849,8.1733,8.241,8.3191,8.3963,8.4643,8.5004,8.5093,8.5747,8.5799,8.5246,8.5256,8.5004,8.4443,8.4405,8.4405,8.4482,8.5978,8.6817,8.6945,8.7913,8.9124,9.071,9.1618,9.2441,9.3253,9.1646,9.0453,8.9668,8.7882,8.6196,8.4701,8.2779,8.1115,7.9598,7.7082,7.4626,7.2305,6.983,6.7383,0.0,6.419,0.0,0.0,0.0,0.0,0.0,0.0,0.0,0.0,6.4297,6.6758,6.9805,7.2461,7.4297,7.5039,7.6562,7.75,7.7539,7.7734,7.8164,7.8945,8.0469,8.1836,8.2695,8.4804,8.6211,8.6406,8.7851,8.8867,8.9062,9.0351,9.1054,9.0508,9.039,9.0703,9.1406,9.1445,9.1445,9.1406,9.0742,9.0156,9.0078,8.9375,8.8828,8.8602,8.8039,8.7525,8.7407,8.7407,8.7498,8.7565,8.7635,8.7743,8.7717,8.7626,8.7017,8.5707,8.5777,8.6519,8.606,8.6031,8.6099,8.6094,8.6094,8.594,8.5863,8.5824,8.5209,8.4324,8.3324,8.3016,8.2785,8.2701,8.2817,8.3033,8.3248,8.338,8.3919,8.4759,8.4889,8.5247,8.5863,8.6017,8.6114,8.6152,8.6152,8.6163,8.6145,8.6145,8.6145,8.6184,8.7178,8.799,8.8764,0.0,0.0,0.0,9.2781,9.3037,9.3108,9.1024,8.9817,8.9635,8.6661,0.0,8.4465,8.1569,7.9778,7.9377,7.6988,0.0,0.0,0.0,0.0,0.0,0.0,0.0,0.0,0.0,0.0,0.0,6.9023,6.8242,6.7187,6.9805,7.2148,7.3515,7.5976,7.7578,7.7773,7.8633,7.9219,7.9297,8.0508,8.1406,8.164,8.3086,8.4492,8.5351,8.5937,8.6484,8.7226,8.8711,8.9726,8.9844,9.125,9.2226,9.207,9.2031,9.2148,9.2344,9.2304,9.2304,9.2344,9.1601,9.1054,9.0937,9.0351,8.957,8.8906,8.8646,8.8149,8.7642,8.7993,8.8441,8.8476,8.9022,8.941,8.9482,8.8928,8.8134,8.7073,8.6979,8.7408,8.6576,0.0,8.6115,8.5958,0.0,8.5958,8.5992,8.6026,8.5637,8.5016,8.4247,8.4247,8.4016,8.3593,8.3593,8.3888,8.4335,8.4279,8.4703,8.5606,8.5973,8.6363,8.6748,8.7171,8.7231,8.7001,8.7001,8.6858,8.661,8.661,8.6803,8.7267,8.8106,8.8958,8.9848,9.1909,9.335,9.423,9.3955,9.3762,9.3721,9.1877,9.048,8.9622,0.0,0.0,0.0,0.0,0.0,0.0,0.0,0.0,0.0,0.0,0.0,7.1806,7.1,7.0575,7.0621,7.1077,7.1871,7.3164,7.4062,7.3672,7.1523,7.3359,7.5117,7.6445,7.8476,7.9726,7.9765,8.0469,8.1172,8.1601,8.2422,8.3086,8.3633,8.4765,8.5703,8.6133,8.6601,8.7148,8.8008,8.9174,9.0151,9.0625,9.1758,9.2617,9.2656,9.2969,9.3242,9.3203,9.2851,9.2578,9.2578,9.2265,9.1914,9.1836,9.1211,9.0547,9.0078,8.9606,8.9197,8.8786,8.9071,8.9328,8.9375,8.9726,9.0,8.9959,8.9641,8.9236,8.8689,8.8314,8.8248,8.7312,8.7235,8.6582,8.6276,8.6276,8.6276,8.6233,8.6188,0.0,0.0,0.0,8.5132,8.4709,8.4055,8.4016,8.4433,8.519,8.5318,8.5703,8.6422,8.7242,8.7632,8.7671,8.8363,8.8386,8.785,8.785,8.7553,8.7074,8.7074,8.7422,8.8157,8.8996,8.9964,9.1124,9.3311,9.4858,9.5632,9.4984,9.4524,9.4344,9.2943,9.1335,8.9586,8.7271,8.5594,8.4715,8.224,8.0845,8.0747,7.9191,7.8237,7.812,7.6233,7.5113,7.5015,7.3932,7.3484,7.4044,7.431,7.5032,7.6484,7.789,7.7734,7.5469,7.6211,7.7383,7.8828,8.0469,8.1445,8.1484,8.2265,8.3047,8.375,8.3984,8.4375,8.5078,8.5898,8.6445,8.6523,8.7187,8.7929,8.8594,8.9592,9.0471,9.1205,9.2031,9.2812,9.3008,9.3359,9.3594,9.3711,9.3125,9.2578,9.2578,9.2578,9.2578,9.25,9.1953,9.1523,9.125,9.0703,9.0234,8.9857,9.0073,9.0195,9.0234,9.0429,9.0429,9.0429,9.0309,9.0213,9.0147,8.9719,8.9554,8.8117,8.804,8.804,8.8039,8.8039,8.8039,8.7655,8.6995,8.6406,8.6055,8.594,8.594,8.5863,8.5747,8.5747,8.5824,8.5978,8.6709,8.7094,0.0,8.8132,8.8517,8.8517,8.8632,8.8694,8.8737,8.8737,8.8789,8.8853,8.8814,8.8892,8.9085,8.9848,9.1357,9.3562,9.4772,9.5748,9.659,9.5816,9.51,9.433,9.2828,9.119,8.9482,8.7759,8.638,8.5466,8.2979,8.1596,8.148,7.9892,7.9,7.9,7.8766,7.8276,7.7665,7.8118,7.8174,7.7653,7.8344,7.8883,7.914,7.9414,7.9062,7.8125,7.9375,8.039,8.0703,8.2226,8.3242,8.3281,8.3945,8.4492,8.4726,8.5351,8.5898,8.6015,8.6758,8.7265,8.7344,8.8008,8.8554,8.8945,9.0139,9.1123,9.1414,9.2182,9.3125,9.414,9.3633,9.3203,9.3594,9.3164,9.2656,9.2578,9.2578,9.2578,9.2578,9.2461,9.2109,9.1523,9.125,9.0898,9.0195,9.0703,9.1054,9.1133,9.1758,9.2031,9.207,9.1676,9.1228,9.124,9.1544,9.1688,8.8881,8.8764,8.8383,8.8231,8.8231,8.8385,8.8192,8.7878,8.7637,8.6978,8.6132,8.6094,8.6094,8.6132,8.6594,8.6824,8.6824,8.7709,8.8094,8.8171,8.894,8.9363,8.9402,8.9855,8.9921,8.9639,8.9656,8.9513,8.924,8.9201,8.9433,8.9898,9.1163,9.2633,9.4153,9.5052,9.5902,9.6783,9.6493,9.5902,9.5039,9.3904,9.2479,9.0811,8.8744,8.7176,8.6282,8.4211,8.3087,8.2995,8.2273,8.1889,8.1846,8.1522,8.1155,8.0823,8.0792,8.0883,8.1059,8.1914,8.2461,8.2441,8.2493,8.2378,8.2026,8.1796,8.1914,8.2383,8.3594,8.4297,8.4297,8.4648,8.5078,8.5547,8.5976,8.6406,8.6836,8.7226,8.7656,8.8086,8.8476,8.9062,9.0,9.0817,9.154,9.1955,9.2762,9.3789,9.5,9.457,9.414,9.4414,9.3476,9.2695,9.2578,9.2578,9.2578,9.2578,9.2578,9.2422,9.2031,9.1992,9.1836,9.1523,9.1797,9.1953,9.2031,9.2304,9.2734,9.3203,9.3036,9.2814,9.3224,9.3642,9.3653,8.96,8.9523,8.8912,8.8644,8.8685,8.8883,8.8882,8.88,8.8906,8.8094,8.6786,8.6671,8.6671,8.6748,8.7401,8.7671,8.7786,8.8594,8.8979,8.9056,8.9825,9.021,9.0248,9.1005,9.1,9.0526,9.0535,9.0277,8.982,8.9743,9.0168,9.1058,9.2517,9.3688,9.4481,9.5554,9.6328,9.6783,9.7064,9.6666,9.5592,9.4822,9.3568,9.1863,8.9787,8.8183,8.7096,8.5589,8.4649,8.4366,8.4219,8.415,8.4079,8.3584,8.3264,8.3271,8.2805,8.2776,8.3611,8.4337,8.4771,8.4802,8.4837,8.4858,8.478,8.3857,8.3318,8.3906,8.4687,8.5195,8.5234,8.5429,8.5742,8.6406,8.6523,8.6758,8.7383,8.7656,8.7969,8.8594,8.9023,8.9883,9.0937,9.1484,9.1953,9.2794,9.3627,9.4492,9.5273,9.5351,9.5234,9.5117,9.4023,9.289,9.2656,9.2578,9.2578,9.2578,9.2812,9.289,9.2929,9.3008,9.3203,9.3203,9.3203,9.3281,9.3203,9.3242,9.3554,9.4062,9.4093,9.446,9.5417,9.5817,9.5511,9.0517,9.0478,9.044,9.0406,9.049,9.0608,9.0301,8.976,8.9752,8.9325,8.8517,8.844,8.8402,8.8479,8.8517,8.8556,8.8632,8.944,8.9787,8.9863,9.0671,9.1095,9.1018,9.1236,9.1297,9.1238,9.1376,9.1359,9.1329,9.1367,9.187,9.275,9.364,9.453,9.5438,9.6985,9.7488,9.6822,9.7557,9.717,9.5574,9.4702,9.349,9.1863,9.0894,8.96,8.7995,8.6958,8.608,8.5229,8.4521,8.4146,8.4132,8.4043,8.403,8.4095,8.4164,8.4276,8.4468,8.4635,8.4802,8.4805,8.4883,8.4911,8.4941,8.5403,8.5444,8.5117,8.5586,8.6054,8.6133,8.6719,8.7109,8.7226,8.7344,8.7422,8.7617,8.8164,8.8633,8.8672,9.0039,9.1133,9.1445,9.2109,9.2851,9.3672,9.4531,9.5351,9.6015,9.582,9.5625,9.5898,9.4883,9.3633,9.2969,9.2617,9.2812,9.2812,9.332,9.3672,9.3867,9.4336,9.4922,9.4453,9.4726,9.4687,9.4765,9.4961,9.4883,9.5234,9.5429,9.5697,9.707,9.7905,9.76,9.2083,9.2083,9.2083,9.2129,9.2217,9.1913,9.1604,9.1367,9.0867,9.0479,9.021,9.0171,8.9633,8.8748,8.921,8.9402,8.9479,9.0287,9.0671,9.071,9.1056,9.121,9.121,9.1275,9.1336,9.1423,9.1531,9.1629,9.1716,9.1716,9.2141,9.302,9.3794,9.4888,9.6241,9.7488,9.8145,9.8292,9.8176,9.775,9.6976,9.569,9.4442,9.3242,9.1926,9.0714,8.9514,8.8609,8.8002,8.7615,8.6803,8.6326,8.6326,8.5875,8.5591,8.5676,8.5812,8.5894,8.5966,8.6062,8.6129,8.6164,8.6221,8.6267,8.6306,8.6609,8.6644,8.6449,8.6705,8.6909,8.695,8.7226,8.7421,8.7498,8.789,8.8203,8.8203,8.8984,8.9648,9.0156,9.0859,9.1758,9.2695,9.3594,9.4219,9.4726,9.5429,9.6133,9.6445,9.6562,9.664,9.6445,9.582,9.5156,9.4297,9.414,9.4101,9.4179,9.4414,9.4648,9.4726,9.4883,9.5195,9.5234,9.5351,9.5351,9.5117,9.5273,9.539,9.6211,9.7773,9.8474,9.9055,9.9415,9.9007,9.3115,9.3115,9.3158,9.3284,9.3331,9.2872,9.2715,9.2749,9.2133,9.1748,9.1556,9.1556,9.0902,8.9902,9.0133,9.0248,9.0402,9.1171,9.1556,9.1595,9.1787,9.1902,9.1864,9.2006,9.1914,9.1778,9.1879,9.1861,9.1754,9.1986,9.2489,9.333,9.4181,9.5429,9.7054,9.7991,9.8725,9.9189,9.8717,9.833,9.7943,9.6628,9.5313,9.4191,9.2799,9.1561,9.045,8.9859,8.9433,8.9201,8.8582,8.8273,8.8234,8.7654,8.7332,8.7371,8.7452,8.7562,8.7564,8.7698,8.7751,8.7772,8.7907,8.7962,8.7962,8.796,8.7983,8.8004,8.8064,8.8017,8.744,8.7607,8.7766,8.7795,8.8547,8.9059,8.9101,8.9804,9.0664,9.1484,9.1914,9.2539,9.3984,9.4961,9.5508,9.5625,9.6289,9.6836,9.6875,9.7265,9.7422,9.6914,9.6836,9.6328,9.5469,9.5039,9.5195,9.5273,9.5273,9.5547,9.5625,9.5703,9.6133,9.6758,9.6328,9.6523,9.7187,9.707,9.6797,9.8164,9.9531,10.0469,10.0461,10.072,10.0907,9.3115,9.3153,9.3281,9.344,9.3408,9.3525,9.3599,9.3633,9.3518,9.3095,9.2479,9.2476,9.2399,9.2172,9.1518,9.1171,9.1287,9.2056,9.2441,9.2518,9.3133,9.3518,9.3592,9.3701,9.3312,9.2608,9.2666,9.2441,9.1909,9.2567,9.334,9.4143,9.4955,9.6309,9.7896,9.8764,9.9267,9.9421,9.9259,9.8872,9.8137,9.7209,9.5893,9.4385,9.3407,9.2141,9.0682,9.0373,9.0024,8.9262,8.9174,8.9163,8.9124,8.9047,8.8996,8.901,8.9036,8.9096,8.9136,8.9216,8.9294,8.9372,8.935,8.9502,8.9363,8.9387,8.943,8.9586,8.9532,8.9038,8.7869,8.8234,8.863,8.8702,8.9405,8.99,8.9999,9.0859,9.1601,9.25,9.332,9.4101,9.5039,9.5898,9.6367,9.6562,9.7148,9.7656,9.7695,9.7734,9.7851,9.7812,9.7656,9.7148,9.5664,9.5586,9.5469,9.5586,9.6172,9.6445,9.6719,9.707,9.7734,9.8281,9.8203,9.8594,9.9609,9.9961,9.9726,10.0312,10.082,10.1406,10.1484,10.2203,10.2312,9.4681,9.4681,9.4895,9.4978,9.4982,9.4638,9.4482,9.448,9.3941,9.3557,9.3287,9.3249,9.3249,9.3249,9.2941,9.2787,9.2826,9.3133,9.3249,9.3287,9.3557,9.3672,9.3672,9.3746,9.3701,9.3466,9.3456,9.3438,9.3291,9.3562,9.4133,9.4926,9.5342,9.658,9.8515,9.9151,9.9808,10.0767,9.9916,9.9143,9.8756,9.7518,9.6241,9.5081,9.4191,9.2953,9.129,9.1251,9.1069,9.0798,9.0284,8.9975,8.9898,8.9472,8.9201,8.919,8.9204,8.9217,8.9266,8.9337,8.9404,8.9486,8.9527,8.9644,8.9643,8.9696,8.9746,8.9746,8.9761,8.9377,8.9169,8.9242,8.9469,8.9563,9.0243,9.1045,9.1619,9.2422,9.332,9.4179,9.5,9.5703,9.6054,9.6758,9.7265,9.7344,9.8008,9.8437,9.8633,9.8984,9.9258,9.9336,9.9336,9.9179,9.8711,9.7422,9.6836,9.6875,9.7109,9.7187,9.7383,9.7383,9.7851,9.8203,9.8672,9.9375,10.0,10.082,10.0937,10.1289,10.1836,10.2148,10.2422,10.2654,10.2803,9.5686,9.5686,9.5859,9.5941,9.5864,9.5559,9.5403,9.5326,9.4788,9.4403,9.4172,9.4134,9.4134,9.4134,9.4095,9.4287,9.448,9.4249,9.4134,9.4134,9.4403,9.4557,9.4518,9.4518,9.44,9.424,9.4005,9.3957,9.4087,9.435,9.4806,9.537,9.5941,9.7217,9.8965,9.9481,10.0369,10.1284,10.0156,9.9267,9.9104,9.7673,9.6396,9.5545,9.4926,9.3843,9.218,9.187,9.1716,9.1638,9.1135,9.0826,9.0749,9.0284,9.0014,8.9975,9.0029,8.9991,9.0002,9.0094,9.0152,9.0197,9.0302,9.0343,9.0402,9.046,9.0517,9.0535,9.0496,9.0492,9.0524,9.0587,9.0529,9.0518,9.1291,9.2217,9.2873,9.3727,9.4609,9.5469,9.6289,9.6797,9.6992,9.7656,9.8047,9.8125,9.8867,9.9375,9.9531,9.9883,10.0312,10.0312,10.0195,10.0156,9.9844,9.8945,9.8203,9.8164,9.8008,9.8047,9.7872,9.7812,9.7884,9.8191,9.875,9.9492,10.0351,10.1289,10.1719,10.1992,10.2265,10.2617,10.2758,10.2827,10.289,9.5818,9.5853,9.6019,9.5981,9.5941,9.6097,9.6249,9.6172,9.6172,9.5634,9.5057,9.502,9.4982,9.5018,9.498,9.5441,9.5826,9.5326,9.5018,9.5057,9.5749,9.6095,9.6057,9.6019,9.5672,9.5055,9.4317,9.4039,9.4255,9.4949,9.5368,9.5631,9.6938,9.8025,9.9116,9.9853,10.074,10.1191,10.0138,9.932,9.9073,9.775,9.6512,9.57,9.5506,9.4694,9.3137,9.2218,9.1793,9.1716,9.1677,9.1677,9.16,9.1522,9.16,9.1484,9.1561,9.16,9.1638,9.1682,9.1721,9.1888,9.1967,9.1993,9.1954,9.2034,9.2035,9.1918,9.1956,9.2013,9.1974,9.207,9.1871,9.1444,9.2536,9.3443,9.3981,9.463,9.5475,9.6406,9.7226,9.7656,9.789,9.8476,9.8984,9.914,9.9726,10.0312,10.0312,10.0547,10.0469,10.0469,10.0742,10.0976,10.0664,10.0234,9.9765,9.9336,9.9062,9.8906,9.8476,9.8301,9.8346,9.8609,9.9334,10.0078,10.1133,10.1992,10.2383,10.2656,10.289,10.289,10.289,10.289,10.289,9.59,9.5859,9.5941,9.6019,9.6058,9.6136,9.6213,9.6288,9.6288,9.6134,9.5942,9.5903,9.5903,9.5903,9.5903,9.6019,9.6249,9.598,9.5903,9.5942,9.6172,9.6288,9.6288,9.6288,9.6172,9.5903,9.567,9.5588,9.5658,9.5889,9.6112,9.6338,9.723,9.8233,9.9124,9.9897,10.0707,10.1395,10.0612,9.9861,9.9204,9.8223,9.7286,9.6435,9.5816,9.5206,9.4694,9.334,9.2335,9.1793,9.1716,9.1716,9.1716,9.1716,9.1716,9.1716,9.1716,9.2025,9.2556,9.2595,9.2893,9.3374,9.3589,9.3387,9.3037,9.3003,9.2752,9.2286,9.2151,9.2151,9.2229,9.2695,9.291,9.2783,9.3297,9.4251,9.5299,9.6269,9.6938,9.7344,9.8086,9.8554,9.875,9.9336,9.9883,9.9961,10.0625,10.1172,10.125,10.1601,10.207,10.2109,10.2109,10.1875,10.1679,10.148,10.1195,10.058,10.0195,9.9687,9.9219,9.8898,9.8917,9.925,9.9952,10.0781,10.1836,10.2461,10.2773,10.289,10.289,10.289,10.289,10.289,10.289,9.5981,9.5981,9.5981,9.602,9.6098,9.6098,9.6213,9.6288,9.6288,9.6288,9.6288,9.6288,9.6288,9.6288,9.6288,9.6288,9.6288,9.6288,9.6288,9.6288,9.6288,9.6288,9.6288,9.6288,9.6288,9.6288,9.6288,9.6325,9.6322,9.6397,9.6512,9.6933,9.7742,9.8592,9.9439,10.0248,10.1018,10.14,10.0813,10.0033,9.9216,9.8392,9.7643,9.683,9.622,9.5825,9.5477,9.4423,9.3379,9.2373,9.1909,9.1716,9.1716,9.1716,9.1832,9.2141,9.2218,9.2567,9.333,9.3446,9.365,9.4181,9.4356,9.4186,9.3822,9.3814,9.3525,9.3159,9.312,9.3042,9.3197,9.3508,9.4017,9.4368,9.4518,9.5197,9.6524,9.7565,9.8116,9.8359,9.8945,9.9375,9.9648,10.0195,10.0742,10.0898,10.1523,10.2109,10.2187,10.25,10.2773,10.289,10.2695,10.2656,10.2812,10.2683,10.2562,10.1924,10.1289,10.0625,10.0039,9.9726,9.9633,10.0194,10.0835,10.1361,10.2304,10.2617,10.289,10.289,10.289,10.289,10.289,10.289,10.289,9.629,9.6174,9.6098,9.6098,9.6098,9.6098,9.6175,9.6288,9.6288,9.6288,9.6288,9.6288,9.6288,9.6288,9.6288,9.6288,9.6288,9.6288,9.6288,9.6288,9.6288,9.6288,9.6288,9.6288,9.6288,9.6288,9.6288,9.6288,9.6288,9.6288,9.6711,9.7441,9.8287,9.9211,9.9981,10.0866,10.1289,10.1326,10.0786,10.0049,9.9154,9.8411,9.7549,9.6777,9.6622,9.6305,9.5748,9.539,9.4539,9.3137,9.2141,9.1754,9.1793,9.1793,9.2218,9.2992,9.307,9.3495,9.4065,9.4297,9.4423,9.4665,9.4733,9.4442,9.4574,9.4583,9.4513,9.4402,9.4441,9.4518,9.4518,9.4674,9.5101,9.5783,9.5943,9.6507,9.7427,9.8352,9.8777,9.9062,9.9726,10.0351,10.0429,10.1133,10.1562,10.1797,10.2304,10.2617,10.2773,10.2812,10.289,10.289,10.289,10.289,10.2926,10.2831,10.2711,10.253,10.2011,10.1562,10.0976,10.0664,10.0195,10.0762,10.1443,10.2015,10.2383,10.2617,10.2812,10.289,10.289,10.289,10.2927,10.2914,10.29,9.7173,9.7058,9.6289,9.6058,9.6213,9.6058,9.6098,9.6288,9.6288,9.6288,9.6288,9.6288,9.6288,9.6288,9.6288,9.6288,9.6288,9.6288,9.6288,9.6288,9.6288,9.6288,9.6288,9.6288,9.6288,9.6288,9.6288,9.6288,9.6288,9.6288,9.6749,9.7519,9.8365,9.9211,10.0096,10.0904,10.1289,10.1328,10.1288,10.0362,9.9127,9.8846,9.8031,9.668,9.6564,9.6474,9.6328,9.5786,9.4733,9.3108,9.218,9.2025,9.2567,9.2644,9.3031,9.3727,9.3921,9.4269,9.4955,9.5149,9.5429,9.6087,9.598,9.5951,9.5416,9.5437,9.5195,9.4868,9.4674,9.4751,9.4829,9.5256,9.5977,9.6758,9.6915,9.713,9.7561,9.837,9.9,9.914,10.0351,10.1094,10.1433,10.1914,10.2461,10.2539,10.2683,10.2894,10.29,10.2914,10.2878,10.2921,10.289,10.289,10.2875,10.2855,10.2789,10.275,10.2615,10.2539,10.2031,10.1679,10.1054,10.074,10.1538,10.2172,10.2222,10.2383,10.2578,10.291,10.2905,10.291,10.2917,10.291,10.2894,9.8019,9.7866,9.6863,9.6556,9.6597,9.6094,9.602,9.6213,9.6251,9.6288,9.6288,9.6288,9.6288,9.6288,9.6288,9.6288,9.6288,9.6288,9.6251,9.6213,9.6136,9.6174,9.6251,9.6288,9.6288,9.6288,9.6288,9.6288,9.6288,9.6288,9.6942,9.7942,9.8519,9.9404,10.0596,10.1019,10.1289,10.125,10.1095,10.0246,9.8977,9.8587,9.7813,9.6695,9.6463,9.6492,9.6506,9.5825,9.4782,9.3678,9.3021,9.2943,9.3359,9.3475,9.3853,9.4655,9.4733,9.512,9.5845,9.6039,9.6241,9.6667,9.686,9.6648,9.6333,9.6267,9.6027,9.5833,9.5739,9.5723,9.58,9.6189,9.6677,9.7087,9.7304,9.7416,9.7487,9.8734,9.9374,9.991,10.0972,10.2142,10.2152,10.2597,10.28,10.2831,10.2781,10.286,10.285,10.285,10.2888,10.2855,10.2861,10.2861,10.2861,10.2835,10.2789,10.2789,10.2789,10.2816,10.2695,10.2383,10.2031,10.1601,10.1944,10.2175,10.2343,10.2459,10.2675,10.2927,10.2906,10.2913,10.2894,10.2861,10.2888,9.8827,9.8592,9.7628,9.7204,9.7012,9.6284,9.5941,9.6098,9.6213,9.6288,9.6288,9.6288,9.6288,9.6288,9.6288,9.6288,9.6251,9.6251,9.6174,9.6098,9.5981,9.6058,9.6174,9.6251,9.6251,9.6251,9.6288,9.6288,9.6365,9.6365,9.7288,9.8404,9.8865,9.9788,10.0866,10.1289,10.1289,10.1173,10.0672,9.9863,9.8826,9.8168,9.7357,9.6625,9.6432,9.6429,9.6309,9.5854,9.5126,9.4428,9.421,9.4055,9.4119,9.4265,9.4721,9.54,9.5661,9.5971,9.659,9.6667,9.6744,9.6822,9.6822,9.6812,9.6782,9.6786,9.6824,9.6771,9.7114,9.692,9.6943,9.7121,9.7121,9.7221,9.726,9.7343,9.7738,9.9016,10.0095,10.0278,10.1733,10.2553,10.2861,10.2849,10.2828,10.281,10.2782,10.279,10.279,10.28,10.2802,10.2781,10.2781,10.282,10.282,10.282,10.2781,10.2742,10.2781,10.2796,10.2875,10.2734,10.2812,10.2773,10.2578,10.2578,10.2695,10.2839,10.2888,10.2859,10.285,10.2859,10.2867,10.2835,10.282,9.947,9.9355,9.7733,9.7082,9.7009,9.6239,9.5938,9.6098,9.6136,9.6213,9.6251,9.6288,9.6288,9.6288,9.6288,9.6251,9.6175,9.6136,9.6058,9.5941,9.5941,9.5941,9.5981,9.6098,9.6175,9.6136,9.6251,9.6288,9.6403,9.6942,9.775,9.8673,9.948,10.0327,10.1135,10.1289,10.1289,10.1173,10.0519,9.9634,9.8826,9.7941,9.7094,9.6402,9.6363,9.6399,9.6432,9.6322,9.613,9.5658,9.4844,9.4492,9.4975,9.5084,9.5533,9.6173,9.6435,9.659,9.6744,9.6822,9.6822,9.6822,9.6822,9.6851,9.687,9.6909,9.6964,9.7006,9.7031,9.7082,9.713,9.7176,9.7199,9.7199,9.7238,9.7341,9.7593,9.8421,9.9377,10.0235,10.1133,10.2051,10.2694,10.2789,10.2742,10.2733,10.2722,10.2733,10.2709,10.2698,10.2686,10.2683,10.2683,10.2722,10.2733,10.2733,10.2743,10.2714,10.2763,10.2763,10.2816,10.2878,10.2882,10.2878,10.2866,10.2905,10.2875,10.2871,10.2881,10.2859,10.2831,10.2792,10.2792,10.2792,10.2763,10.0267,10.0032,9.838,9.7609,9.7418,9.6346,9.5856,9.5938,9.6058,9.6136,9.6213,9.6251,9.6288,9.6288,9.6288,9.6213,9.6098,9.5979,9.5938,9.5856,9.5776,9.5734,9.5776,9.5898,9.5979,9.6098,9.6251,9.6288,9.6519,9.7134,9.7904,9.8788,9.9711,10.0481,10.1173,10.1289,10.1289,10.1019,10.0096,9.9211,9.8711,9.7557,9.6826,9.6403,9.6326,9.6363,9.6361,9.6402,9.6363,9.613,9.555,9.528,9.5731,9.5908,9.6204,9.6607,9.6783,9.6783,9.6822,9.6822,9.6822,9.6822,9.6822,9.6851,9.6841,9.688,9.6909,9.6953,9.6979,9.7031,9.7106,9.7114,9.716,9.7199,9.7238,9.7281,9.748,9.8206,9.9163,10.003,10.0927,10.1825,10.2382,10.2587,10.2665,10.2655,10.2608,10.2624,10.2612,10.2607,10.2601,10.2592,10.2592,10.2592,10.2659,10.2673,10.2698,10.2671,10.2722,10.2722,10.2763,10.2796,10.2822,10.2849,10.2881,10.285,10.2859,10.282,10.282,10.2761,10.2764,10.2749,10.2761,10.28,10.2772,10.0831,10.0627,9.8943,9.821,9.7853,9.6413,9.581,9.5853,9.5979,9.6058,9.6098,9.6251,9.6251,9.6288,9.6251,9.6213,9.6057,9.5856,9.5772,9.5729,9.5686,9.5643,9.5686,9.5772,9.5898,9.6058,9.6213,9.6289,9.6711,9.7326,9.8288,9.9058,9.9904,10.0673,10.1212,10.1289,10.1289,10.1096,9.975,9.8904,9.8519,9.7288,9.6403,9.6326,9.6288,9.6288,9.6288,9.6288,9.6288,9.6288,9.6288,9.6326,9.6363,9.6467,9.6564,9.6699,9.6753,9.6783,9.6822,9.6822,9.6822,9.6822,9.6822,9.6822,9.6812,9.6841,9.687,9.6898,9.6926,9.7006,9.7057,9.7114,9.7137,9.7137,9.7199,9.7221,9.7401,9.8099,9.8806,9.9683,10.0463,10.1294,10.2023,10.2452,10.253,10.2595,10.2538,10.2513,10.2498,10.2518,10.2516,10.2534,10.2552,10.2552,10.2569,10.2585,10.2616,10.2631,10.2646,10.2659,10.2673,10.2722,10.2753,10.2828,10.2811,10.2821,10.2749,10.2761,10.2737,10.2709,10.2655,10.2646,10.2698,10.279,10.2881,10.065,10.0536,9.8808,9.812,9.7853,9.6369,9.5724,9.581,9.5853,9.5938,9.6098,9.6136,9.6213,9.6251,9.6136,9.6019,9.5895,9.5729,9.5643,9.5643,9.5598,9.5598,9.5643,9.5686,9.5853,9.5936,9.6174,9.6597,9.7288,9.8173,9.8865,9.9827,10.0635,10.1173,10.125,10.1289,10.1289,10.1058,9.9673,9.8827,9.8442,9.725,9.6288,9.6288,9.6288,9.6288,9.6288,9.6288,9.6288,9.6288,9.6288,9.6326,9.6325,9.6429,9.6564,9.6699,9.6723,9.6822,9.6822,9.686,9.6822,9.6822,9.6899,9.686,9.686,9.6812,9.6812,9.6841,9.687,9.6926,9.6926,9.7043,9.7114,9.7114,9.7176,9.7221,9.7341,9.7596,9.806,9.8884,9.9786,10.0749,10.154,10.225,10.2468,10.253,10.2477,10.246,10.2456,10.2477,10.2479,10.2499,10.2518,10.2518,10.2518,10.2518,10.2537,10.2498,10.2516,10.2516,10.2552,10.2601,10.2646,10.2698,10.271,10.2725,10.2712,10.2698,10.2616,10.2591,10.2552,10.253,10.2802,10.3091,10.3536,10.0604,10.0451,9.9266,9.8502,9.7929,9.6821,9.6063,9.5724,9.5729,9.5856,9.6019,9.6058,9.6136,9.6136,9.6136,9.5979,9.5772,9.5643,9.5598,9.5598,9.5598,9.5598,9.5598,9.5724,9.5772,9.6051,9.6401,9.6904,9.7557,9.8365,9.9288,10.0058,10.0904,10.1289,10.1289,10.1289,10.1289,10.0943,9.975,9.8788,9.8634,9.7134,9.6403,9.6288,9.6288,9.6288,9.6288,9.6288,9.6288,9.6288,9.6288,9.6288,9.6325,9.6358,9.6497,9.6597,9.6692,9.6792,9.6938,9.7131,9.7518,9.7479,9.7479,9.7479,9.7325,9.7131,9.6899,9.6822,9.6812,9.6841,9.6898,9.6979,9.707,9.7106,9.7153,9.7199,9.7242,9.7264,9.7635,9.8216,9.9341,10.0371,10.1249,10.1836,10.2304,10.2479,10.2399,10.2395,10.2404,10.2428,10.2456,10.2417,10.2438,10.2438,10.2417,10.2417,10.2417,10.2417,10.2378,10.2417,10.2399,10.246,10.2555,10.2607,10.2585,10.2601,10.2601,10.2585,10.2534,10.2479,10.2479,10.2596,10.3063,10.3491,10.3938,10.0604,10.0527,9.9725,9.8884,9.8044,9.7241,9.6401,9.5757,9.5686,9.5814,9.5859,9.6019,9.6058,9.6058,9.6019,9.5938,9.5729,9.5643,9.5598,9.5598,9.5598,9.5598,9.5637,9.5834,9.6074,9.6437,9.7089,9.7556,9.7981,9.875,9.9519,10.0327,10.1058,10.1289,10.1289,10.1289,10.1289,10.0827,9.9904,9.9019,9.825,9.7134,9.6288,9.6288,9.6288,9.6288,9.6288,9.6557,9.6442,9.6442,9.6442,9.648,9.6326,9.6361,9.6394,9.6497,9.6597,9.6769,9.7178,9.7595,9.8089,9.8292,9.833,9.833,9.8253,9.7866,9.7363,9.7092,9.7092,9.7006,9.6919,9.6958,9.7014,9.7095,9.7114,9.716,9.7221,9.732,9.7476,9.8199,9.9152,9.9989,10.0767,10.1818,10.2381,10.2378,10.2356,10.2334,10.2366,10.2327,10.235,10.235,10.2311,10.2288,10.2288,10.2264,10.2264,10.224,10.2279,10.2254,10.2279,10.2327,10.2395,10.244,10.246,10.2479,10.2498,10.2516,10.246,10.242,10.2438,10.271,10.3211,10.3833,10.44,10.0604,10.0527,9.9763,9.8884,9.8044,9.728,9.6401,9.5675,9.5643,9.5686,9.5814,9.5859,9.5941,9.59,9.5856,9.5772,9.5681,9.5598,9.5751,9.5904,9.5789,9.5789,9.5828,9.6439,9.6806,9.7166,9.7935,9.84,9.8789,9.9481,10.0289,10.0981,10.1135,10.1289,10.1289,10.1289,10.1289,10.1135,10.0366,9.9211,9.7904,9.6903,9.6557,9.6442,9.6442,9.6519,9.6673,9.7057,9.7097,9.6634,9.7057,9.698,9.648,9.6326,9.6361,9.6429,9.6641,9.7008,9.7581,9.8145,9.8631,9.9065,9.9151,9.9151,9.8988,9.8911,9.8485,9.7982,9.7943,9.7711,9.7277,9.7015,9.6986,9.72,9.7479,9.7448,9.7432,9.7959,9.8037,9.8503,9.9557,9.9812,10.0278,10.1406,10.2395,10.2334,10.2288,10.2288,10.2288,10.2288,10.2288,10.2288,10.2288,10.2264,10.2215,10.219,10.2165,10.2138,10.2123,10.2096,10.2162,10.2216,10.2279,10.2311,10.2334,10.2356,10.2399,10.2399,10.2356,10.2334,10.2373,10.2793,10.3341,10.4026,10.4658,10.0604,10.0566,10.0222,9.9305,9.812,9.7738,9.6821,9.5789,9.5598,9.5686,9.5772,9.5814,9.5856,9.5856,9.5772,9.6035,9.6178,9.5866,9.621,9.6668,9.6592,9.6554,9.7012,9.7356,9.7724,9.8086,9.8703,9.9283,9.9673,9.9904,10.0481,10.1173,10.1289,10.1289,10.1289,10.1289,10.1289,10.1058,10.0442,9.9481,9.8481,9.7904,9.7673,9.7673,9.7672,9.7672,9.775,9.7942,9.8096,9.7788,9.8134,9.7827,9.7211,9.6942,9.6863,9.6399,9.6968,9.7452,9.7936,9.8841,9.9491,9.9878,9.9963,9.9808,9.9491,9.9336,9.9297,9.8833,9.8794,9.8524,9.8292,9.8283,9.8341,9.8348,9.8207,9.8333,9.8435,9.8636,9.9025,9.9491,9.9879,10.0174,10.0507,10.1479,10.2334,10.2311,10.2288,10.2288,10.2288,10.2288,10.2288,10.2288,10.2264,10.2264,10.2215,10.2165,10.21,10.2085,10.1971,10.201,10.2058,10.2078,10.2151,10.219,10.224,10.2288,10.235,10.2334,10.2311,10.2288,10.2264,10.2784,10.3302,10.3638,10.4128,10.051,10.0557,10.0604,9.9649,9.8158,9.8082,9.7165,9.5675,9.5598,9.5643,9.5729,9.5729,9.5729,9.5887,9.6035,9.6413,9.6821,9.6401,9.7012,9.7509,9.7623,9.7547,9.7853,9.8197,9.8561,9.8818,9.9662,10.0128,10.0327,10.0481,10.0789,10.125,10.1289,10.125,10.125,10.125,10.1289,10.1212,10.0519,9.9788,9.9173,9.8827,9.8711,9.8711,9.8788,9.8788,9.8788,9.9058,9.9096,9.8711,9.8981,9.8711,9.798,9.7519,9.7211,9.6979,9.7514,9.8009,9.8571,9.9397,10.0427,10.0775,10.0883,10.0729,10.0264,9.9955,9.9762,9.9684,9.9645,9.9529,9.9336,9.925,9.9164,9.9144,9.9332,9.9539,9.9642,9.9576,9.9716,10.0128,10.0516,10.0928,10.1317,10.1861,10.2249,10.2288,10.2288,10.2288,10.2288,10.2288,10.2288,10.2288,10.224,10.224,10.2165,10.2112,10.2046,10.199,10.1912,10.192,10.1959,10.2019,10.2068,10.2112,10.2165,10.2215,10.2264,10.2264,10.2288,10.2264,10.2381,10.2784,10.3211,10.3468,10.3662,10.0315,10.0413,10.0557,9.9649,9.8082,9.8082,9.7165,9.5637,9.5598,9.5637,9.5757,9.5681,9.5839,9.6035,9.6642,9.6942,9.7012,9.7623,9.8006,9.812,9.8082,9.8197,9.8579,9.9045,9.9441,9.9735,10.039,10.086,10.1134,10.098,10.1095,10.1208,10.121,10.1208,10.1208,10.121,10.125,10.1173,10.0596,10.025,9.9827,9.9442,9.9019,9.8981,9.8865,9.8827,9.8865,9.9596,9.975,9.9173,9.9673,9.9596,9.8827,9.8096,9.7596,9.748,9.8019,9.8515,9.8969,9.984,10.0782,10.14,10.1594,10.158,10.1309,10.1541,10.1309,10.0613,10.0535,10.0226,9.9762,9.9375,9.9753,9.9929,10.0141,10.0169,10.0224,10.0147,10.0288,10.0701,10.1114,10.1487,10.1705,10.2133,10.2249,10.2288,10.2288,10.2288,10.2288,10.2288,10.2288,10.2264,10.224,10.219,10.2112,10.2057,10.2029,10.1971,10.192,10.1889,10.1928,10.1951,10.201,10.2029,10.2112,10.2165,10.2215,10.224,10.2264,10.2264,10.242,10.2691,10.3017,10.3366,10.3444,10.0227,10.0315,10.0326,9.9422,9.7943,9.7943,9.7036,9.5751,9.5598,9.5942,9.6363,9.6489,9.6757,9.7216,9.7566,9.8013,9.8311,9.8082,9.8732,9.919,9.9228,9.9228,9.9572,9.9931,10.0372,10.054,10.097,10.1167,10.125,10.1365,10.1206,10.1126,10.1203,10.1123,10.1126,10.1131,10.1211,10.1212,10.1019,10.0827,10.0789,10.0635,10.0327,10.0327,10.0327,10.0327,10.0442,10.0673,10.0596,10.0519,10.0673,10.025,9.9635,9.8788,9.8096,9.775,9.8404,9.8749,9.9171,10.0203,10.1354,10.1664,10.1889,10.1889,10.1889,10.1889,10.1773,10.1464,10.1309,10.0999,10.1038,10.0922,10.0999,10.0953,10.0906,10.0828,10.081,10.0766,10.0897,10.135,10.1633,10.1929,10.2109,10.2288,10.2288,10.2288,10.2288,10.2288,10.2288,10.2288,10.2288,10.2264,10.2215,10.2165,10.2085,10.2029,10.1942,10.1951,10.1889,10.1889,10.1889,10.1889,10.1951,10.201,10.2057,10.2112,10.219,10.2279,10.2303,10.2264,10.2303,10.2381,10.2808,10.3172,10.3133,10.001,10.001,10.001,9.9315,9.8306,9.8011,9.7142,9.605,9.5713,9.6095,9.6898,9.7178,9.7598,9.8089,9.8516,9.8822,9.9159,9.9198,9.9687,10.0,10.0115,10.0191,10.0543,10.0703,10.076,10.1043,10.1126,10.1208,10.1327,10.1439,10.1549,10.1503,10.1383,10.1307,10.0995,10.1091,10.125,10.1289,10.1289,10.1289,10.1289,10.125,10.1212,10.1173,10.1135,10.1135,10.1096,10.1173,10.1173,10.1135,10.1173,10.0981,10.0366,9.9635,9.8788,9.8442,9.8404,9.8788,9.925,10.0441,10.163,10.1864,10.1889,10.1889,10.1889,10.1889,10.1812,10.185,10.185,10.1889,10.1889,10.1696,10.1618,10.1494,10.1502,10.1494,10.1555,10.1536,10.1736,10.1983,10.2151,10.2138,10.2225,10.2288,10.2288,10.2288,10.2288,10.2288,10.2288,10.2288,10.2264,10.224,10.219,10.2138,10.2057,10.1933,10.1873,10.192,10.1889,10.1889,10.1889,10.1889,10.1889,10.1951,10.2039,10.2085,10.2138,10.219,10.224,10.2327,10.2303,10.2342,10.2381,10.273,10.2575,9.95,9.9613,9.95,9.9287,9.8833,9.8192,9.7439,9.6684,9.6127,9.6324,9.7203,9.7776,9.8158,9.8464,9.9159,9.9458,9.9695,10.0199,10.0627,10.0497,10.0589,10.0748,10.0787,10.0831,10.1,10.1126,10.1247,10.1287,10.1443,10.19,10.2082,10.2112,10.1953,10.1565,10.0887,10.1088,10.1173,10.1212,10.1289,10.1289,10.1289,10.1289,10.1289,10.1289,10.1289,10.1289,10.1289,10.1289,10.1289,10.1289,10.1289,10.1212,10.1019,10.0289,9.9519,9.8942,9.8865,9.8904,9.9019,10.0668,10.1538,10.1858,10.1889,10.1889,10.1889,10.1889,10.1889,10.1889,10.1889,10.1889,10.1889,10.1889,10.1889,10.1928,10.1928,10.1928,10.1951,10.1981,10.2,10.2085,10.2165,10.2215,10.2264,10.2288,10.2288,10.2288,10.2288,10.2288,10.2288,10.2264,10.224,10.2099,10.2009,10.1968,10.1884,10.1834,10.1773,10.185,10.1889,10.1889,10.1889,10.1889,10.1889,10.192,10.1981,10.2068,10.2112,10.2165,10.2215,10.2327,10.2288,10.2327,10.2288,10.2288,10.2264,9.9326,9.9442,9.9267,9.9254,9.9303,9.8732,9.8046,9.7553,9.7387,9.7738,9.8464,9.8923,9.9343,9.9725,9.9916,10.0145,10.0222,10.0474,10.0742,10.0742,10.0869,10.0875,10.0957,10.1,10.1123,10.1167,10.1287,10.1711,10.2212,10.2473,10.2692,10.2802,10.2439,10.1583,10.1002,10.0957,10.1129,10.1211,10.1289,10.1289,10.1289,10.1289,10.1289,10.1289,10.1289,10.1289,10.1289,10.1289,10.1289,10.1289,10.1289,10.1289,10.1173,10.0558,10.0019,9.9673,9.9673,10.0019,10.0442,10.1439,10.1654,10.1826,10.1889,10.1889,10.1889,10.1889,10.1889,10.1889,10.1889,10.1889,10.1889,10.1889,10.1889,10.1889,10.1928,10.1928,10.192,10.192,10.1981,10.2,10.2085,10.219,10.2264,10.2264,10.2327,10.2303,10.2303,10.2264,10.2264,10.224,10.2215,10.1893,10.1763,10.1719,10.1662,10.1417,10.1502,10.1657,10.1773,10.1889,10.1889,10.1889,10.1889,10.1889,10.1981,10.2039,10.2085,10.2165,10.224,10.2327,10.2288,10.2288,10.2288,10.2288,10.2288,9.8929,9.9027,9.899,9.9111,9.9311,9.8887,9.8364,9.8049,9.8342,9.8884,9.9343,9.9649,10.0031,10.0451,10.0604,10.0604,10.0604,10.0787,10.0787,10.0831,10.1,10.1043,10.1085,10.1126,10.1167,10.1325,10.1673,10.2097,10.2597,10.2965,10.3372,10.3504,10.3105,10.2552,10.192,10.145,10.1052,10.1133,10.1171,10.1289,10.1289,10.1289,10.1289,10.1289,10.1289,10.1289,10.1289,10.1289,10.1289,10.1289,10.1289,10.1289,10.1096,10.0904,10.0366,10.0212,10.0173,10.0442,10.0827,10.1439,10.1616,10.178,10.185,10.1889,10.1889,10.1889,10.1889,10.1889,10.1889,10.1889,10.1889,10.1889,10.1889,10.1889,10.1889,10.1889,10.1889,10.1889,10.192,10.1971,10.2057,10.2165,10.2264,10.2303,10.2303,10.2279,10.2279,10.2279,10.224,10.2215,10.2048,10.1685,10.1282,10.1109,10.0974,10.0837,10.0999,10.1386,10.1657,10.1889,10.1889,10.1889,10.1889,10.1889,10.1951,10.201,10.2123,10.2165,10.2215,10.2264,10.2288,10.2288,10.2288,10.2288,10.2288,9.8432,9.8395,9.8552,9.8767,9.902,9.8799,9.8428,9.8125,9.9029,9.9458,9.9534,10.026,10.0527,10.0566,10.0604,10.0604,10.065,10.0831,10.0875,10.0919,10.1085,10.1126,10.1206,10.1247,10.1402,10.1673,10.2058,10.2558,10.2826,10.3925,10.4546,10.4435,10.4157,10.3612,10.2876,10.2101,10.1472,10.1436,10.1248,10.1288,10.1289,10.1289,10.1289,10.1289,10.1289,10.1289,10.1289,10.1289,10.1289,10.1289,10.1289,10.1289,10.1289,10.1289,10.0789,10.0404,10.0212,10.0366,10.0635,10.1323,10.1538,10.1742,10.178,10.1889,10.1889,10.1889,10.1889,10.1889,10.1889,10.1889,10.1889,10.1889,10.1889,10.1889,10.1889,10.1889,10.1889,10.192,10.192,10.201,10.2029,10.2138,10.224,10.2327,10.2303,10.2254,10.2242,10.2216,10.2177,10.2165,10.1918,10.1332,10.0887,10.0393,10.0256,10.0488,10.0806,10.1309,10.1657,10.1889,10.1889,10.1889,10.1889,10.1889,10.1889,10.1981,10.2068,10.2112,10.219,10.224,10.2264,10.2288,10.2288,10.2288,10.2288,9.8785,9.8432,9.846,9.8679,9.9133,9.9547,9.9682,9.9727,10.0137,10.026,10.0298,10.0489,10.0604,10.0604,10.0604,10.0604,10.0696,10.0831,10.0957,10.1043,10.1167,10.1248,10.1288,10.1365,10.1634,10.2135,10.2597,10.3289,10.4287,10.5306,10.5465,10.5352,10.4758,10.4338,10.3861,10.3167,10.2534,10.1971,10.1671,10.1365,10.1327,10.1289,10.1289,10.1289,10.1289,10.1289,10.1289,10.1289,10.1289,10.1289,10.1289,10.1289,10.1289,10.1289,10.1058,10.1019,10.0981,10.1019,10.1174,10.1365,10.1585,10.1639,10.1748,10.1819,10.1858,10.1889,10.1889,10.1889,10.1889,10.1889,10.1889,10.1889,10.1889,10.1889,10.1889,10.1889,10.1889,10.1889,10.192,10.201,10.2029,10.2138,10.2264,10.2288,10.2303,10.2203,10.2189,10.2173,10.2107,10.2096,10.1786,10.1197,10.0703,10.0179,10.0334,10.0496,10.0883,10.1231,10.1618,10.1889,10.1889,10.1889,10.1889,10.1889,10.192,10.1951,10.201,10.2096,10.2138,10.2215,10.224,10.2264,10.2288,10.2288,10.2288,9.906,9.871,9.8507,9.8717,9.9288,9.9919,10.0227,10.0365,10.051,10.0604,10.0604,10.0604,10.0604,10.0604,10.0604,10.0604,10.0604,10.0787,10.0919,10.1043,10.1208,10.1248,10.1326,10.1673,10.2135,10.2635,10.3288,10.4093,10.5051,10.5569,10.5839,10.5609,10.5025,10.4949,10.4702,10.427,10.3755,10.308,10.2438,10.1749,10.1443,10.1327,10.1289,10.1289,10.1289,10.1289,10.1289,10.1289,10.1289,10.1289,10.1289,10.1289,10.1289,10.1289,10.1289,10.125,10.125,10.125,10.1289,10.1404,10.1552,10.162,10.165,10.1716,10.1787,10.1858,10.1889,10.1889,10.1889,10.1889,10.1889,10.1889,10.1889,10.1889,10.1889,10.1889,10.1889,10.1889,10.1951,10.201,10.2096,10.2165,10.224,10.2264,10.224,10.2177,10.2107,10.2058,10.2058,10.2039,10.1623,10.1022,10.0566,10.0148,10.038,10.0574,10.0806,10.1154,10.158,10.1812,10.185,10.1889,10.1889,10.192,10.192,10.1981,10.201,10.2039,10.2085,10.2138,10.2177,10.2264,10.2288,10.2288,10.2327,9.9076,9.9097,9.8627,9.878,9.9442,9.9957,10.0177,10.0227,10.0462,10.0604,10.0604,10.0604,10.0604,10.0604,10.0604,10.0757,10.0803,10.0895,10.1067,10.1077,10.1165,10.1325,10.1749,10.2174,10.2712,10.3288,10.3898,10.4701,10.5076,10.5556,10.5878,10.5686,10.5647,10.5533,10.54,10.5158,10.4719,10.4188,10.3398,10.2635,10.175,10.1404,10.1289,10.1289,10.1289,10.1289,10.1289,10.1289,10.1289,10.1289,10.1289,10.1289,10.1289,10.1289,10.1289,10.1289,10.1289,10.1327,10.1327,10.1443,10.1481,10.1556,10.1627,10.1654,10.176,10.1858,10.1889,10.1889,10.1889,10.1889,10.1889,10.1889,10.1889,10.1889,10.1889,10.1889,10.1889,10.192,10.1981,10.2068,10.2112,10.2215,10.2264,10.2327,10.224,10.2151,10.2117,10.2036,10.1997,10.1951,10.1611,10.1038,10.055,10.0279,10.0427,10.062,10.0729,10.1038,10.1541,10.1773,10.1889,10.1889,10.1889,10.1889,10.192,10.1951,10.1981,10.201,10.2039,10.2112,10.2165,10.2201,10.2264,10.2264,10.2288,9.8709,9.829,9.8469,9.8867,9.9384,9.9742,10.001,10.0215,10.0365,10.0462,10.0604,10.0604,10.0604,10.0604,10.068,10.0948,10.1368,10.127,10.1322,10.1532,10.1584,10.182,10.2092,10.2672,10.3328,10.4249,10.4897,10.5229,10.5518,10.5809,10.5878,10.5878,10.5821,10.5821,10.5848,10.564,10.5486,10.4955,10.4474,10.3558,10.2558,10.1712,10.1289,10.1289,10.1289,10.1289,10.1289,10.1289,10.1289,10.1289,10.1289,10.1289,10.1289,10.1289,10.1289,10.1289,10.1327,10.1327,10.1443,10.1558,10.1597,10.1597,10.1673,10.1665,10.1693,10.1826,10.1928,10.1928,10.1966,10.1966,10.2005,10.2005,10.2044,10.2044,10.2044,10.2044,10.2005,10.2028,10.2117,10.2096,10.2138,10.2215,10.2264,10.2264,10.2215,10.2189,10.2126,10.2044,10.1896,10.1819,10.1787,10.1291,10.0684,10.0419,10.0601,10.0782,10.0968,10.127,10.1734,10.185,10.1889,10.1889,10.1889,10.1889,10.1889,10.192,10.192,10.192,10.1981,10.2057,10.2123,10.2177,10.2215,10.224,10.2264,9.889,9.8582,9.8637,9.8905,9.9208,9.9631,9.9904,10.0062,10.0304,10.0451,10.051,10.0557,10.0604,10.0718,10.0986,10.133,10.1903,10.195,10.2234,10.2401,10.2419,10.2662,10.2976,10.3403,10.4135,10.498,10.5354,10.564,10.5792,10.5878,10.5878,10.5886,10.5916,10.5924,10.5991,10.6068,10.5953,10.5465,10.5208,10.4559,10.3443,10.2597,10.1673,10.152,10.1327,10.1327,10.1289,10.1289,10.1289,10.1289,10.1289,10.1289,10.1289,10.1289,10.1289,10.1289,10.1366,10.1481,10.1712,10.1904,10.2058,10.2251,10.2558,10.2828,10.2971,10.3035,10.2515,10.2476,10.2585,10.2624,10.2817,10.2895,10.3166,10.332,10.3243,10.3166,10.2926,10.2746,10.2494,10.2123,10.2165,10.224,10.2288,10.2288,10.2215,10.2151,10.2126,10.2044,10.1896,10.1755,10.1688,10.1538,10.0968,10.0925,10.1219,10.1329,10.1362,10.1664,10.1889,10.1889,10.1889,10.1889,10.1889,10.1889,10.1889,10.1889,10.1889,10.1889,10.192,10.2039,10.2039,10.2107,10.2177,10.2215,10.2264,9.9034,9.909,9.8953,9.8842,9.8966,9.9462,9.9742,9.9796,10.0151,10.0353,10.0365,10.0471,10.0566,10.0871,10.1483,10.1826,10.217,10.26,10.3067,10.3343,10.3327,10.3459,10.3891,10.4516,10.4938,10.5281,10.5652,10.5695,10.5773,10.5821,10.5878,10.5932,10.5946,10.5953,10.5959,10.6074,10.6041,10.5742,10.548,10.5251,10.4443,10.352,10.2404,10.1712,10.1366,10.1327,10.1289,10.1289,10.1289,10.1289,10.1289,10.1289,10.1289,10.1289,10.1289,10.1327,10.1597,10.1904,10.2367,10.2674,10.3097,10.3558,10.3905,10.4022,10.4057,10.3816,10.33,10.3179,10.3288,10.3398,10.3591,10.3784,10.4133,10.4326,10.421,10.4133,10.377,10.3366,10.2843,10.2317,10.2281,10.2381,10.2288,10.2288,10.2254,10.2151,10.2078,10.1989,10.1896,10.176,10.1654,10.1585,10.1357,10.1466,10.1688,10.1644,10.1567,10.1742,10.1889,10.1889,10.1889,10.192,10.192,10.1889,10.1889,10.192,10.1889,10.1889,10.1951,10.1981,10.2058,10.2126,10.2162,10.2229,10.2264,9.8216,9.8315,9.8432,9.8653,9.8905,9.917,9.9405,9.9669,9.9834,9.9957,10.0165,10.0385,10.0489,10.0642,10.1521,10.2132,10.2734,10.324,10.3737,10.4091,10.3887,10.41,10.4457,10.5051,10.5311,10.5652,10.587,10.5848,10.5773,10.5773,10.583,10.5978,10.5991,10.5815,10.5323,10.5553,10.5938,10.5595,10.571,10.5674,10.4789,10.3828,10.2789,10.2135,10.1673,10.1443,10.1289,10.1289,10.1289,10.1289,10.1289,10.1289,10.1366,10.1404,10.1481,10.1712,10.1981,10.252,10.2982,10.3406,10.3905,10.4172,10.4366,10.4291,10.4368,10.4402,10.4087,10.4228,10.4261,10.4249,10.4403,10.4442,10.4674,10.4674,10.4603,10.4487,10.4319,10.3869,10.3414,10.2965,10.2656,10.2512,10.2288,10.2264,10.2215,10.2151,10.2126,10.2036,10.1896,10.176,10.1585,10.1588,10.1552,10.1588,10.1585,10.1654,10.165,10.1787,10.1889,10.1889,10.192,10.1981,10.1951,10.1951,10.1951,10.1951,10.1951,10.192,10.1889,10.1959,10.2036,10.2105,10.2173,10.2203,10.224]},{"header":{"parameterUnit":"m.s-1","parameterCategory":1,"la1":31.0,"la2":29.5877,"lo1":-88.7671,"lo2":-86.6584,"dy":0.0162,"dx":0.0185,"nx":115,"ny":88,"refTime":"2024-11-29T12:00:00:Z","depth":0,"parameterNumber":3,"parameterNumberName":"V-component_of_WINDS"},"data":[0.0,0.0,0.0,0.0,0.0,0.0,0.0,0.0,0.0,0.0,0.0,0.0,0.0,0.0,0.0,0.0,0.0,0.0,0.0,0.0,0.0,0.0,0.0,0.0,0.0,0.0,0.0,0.0,0.0,0.0,0.0,0.0,0.0,0.0,0.0,0.0,0.0,0.0,0.0,0.0,0.0,0.0,0.0,0.0,0.0,0.0,0.0,0.0,0.0,0.0,0.0,0.0,0.0,0.0,0.0,0.0,0.0,0.0,0.0,0.0,0.0,0.0,0.0,0.0,0.0,0.0,0.0,0.0,0.0,0.0,0.0,0.0,0.0,0.0,0.0,0.0,0.0,0.0,0.0,0.0,0.0,0.0,0.0,0.0,0.0,0.0,0.0,0.0,0.0,0.0,0.0,0.0,0.0,0.0,0.0,0.0,0.0,0.0,0.0,0.0,0.0,0.0,0.0,0.0,0.0,0.0,0.0,0.0,0.0,0.0,0.0,0.0,0.0,0.0,0.0,0.0,0.0,0.0,0.0,0.0,0.0,0.0,0.0,0.0,0.0,0.0,0.0,0.0,0.0,0.0,0.0,0.0,0.0,0.0,0.0,0.0,0.0,0.0,0.0,0.0,0.0,0.0,0.0,0.0,0.0,0.0,0.0,0.0,0.0,0.0,0.0,0.0,0.0,0.0,0.0,0.0,0.0,0.0,0.0,0.0,0.0,0.0,0.0,0.0,0.0,0.0,0.0,0.0,0.0,0.0,0.0,0.0,0.0,0.0,0.0,0.0,0.0,0.0,0.0,0.0,0.0,0.0,0.0,0.0,0.0,0.0,0.0,0.0,0.0,0.0,0.0,0.0,0.0,0.0,0.0,0.0,0.0,0.0,0.0,0.0,0.0,0.0,0.0,0.0,0.0,0.0,0.0,0.0,0.0,0.0,0.0,0.0,0.0,0.0,0.0,0.0,0.0,0.0,0.0,0.0,0.0,0.0,0.0,0.0,0.0,0.0,0.0,0.0,0.0,0.0,0.0,0.0,0.0,0.0,0.0,0.0,0.0,0.0,0.0,0.0,0.0,0.0,0.0,0.0,0.0,0.0,0.0,0.0,0.0,0.0,0.0,0.0,0.0,0.0,0.0,0.0,0.0,0.0,0.0,0.0,0.0,0.0,0.0,0.0,0.0,0.0,0.0,0.0,0.0,0.0,0.0,0.0,0.0,0.0,0.0,0.0,0.0,0.0,0.0,0.0,0.0,0.0,0.0,0.0,0.0,0.0,0.0,0.0,0.0,0.0,0.0,0.0,0.0,0.0,0.0,0.0,0.0,0.0,0.0,0.0,0.0,0.0,0.0,0.0,0.0,0.0,0.0,0.0,0.0,0.0,0.0,0.0,0.0,0.0,0.0,0.0,0.0,0.0,0.0,0.0,0.0,0.0,0.0,0.0,0.0,0.0,0.0,0.0,0.0,0.0,0.0,0.0,0.0,0.0,0.0,0.0,0.0,0.0,0.0,0.0,0.0,0.0,0.0,0.0,0.0,0.0,0.0,0.0,0.0,0.0,0.0,0.0,0.0,0.0,0.0,0.0,0.0,0.0,0.0,0.0,0.0,0.0,0.0,0.0,0.0,0.0,0.0,0.0,0.0,0.0,0.0,0.0,0.0,0.0,0.0,0.0,0.0,0.0,0.0,0.0,0.0,0.0,0.0,0.0,0.0,0.0,0.0,0.0,0.0,0.0,0.0,0.0,0.0,0.0,0.0,0.0,0.0,0.0,0.0,0.0,0.0,0.0,0.0,0.0,0.0,0.0,0.0,0.0,0.0,0.0,0.0,0.0,0.0,0.0,0.0,0.0,0.0,0.0,0.0,0.0,0.0,0.0,0.0,0.0,0.0,0.0,0.0,0.0,0.0,0.0,0.0,0.0,0.0,0.0,0.0,0.0,0.0,0.0,0.0,0.0,0.0,0.0,0.0,0.0,0.0,0.0,0.0,0.0,0.0,0.0,0.0,0.0,0.0,0.0,0.0,0.0,0.0,0.0,0.0,0.0,0.0,0.0,0.0,0.0,0.0,0.0,0.0,0.0,0.0,0.0,0.0,0.0,0.0,0.0,0.0,0.0,0.0,0.0,0.0,0.0,0.0,0.0,0.0,0.0,0.0,0.0,0.0,0.0,0.0,0.0,0.0,0.0,0.0,0.0,0.0,0.0,0.0,0.0,0.0,0.0,0.0,0.0,0.0,0.0,0.0,0.0,0.0,0.0,0.0,0.0,0.0,0.0,0.0,0.0,0.0,0.0,0.0,0.0,0.0,0.0,0.0,0.0,0.0,0.0,0.0,0.0,0.0,0.0,0.0,0.0,0.0,0.0,0.0,0.0,0.0,0.0,0.0,0.0,0.0,0.0,0.0,0.0,0.0,0.0,0.0,0.0,0.0,0.0,0.0,0.0,0.0,0.0,0.0,0.0,0.0,0.0,0.0,0.0,0.0,0.0,0.0,0.0,0.0,0.0,0.0,0.0,0.0,0.0,0.0,0.0,0.0,0.0,0.0,0.0,0.0,0.0,0.0,0.0,0.0,0.0,0.0,0.0,0.0,0.0,0.0,0.0,0.0,0.0,0.0,0.0,0.0,0.0,0.0,0.0,0.0,0.0,0.0,0.0,0.0,0.0,0.0,0.0,0.0,0.0,0.0,0.0,0.0,0.0,0.0,0.0,0.0,0.0,0.0,0.0,0.0,0.0,0.0,0.0,0.0,0.0,0.0,0.0,0.0,0.0,0.0,0.0,0.0,0.0,0.0,0.0,0.0,0.0,0.0,0.0,0.0,0.0,0.0,0.0,0.0,0.0,0.0,0.0,0.0,0.0,0.0,0.0,0.0,0.0,0.0,0.0,0.0,0.0,0.0,0.0,0.0,0.0,0.0,0.0,0.0,0.0,0.0,0.0,0.0,0.0,0.0,0.0,0.0,0.0,0.0,0.0,0.0,0.0,0.0,0.0,0.0,0.0,0.0,0.0,0.0,0.0,0.0,0.0,0.0,0.0,0.0,0.0,0.0,0.0,0.0,0.0,0.0,0.0,0.0,0.0,0.0,0.0,0.0,0.0,0.0,0.0,0.0,0.0,0.0,0.0,0.0,0.0,0.0,0.0,0.0,0.0,0.0,0.0,0.0,0.0,0.0,0.0,0.0,0.0,0.0,0.0,0.0,0.0,0.0,0.0,0.0,0.0,0.0,0.0,0.0,0.0,0.0,0.0,0.0,0.0,0.0,0.0,0.0,0.0,0.0,0.0,0.0,0.0,0.0,0.0,0.0,0.0,0.0,0.0,0.0,0.0,0.0,0.0,0.0,0.0,0.0,0.0,0.0,0.0,0.0,0.0,0.0,0.0,0.0,0.0,0.0,0.0,0.0,0.0,0.0,0.0,0.0,0.0,0.0,0.0,0.0,0.0,0.0,0.0,0.0,0.0,0.0,0.0,0.0,0.0,0.0,0.0,0.0,0.0,0.0,0.0,0.0,0.0,0.0,0.0,0.0,0.0,0.0,0.0,0.0,0.0,0.0,0.0,0.0,0.0,0.0,0.0,0.0,0.0,0.0,0.0,0.0,0.0,0.0,0.0,0.0,0.0,0.0,0.0,0.0,0.0,0.0,0.0,0.0,0.0,0.0,0.0,0.0,0.0,0.0,0.0,0.0,0.0,0.0,0.0,0.0,0.0,0.0,0.0,0.0,0.0,0.0,0.0,0.0,0.0,0.0,0.0,0.0,0.0,0.0,0.0,0.0,0.0,0.0,0.0,0.0,0.0,0.0,0.0,0.0,0.0,0.0,0.0,0.0,0.0,0.0,0.0,0.0,0.0,0.0,0.0,0.0,0.0,0.0,0.0,0.0,0.0,0.0,0.0,0.0,0.0,0.0,0.0,0.0,0.0,0.0,0.0,0.0,0.0,0.0,0.0,0.0,0.0,0.0,0.0,0.0,0.0,0.0,0.0,0.0,0.0,0.0,0.0,0.0,0.0,0.0,0.0,0.0,0.0,0.0,0.0,0.0,0.0,0.0,0.0,0.0,0.0,0.0,0.0,0.0,0.0,0.0,0.0,0.0,0.0,0.0,0.0,0.0,0.0,0.0,0.0,0.0,0.0,0.0,0.0,0.0,0.0,0.0,0.0,0.0,0.0,0.0,0.0,0.0,0.0,0.0,0.0,0.0,0.0,0.0,0.0,0.0,0.0,0.0,0.0,0.0,0.0,0.0,0.0,0.0,0.0,0.0,0.0,0.0,0.0,0.0,0.0,0.1078,0.0,0.0,0.0,0.0,0.0,0.0,0.0,0.0,0.0,0.0,0.0,0.0,0.0,0.0,0.0,0.0,0.0,0.0,0.0,0.0,0.0,0.0,0.0,0.0,0.0,0.0,0.0,0.0,0.0,0.0,0.0,0.0,0.0,0.0,0.0,0.0,0.0,0.0,0.0,0.0,0.0,0.0,0.0,0.0,0.0,0.0,0.0,0.0,0.0,0.0,0.0,0.0,0.0,0.0,0.0,0.0,0.0,0.0,0.0,0.0,0.0,0.0,0.0,0.0,0.0,0.0,0.0,0.0,0.0,0.0,0.0,0.0,0.0,0.0,0.0,0.0,0.0,0.0,0.0,0.0,0.0,0.0,0.0,0.0,0.0,0.0,0.0,0.0,0.0,0.0,0.0,0.0,0.0,0.0,0.0,0.0,0.0,0.0,0.0,0.0,0.0,0.0,0.0,0.0,0.0,0.0,0.0,0.0,0.0,0.0,0.2238,0.2225,0.2208,0.2056,0.1635,0.0,0.0,0.0,0.0,0.0,0.0,0.0,0.0,0.0,0.0,0.0,0.0,0.0,0.0,0.0,0.0,0.0,0.0,0.0,0.0,0.0,0.0,0.0,0.0,0.0,0.0,0.0,0.0,0.0,0.0,0.0,0.0,0.0,0.0,0.0,0.0,0.0,0.0,0.0,0.0,0.0,0.0,0.0,0.0,0.0,0.0,0.0,0.0,0.0,0.0,0.0,0.0,0.0,0.0,0.0,0.0,0.0,0.0,0.0,0.0,0.0,0.0,0.0,0.0,0.0,0.0,0.0,0.0,0.0,0.0,0.0,0.0,0.0,0.0,0.0,0.0,0.0,0.0,0.0,0.0,0.0,0.0,0.0,0.0,0.0,0.0,0.0,0.0,0.0,0.0,0.0,0.0,0.0,0.0,0.0,0.0,0.0,0.0,0.0,0.0,0.0,0.0,0.0,0.0,0.0,0.0,0.0,0.0,0.0,0.0,0.0,0.0,0.2233,0.2076,0.1925,0.0,0.0,0.0,0.0,0.0,0.0,0.0,0.0,0.0,0.0,0.0,0.0,0.0,0.0,0.0,0.0,0.0,0.0,0.0,0.0,0.0,0.0,0.0,0.0,0.0,0.0,0.0,0.0,0.0,0.0,0.0,0.0,0.0,0.0,0.0,0.0,0.0,0.0,0.0,0.0,0.0,0.0,0.0,0.0,0.0,0.0,0.0,0.0,0.0,0.0,0.0,0.0,0.0,0.0,0.0,0.0,0.0,0.0,0.0,0.0,0.0,0.0,0.0,0.0,0.0,0.0,0.0,0.0,0.0,0.0,0.0,0.0,0.0,0.0,0.0,0.0,0.0,0.0,0.0,0.0,0.0,0.0,0.0,0.0,0.0,0.0,0.0,0.0,0.0,0.0,0.0,0.0,0.0,0.0,0.0,0.0,0.0,0.0,0.0,0.0,0.0,0.0,0.0,0.0,0.0,0.0,0.0,0.0,0.0,0.0,0.2313,0.2288,0.2283,0.0,0.1239,0.0,0.0,0.0,0.0,0.0,0.0,0.0,0.0,0.0,0.0,0.0,0.0,0.0,0.0,0.0,0.0,0.0,0.0,0.0,0.0,0.0,0.0,0.0,0.0,0.0,0.0,0.0,0.0,0.0,0.0,0.0,0.0,0.0,0.0,0.0,0.0,0.0,0.0,0.0,0.0,0.0,0.0,0.0,0.0,0.0,0.0,0.0,0.0,0.0,0.0,0.0,0.0,0.0,0.0,0.0,0.0,0.0,0.0,0.0,0.0,0.0,0.0,0.0,0.0,0.0,0.0,0.0,0.0,0.0,0.0,0.0,0.0,0.0,0.0,0.0,0.0,0.0,0.0,0.0,0.0,0.0,0.0,0.0,0.0,0.0,0.0,0.0,0.0,0.0,0.0,0.0,0.0,0.0,0.0,0.0,0.0,0.0,0.0,0.0,0.0,0.0,0.0,0.0,0.0,0.0,0.0,0.0,0.0,0.0,0.0,0.0,0.2316,0.2282,0.2104,0.0,0.0,0.0,0.0,0.0,0.0,0.0,0.0,0.0,0.0,0.0,0.0,0.0,0.0,0.0,0.0,0.0,0.0,0.0,0.0,0.0,0.0,0.0,0.0,0.0,0.0,0.0,0.0,0.0,0.0,0.0,0.0,0.0,0.0,0.0,0.0,0.0,0.0,0.0,0.0,0.0,0.0,0.0,0.0,0.0,0.0,0.0,0.0,0.0,0.0,0.0,0.0,0.0,0.0,0.0,0.0,0.0,0.0,0.0,0.0,0.0,0.0,0.0,0.0,0.0,0.0,0.0,0.0,0.0,0.0,0.0,0.0,0.0,0.0,0.0,0.0,0.0,0.0,0.0,0.0,0.0,0.0,0.0,0.0,0.0,0.0,0.0,0.0,0.0,0.0,0.0,0.0,0.0,0.0,0.0,0.0,0.0,0.0,0.0,0.0,0.0,0.0,0.0,0.0,0.0,0.0,0.0,0.0,0.0,0.0,0.2303,0.0,0.233,0.2277,0.2236,0.2213,0.0,0.0,0.0,0.0,0.0,0.0,0.0,0.0,0.0,0.0,0.0,0.0,0.0,0.0,0.0,0.0,0.0,0.0,0.0,0.0,0.0,0.0,0.0,0.0,0.0,0.0,0.0,0.0,0.0,0.0,0.0,0.0,0.0,0.0,0.0,0.0,0.0,0.0,0.0,0.0,0.0,0.0,0.0,0.0,0.0,0.0,0.0,0.0,0.0,0.0,0.0,0.0,0.0,0.0,0.0,0.0,0.0,0.0,0.0,0.0,0.0,0.0,0.0,0.0,0.0,0.0,0.0,0.0,0.0,0.0,0.0,0.0,0.0,0.0,0.0,0.0,0.0,0.0,0.0,0.0,0.0,0.0,0.0,0.0,0.0,0.0,0.0,0.0,0.0,0.0,0.0,0.0,0.0,0.0,0.0,0.0,0.0,0.0,0.0,0.0,0.0,0.0,0.0,0.0,0.0,0.0,0.0,0.0,0.0,0.2303,0.2333,0.2333,0.2277,0.2245,0.0,0.0,0.0,0.0,0.0,0.0,0.0,0.0,0.0,0.0,0.0,0.0,0.0,0.0,0.0,0.0,0.0,0.0,0.0,0.0,0.0,0.0,0.0,0.0,0.0,0.0,0.0,0.0,0.0,0.0,0.0,0.0,0.0,0.0,0.0,0.0,0.0,0.0,0.0,0.0,0.0,0.0,0.0,0.0,0.0,0.0,0.0,0.0,0.0,0.0,0.0,0.0,0.0,0.0,0.0,0.0,0.0,0.0,0.0,0.0,0.0,0.0,0.0,0.0,0.0,0.0,0.0,0.0,0.0,0.0,0.0,0.0,0.0,0.0,0.0,0.0,0.0,0.0,0.0,0.0,0.0,0.0,0.0,0.0,0.0,0.0,0.0,0.0,0.0,0.0,0.0,0.0,0.0,0.0,0.0,0.0,0.0,0.0,0.0,0.0,0.0,0.0,0.0,0.0,0.0,0.0,0.0,0.0,0.0,0.2248,0.2303,0.2333,0.2331,0.2275,0.2245,0.0,0.0,0.0,0.0,0.0,0.0,0.0,0.0,0.0,0.0,0.0,0.0,0.0,0.0,0.0,0.0,0.0,0.0,0.0,0.0,0.0,0.0,0.0,0.0,0.0,0.0,0.0,0.0,0.0,0.0,0.0,0.0,0.0,0.0,0.0,0.0,0.0,0.0,0.0,0.0,0.0,0.0,0.0,0.0,0.0,0.0,0.0,0.0,0.0,0.0,0.0,0.0,0.0,0.0,0.0,0.0,0.0,0.0,0.0,0.0,0.0,0.0,0.0,0.0,0.0,0.0,0.0,0.0,0.0,0.0,0.0,0.0,0.0,0.0,0.0,0.0,0.0,0.0,0.0,0.0,0.0,0.0,0.0,0.0,0.0,0.0,0.0,0.0,0.0,0.0,0.0,0.0,0.0,0.0,0.0,0.0,0.0,0.0,0.0,0.0,0.0,0.0,0.0,0.0,0.0,0.0,0.0,0.0,0.0,0.2274,0.0,0.2333,0.0,0.2275,0.2245,0.0,0.0,0.0,0.0,0.0,0.0,0.0,0.0,0.0,0.0,0.0,0.0,0.0,0.0,0.0,0.0,0.0,0.0,0.0,0.0,0.0,0.0,0.0,0.0,0.0,0.0,0.0,0.0,0.0,0.0,0.0,0.0,0.0,0.0,0.0,0.0,0.0,0.0,0.0,0.0,0.0,0.0,0.0,0.0,0.0,0.0,0.0,0.0,0.0,0.0,0.0,0.0,0.0,0.0,0.0,0.0,0.0,0.0,0.0,0.0,0.0,0.0,0.0,0.0,0.0,0.0,0.0,0.0,0.0,0.0,0.0,0.0,0.0,0.0,0.0,0.0,0.0,0.0,0.0,0.0,0.0,0.0,0.0,0.0,0.0,0.0,0.0,0.0,0.0,0.0,0.0,0.0,0.0,0.0,0.0,0.0,0.0,0.0,0.0,0.0,0.0,0.0,0.0,0.0,0.0,0.0,0.0,0.0,0.0,0.233,0.2334,0.2337,0.2333,0.2278,0.2247,0.0,0.0,0.0,0.0,0.0,0.0,0.0,0.0,0.0,0.0,0.0,0.0,0.0,0.0,0.0,0.0,0.0,0.0,0.0,0.0,0.0,0.0,0.0,0.0,0.0,0.0,0.0,0.0,0.0,0.0,0.0,0.0,0.0,0.0,0.0,0.0,0.0,0.0,0.0,0.0,0.0,0.0,0.0,0.0,0.0,0.0,0.0,0.0,0.0,0.0,0.0,0.0,0.0,0.0,0.0,0.0,0.0,0.0,0.0,0.0,0.0,0.0,0.0,0.0,0.0,0.0,0.0,0.0,0.0,0.0,0.0,0.0,0.0,0.0,0.0,0.0,0.0,0.0,0.0,0.0,0.0,0.0,0.0,0.0,0.0,0.0,0.0,0.0,0.0,0.0,0.0,0.0,0.0,0.0,0.0,0.0,0.0,0.0,0.0,0.0,0.0,0.0,0.0,0.0,0.0,0.0,0.0,0.0,0.0,0.2363,0.2384,0.2386,0.2364,0.2326,0.2288,0.0,0.0,0.0,0.0,0.0,0.0,0.0,0.0,0.0,0.0,0.0,0.0,0.0,0.0,0.0,0.0,0.0,0.0,0.0,0.0,0.0,0.0,0.0,0.0,0.0,0.0,0.0,0.0,0.0,0.0,0.0,0.0,0.0,0.0,0.0,0.0,0.0,0.0,0.0,0.0,0.0,0.0,0.0,0.0,0.0,0.0,0.0,0.0,0.0,0.0,0.0,0.0,0.0,0.0,0.0,0.0,0.0,0.0,0.0,0.0,0.0,0.0,0.0,0.0,0.0,0.0,0.0,0.0,0.0,0.0,0.0,0.0,0.0,0.0,0.0,0.0,0.0,0.0,0.0,0.0,0.0,0.0,0.0,0.0,0.0,0.0,0.0,0.0,0.0,0.0,0.0,0.0,0.0,0.0,0.0,0.0,0.0,0.0,0.0,0.0,0.0,0.0,0.0,0.0,0.0,0.0,0.0,0.0,0.0,0.2748,0.2594,0.2431,0.2413,0.2372,0.2322,0.2264,0.0,0.0,0.0,0.0,0.0,0.0,0.0,0.0,0.0,0.0,0.0,0.0,0.0,0.0,0.0,0.0,0.0,0.0,0.0,0.0,0.0,0.0,0.0,0.0,0.0,0.0,0.0,0.0,0.0,0.0,0.0,0.0,0.0,0.0,0.0,0.0,0.0,0.0,0.0,0.0,0.0,0.0,0.0,0.0,0.0,0.0,0.0,0.0,0.0,0.0,0.0,0.0,0.0,0.0,0.0,0.0,0.0,0.0,0.0,0.0,0.0,0.0,0.0,0.0,0.0,0.0,0.0,0.0,0.0,0.0,0.0,0.0,0.0,0.0,0.0,0.0,0.0,0.0,0.0,0.0,0.0,0.0,0.0,0.0,0.0,0.0,0.0,0.0,0.0,0.0,0.0,0.0,0.0,0.0,0.0,0.0,0.0,0.0,0.0,0.0,0.0,0.0,0.0,0.0,0.0,0.0,0.0,0.0,0.3365,0.2825,0.2638,0.2629,0.2417,0.2356,0.0,0.0,0.0,0.0,0.0,0.0,0.0,0.0,0.0,0.0,0.0,0.0,0.0,0.0,0.0,0.0,0.0,0.0,0.0,0.0,0.0,0.0,0.0,0.0,0.0,0.0,0.0,0.0,0.0,0.0,0.0,0.0,0.0,0.0,0.0,0.0,0.0,0.0,0.0,0.0,0.0,0.0,0.0,0.0,0.0,0.0,0.0,0.0,0.0,0.0,0.0,0.0,0.0,0.0,0.0,0.0,0.0,0.0,0.0,0.0,0.0,0.0,0.0,0.0,0.0,0.0,0.0,0.0,0.0,0.0,0.0,0.0,0.0,0.0,0.0,0.0,0.0,0.0,0.0,0.0,0.0,0.0,0.0,0.0,0.0,0.0,0.0,0.0,0.0,0.0,0.0,0.0,0.0,0.0,0.0,0.0,0.0,0.0,0.0,0.0,0.0,0.0,0.0,0.0,0.0,0.0,0.0,0.0,0.0,0.3481,0.3331,0.3118,0.3012,0.2654,0.2429,0.0,0.0,0.0,0.0,0.0,0.0,0.0,0.0,0.0,0.0,0.0,0.0,0.0,0.0,0.0,0.0,0.0,0.0,0.0,0.0,0.0,0.0,0.0,0.0,0.0,0.0,0.0,0.0,0.0,0.0,0.0,0.0,0.0,0.0,0.0,0.0,0.0,0.0,0.0,0.0,0.0,0.0,0.0,0.0,0.0,0.0,0.0,0.0,0.0,0.0,0.0,0.0,0.0,0.0,0.0,0.0,0.0,0.0,0.0,0.0,0.0,0.0,0.0,0.0,0.0,0.0,0.0,0.0,0.0,0.0,0.0,0.0,0.0,0.0,0.0,0.0,0.0,0.0,0.0,0.0,0.0,0.0,0.0,0.0,0.0,0.0,0.0,0.0,0.0,0.0,0.0,0.0,0.0,0.0,0.0,0.0,0.0,0.0,0.0,0.0,0.0,0.0,0.0,0.0,0.0,0.0,0.0,0.0,0.3933,0.3922,0.3829,0.3806,0.3675,0.2918,0.2495,0.0,0.0,0.0,0.0,0.0,0.0,0.0,0.0,0.0,0.0,0.0,0.0,0.0,0.0,0.0,0.0,0.0,0.0,0.0,0.0,0.0,0.0,0.0,0.0,0.0,0.0,0.0,0.0,0.0,0.0,0.0,0.0,0.0,0.0,0.0,0.0,0.0,0.0,0.0,0.0,0.0,0.0,0.0,0.0,0.0,0.0,0.0,0.0,0.0,0.0,0.0,0.0,0.0,0.0,0.0,0.0,0.0,0.0,0.0,0.0,0.0,0.0,0.0,0.0,0.0,0.0,0.0,0.0,0.0,0.0,0.0,0.0,0.0,0.0,0.0,0.0,0.0,0.0,0.0,0.0,0.0,0.0,0.0,0.0,0.0,0.0,0.0,0.0,0.0,0.0,0.0,0.0,0.0,0.0,0.0,0.0,0.0,0.0,0.0,0.0,0.0,0.0,0.0,0.0,0.0,0.0,0.0,0.0,0.4556,0.4365,0.4318,0.4342,0.4252,0.3197,0.2557,0.0,0.0,0.0,0.0,0.0,0.0,0.0,0.0,0.0,0.0,0.0,0.0,0.0,0.0,0.0,0.0,0.0,0.0,0.0,0.0,0.0,0.0,0.0,0.0,0.0,0.0,0.0,0.0,0.0,0.0,0.0,0.0,0.0,0.0,0.0,0.0,0.0,0.0,0.0,0.0,0.0,0.0,0.0,0.0,0.0,0.0,0.0,0.0,0.0,0.0,0.0,0.0,0.0,0.0,0.0,0.0,0.0,0.0,0.0,0.0,0.0,0.0,0.0,0.0,0.0,0.0,0.0,0.0,0.0,0.0,0.0,0.0,0.0,0.0,0.0,0.0,0.0,0.0,0.0,0.0,0.0,0.0,0.0,0.0,0.0,0.0,0.0,0.0,0.0,0.0,0.0,0.0,0.0,0.0,0.0,0.0,0.0,0.0,0.0,0.0,0.0,0.0,0.0,0.0,0.0,0.0,0.0,0.0,0.4295,0.4328,0.4395,0.4404,0.4348,0.3268,0.2617,0.0,0.0,0.0,0.0,0.0,0.0,0.0,0.0,0.0,0.0,0.0,0.0,0.0,0.0,0.0,0.0,0.0,0.0,0.0,0.0,0.0,0.0,0.0,0.0,0.0,0.0,0.0,0.0,0.0,0.0,0.0,0.0,0.0,0.0,0.0,0.0,0.0,0.0,0.0,0.0,0.0,0.0,0.0,0.0,0.0,0.0,0.0,0.0,0.0,0.0,0.0,0.0,0.0,0.0,0.0,0.0,0.0,0.0,0.0,0.0,0.0,0.0,0.0,0.0,0.0,0.0,0.0,0.0,0.0,0.0,0.0,0.0,0.0,0.0,0.0,0.0,0.0,0.0,0.0,0.0,0.0,0.0,0.0,0.0,0.0,0.0,0.0,0.0,0.0,0.0,0.0,0.0,0.0,0.0,0.0,0.0,0.0,0.0,0.0,0.0,0.0,0.0,0.0,0.0,0.0,0.0,0.0,0.0,0.4211,0.4007,0.4275,0.4289,0.4037,0.3333,0.2839,0.0,0.0,0.0,0.0,0.0,0.0,0.0,0.0,0.0,0.0,0.0,0.0,0.0,0.0,0.0,0.0,0.0,0.0,0.0,0.0,0.0,0.0,0.0,0.0,0.0,0.0,0.0,0.0,0.0,0.0,0.0,0.0,0.0,0.0,0.0,0.0,0.0,0.0,0.0,0.0,0.0,0.0,0.0,0.0,0.0,0.0,0.0,0.0,0.0,0.0,0.0,0.0,0.0,0.0,0.0,0.0,0.0,0.0,0.0,0.0,0.0,0.0,0.0,0.0,0.0,0.0,0.0,0.0,0.0,0.0,0.0,0.0,0.0,0.0,0.0,0.0,0.0,0.0,0.0,0.0,0.0,0.0,0.0,0.0,0.0,0.0,0.0,0.0,0.0,0.0,0.0,0.0,0.0,0.0,0.0,0.0,0.0,0.0,0.0,0.0,0.0,0.0,0.0,0.0,0.0,0.0,0.0,0.3788,0.4114,0.367,0.4328,0.4348,0.3711,0.321,0.289,0.0,0.0,0.0,0.0,0.0,0.0,0.0,0.0,0.0,0.0,0.0,0.0,0.0,0.0,0.0,0.0,0.0,0.0,0.0,0.0,0.0,0.0,0.0,0.0,0.0,0.0,0.0,0.0,0.0,0.0,0.0,0.0,0.0,0.0,0.0,0.0,0.0,0.0,0.0,-0.2255,-0.0865,0.0,0.0,0.0,0.0,0.0,0.0,0.0,0.0,0.0,0.0,0.0,0.0,0.0,0.0,0.0,0.0,0.0,0.0,0.0,0.0,0.0,0.0,0.0,0.0,0.0,0.0,0.0,0.0,0.0,0.0,0.0,0.0,0.0,0.0,0.0,0.0,0.0,0.0,0.0,0.0,0.0,0.0,0.0,0.0,0.0,0.0,0.0,0.0,0.0,0.0,0.0,0.0,0.0,0.0,0.0,0.0,0.0,0.0,0.0,0.0,0.0,0.0,0.0,0.0,0.0,0.2843,0.3818,0.4158,0.3783,0.4373,0.4361,0.3749,0.3244,0.2921,0.2761,0.0,0.0,0.0,0.0,0.0,0.0,0.0,0.0,0.0,0.0,0.0,0.0,0.0,0.0,0.0,0.0,0.0,0.0,0.0,0.0,0.0,0.0,0.0,0.0,0.0,0.0,0.0,0.0,0.0,0.0,0.0,0.0,0.0,0.0,0.0,0.0,0.0,0.0,0.0,-0.0882,0.0,0.0,0.0,0.0,0.0,0.0,0.0,0.0,0.0,0.0,0.0,0.0,0.0,0.0,0.0,0.0,0.0,0.0,0.0,0.0,0.0,0.0,0.0,0.0,0.0,0.0,0.0,0.0,0.0,0.0,0.0,0.0,0.0,0.0,0.0,0.0,0.0,0.0,0.0,0.0,0.0,0.0,0.0,0.0,0.0,0.0,0.0,0.0,0.0,0.0,0.0,0.0,0.0,0.0,0.0,0.0,0.0,0.0,0.0,0.0,0.0,0.0,0.0,0.0,0.0,0.2882,0.3878,0.4031,0.3429,0.4217,0.4198,0.3382,0.3056,0.2913,0.0,0.0,0.0,0.0,0.0,0.0,0.0,0.0,0.0,0.0,0.0,0.0,0.0,0.0,0.0,0.0,0.0,0.0,0.0,0.0,0.0,0.0,0.0,0.0,0.0,0.0,0.0,0.0,0.0,0.0,0.0,0.0,0.0,0.0,0.0,0.0,0.0,0.0,0.0,0.0,-0.0889,0.0,0.0,0.0,0.0,0.0,0.0,0.0,0.0,0.0,0.0,0.0,0.0,0.0,0.0,0.0,0.0,0.0,0.0,0.0,0.0,0.0,0.0,0.0,0.0,0.0,0.0,0.0,0.0,0.0,0.0,0.0,0.0,0.0,0.0,0.0,0.0,0.0,0.0,0.0,0.0,0.0,0.0,0.0,0.0,0.0,0.0,0.0,0.0,0.0,0.0,0.0,0.0,0.0,0.0,0.0,0.0,0.0,0.0,0.0,0.0,0.0,0.0,0.0,0.0,0.0,0.2916,0.3932,0.408,0.3256,0.4245,0.4222,0.3204,0.305,0.2903,0.0,0.0,0.0,0.0,0.0,0.0,0.0,0.0,0.0,0.0,0.0,0.0,0.0,0.0,0.0,0.0,0.0,0.0,0.0,0.0,0.0,0.0,0.0,0.0,0.0,0.0,0.0,0.0,0.0,0.0,0.0,0.0,0.0,0.0,0.0,0.0,0.0,0.0,0.0,0.0,0.0,0.0,0.0,0.0,0.0,0.0,0.0,0.0,0.0,0.0,0.0,0.0,0.0,0.0,0.0,0.0,0.0,0.0,0.0,0.0,0.0,0.0,0.0,0.0,0.0,0.0,0.0,0.0,0.0,0.0,0.0,0.0,0.0,0.0,0.0,0.0,0.0,0.0,0.0,0.0,0.0,0.0,0.0,0.0,0.0,0.0,0.0,0.0,0.0,0.0,0.0,0.0,0.0,0.0,0.0,0.0,0.0,0.0,0.0,0.0,0.0,0.0,0.0,0.0,0.0,0.0,0.2946,0.3945,0.4293,0.39,0.4467,0.4428,0.3808,0.3084,0.2754,0.0,0.0,0.0,0.0,0.0,0.0,0.0,0.0,0.0,0.0,0.0,0.0,0.0,0.0,0.0,0.0,0.0,0.0,0.0,0.0,0.0,0.0,0.0,0.0,0.0,0.0,0.0,0.0,0.0,0.0,0.0,0.0,0.0,0.0,0.0,0.0,0.0,0.0,0.0,0.0,0.0,0.0,0.0,0.0,0.0,0.0,0.0,0.0,0.0,0.0,0.0,0.0,0.0,0.0,0.0,0.0,0.0,0.0,0.0,0.0,0.0,0.0,0.0,0.0,0.0,0.0,0.0,0.0,0.0,0.0,0.0,0.0,0.0,0.0,0.0,0.0,0.0,0.0,0.0,0.0,0.0,0.0,0.0,0.0,0.0,0.0,0.0,0.0,0.0,0.0,0.0,0.0,0.0,0.0,0.0,0.0,0.0,0.0,0.0,0.0,0.0,0.0,0.0,0.0,0.0,0.2782,0.2781,0.3994,0.4346,0.3917,0.4497,0.4455,0.3817,0.3251,0.274,0.0,0.0,0.0,0.0,0.0,0.0,0.0,0.0,0.0,0.0,0.0,0.0,0.0,0.0,0.0,0.0,0.0,0.0,0.0,0.0,0.0,0.0,0.0,0.0,0.0,0.0,0.0,0.0,0.0,0.0,0.0,0.0,0.0,0.0,0.0,0.0,0.0,0.0,0.0,0.0,0.0,0.0,0.0,0.0,0.0,0.0,0.0,0.0,0.0,0.0,0.0,0.0,0.0,0.0,0.0,0.0,0.0,0.0,0.0,0.0,0.0,0.0,0.0,0.0,0.0,0.0,0.0,0.0,0.0,0.0,0.0,0.0,0.0,0.0,0.0,0.0,0.0,0.0,0.0,0.0,0.0,0.0,0.0,0.0,0.0,0.0,0.0,0.0,0.0,0.0,0.0,0.0,0.0,0.0,0.0,0.0,0.0,0.0,0.0,0.0,0.0,0.0,0.0,0.0,0.0,0.0,0.313,0.4028,0.4383,0.4312,0.471,0.4475,0.4006,0.3237,0.0,0.0,0.0,0.0,0.0,0.0,0.0,0.0,0.0,0.0,0.0,0.0,0.0,0.0,0.0,0.0,0.0,0.0,0.0,0.0,0.0,0.0,0.0,0.0,0.0,0.0,0.0,0.0,0.0,0.0,0.0,0.0,0.0,0.0,0.0,0.0,0.0,0.0,0.0,0.0,0.0,0.0,0.0,0.0,0.0,0.0,0.0,0.0,0.0,0.0,0.0,0.0,0.0,0.0,0.0,0.0,0.0,0.0,0.0,0.0,0.0,0.0,0.0,0.0,0.0,0.0,0.0,0.0,0.0,0.0,0.0,0.0,0.0,0.0,0.0,0.0,0.0,0.0,0.0,0.0,0.0,0.0,0.0,0.0,0.0,0.0,0.0,0.0,0.0,0.0,0.0,0.0,0.0,0.0,0.0,0.0,0.0,0.0,0.0,0.0,0.0,0.0,0.0,0.0,0.0,0.0,0.0,0.3997,0.4208,0.4573,0.5289,0.4906,0.4669,0.4575,0.3417,0.2727,0.0,0.0,0.0,0.0,0.0,0.0,0.0,0.0,0.0,0.0,0.0,0.0,0.0,0.0,0.0,0.0,0.0,0.0,0.0,0.0,0.0,0.0,0.0,0.0,0.0,0.0,0.0,0.0,0.0,0.0,0.0,0.0,0.0,0.0,0.0,0.0,0.0,0.0,0.0,0.0,0.0,0.0,0.0,0.0,0.0,0.0,0.0,0.0,0.0,0.0,0.0,0.0,0.0,0.0,0.0,0.0,0.0,0.0,0.0,0.0,0.0,0.0,0.0,0.0,0.0,0.0,0.0,0.0,0.0,0.0,0.0,0.0,0.0,0.0,0.0,0.0,0.0,0.0,0.0,0.0,0.0,0.0,0.0,0.0,0.0,0.0,0.0,0.0,0.0,0.0,0.0,0.0,0.0,0.0,0.0,0.0,0.0,0.0,0.0,0.0,0.0,0.0,0.0,0.0,0.0,0.4305,0.4171,0.4606,0.5176,0.5487,0.5102,0.4667,0.4768,0.3438,0.2746,0.0,0.0,0.0,0.0,0.0,0.0,0.0,0.0,0.0,0.0,0.0,0.0,0.0,0.0,0.0,0.0,0.0,0.0,0.0,0.0,0.0,0.0,0.0,0.0,0.0,0.0,0.0,0.0,0.0,0.0,0.0,0.0,0.0,0.0,0.0,0.0,0.0,0.0,0.0,0.0,0.0,0.0,0.0,0.0,0.0,0.0,0.0,0.0,0.0,0.0,0.0,0.0,0.0,0.0,0.0,0.0,0.0,0.0,0.0,0.0,0.0,0.0,0.0,0.0,0.0,0.0,0.0,0.0,0.0,0.0,0.0,0.0,0.0,0.0,0.0,0.0,0.0,0.0,0.0,0.0,0.0,0.0,0.0,0.0,0.0,0.0,0.0,0.0,0.0,0.0,0.0,0.0,0.0,0.0,0.0,0.0,0.0,0.0,0.0,0.0,0.0,0.0,0.0,0.0,0.0,0.5322,0.4865,0.5364,0.5774,0.5685,0.5312,0.4883,0.4787,0.3648,0.2948,0.0,0.0,0.0,0.0,0.0,0.0,0.0,0.0,0.0,0.0,0.0,0.0,0.0,0.0,0.0,0.0,0.0,0.0,0.0,0.0,0.0,0.0,0.0,0.0,0.0,0.0,0.0,0.0,0.0,0.0,0.0,0.0,0.0,0.0,0.0,0.0,0.0,0.0,0.0,0.0,0.0,0.0,0.0,0.0,0.0,0.0,0.0,0.0,0.0,0.0,0.0,0.0,0.0,0.0,0.0,0.0,0.0,0.0,0.0,0.0,0.0,0.0,0.0,0.0,0.0,0.0,0.0,0.0,0.0,0.0,0.0,0.0,0.0,0.0,0.0,0.0,0.0,0.0,0.0,0.0,0.0,0.0,0.9667,0.0,0.0,0.0,0.0,0.0,0.0,0.0,0.0,0.0,0.0,0.0,0.0,0.0,0.0,0.0,0.0,0.0,0.0,0.0,0.0,0.0,0.0,0.0,0.6085,0.6109,0.6161,0.6278,0.5742,0.5324,0.4641,0.4056,0.3341,0.2859,0.0,0.0,0.0,0.0,0.0,0.0,0.0,0.0,0.0,0.0,0.0,0.0,0.0,0.0,0.0,0.0,0.0,0.0,0.0,0.0,0.0,0.0,0.0,0.0,0.0,0.0,0.0,0.0,0.0,0.0,0.0,0.0,0.0,0.0,0.0,0.0,0.0,0.0,0.0,0.0,0.0,0.0,0.0,0.0,0.0,0.0,0.0,0.0,0.0,0.0,0.0,0.0,0.0,0.0,0.0,0.0,0.0,0.0,0.0,0.0,0.0,0.0,0.0,0.0,0.0,0.0,0.0,0.0,0.0,0.0,0.0,0.0,0.0,0.0,0.0,0.0,0.0,1.1185,1.1077,0.0,0.0,0.0,0.0,0.0,0.0,0.0,0.0,0.0,0.0,0.0,0.972,0.9764,0.0,0.0,0.0,0.0,0.0,0.0,0.0,0.0,0.0,0.0,0.0,0.0,0.6867,0.5853,0.6331,0.6566,0.6335,0.5762,0.5326,0.4645,0.411,0.3359,0.2611,0.0,0.0,0.0,0.0,0.0,0.0,0.0,0.0,0.0,0.0,0.0,0.0,0.0,0.0,0.0,0.0,0.0,0.0,0.0,0.0,0.0,0.0,0.0,0.0,0.0,0.0,0.0,0.0,0.0,0.0,0.0,0.0,0.0,0.0,0.0,0.0,0.0,-0.1503,-0.1701,-0.0654,0.0,0.0,0.0,0.0,0.0,0.0,0.0,0.0,0.0,0.0,0.0,0.0,0.0,0.0,0.0,0.0,0.0,0.0,-0.226,-0.2443,-0.2961,-0.3365,-0.3499,0.0,0.0,0.0,0.0,0.0,0.0,0.0,0.0,0.0,0.0,0.0,0.0,0.0,0.0,1.1565,0.0,1.079,0.0,0.0,0.0,0.0,0.0,0.0,0.0,0.0,0.9824,0.9998,0.9992,1.0231,1.0248,0.0,1.0008,0.9737,0.0,0.0,0.0,0.0,0.0,0.0,0.0,0.0,0.7792,0.6809,0.6746,0.6791,0.6759,0.619,0.5549,0.5056,0.4116,0.3182,0.2613,0.2489,0.2375,0.0,0.0,0.0,0.0,0.0,0.0,0.0,0.0,0.0,0.0,0.0,0.0,0.0,0.0,0.0,0.0,0.0,0.0,0.0,0.0,0.0,0.0,0.0,0.0,0.0,0.0,0.0,0.0,0.0,0.0,0.0,0.0,0.0,-0.1545,-0.2064,-0.216,-0.1754,-0.0666,0.0,0.0,0.0,0.0,0.0,0.0,0.0,0.0,0.0,0.0,0.0,-0.1149,-0.2269,-0.2553,-0.253,-0.2517,-0.2517,0.0,0.0,-0.2596,-0.2988,-0.3414,-0.3698,-0.4124,-0.4287,-0.4485,-0.4525,-0.4575,0.0,0.0,0.0,0.0,0.0,0.0,0.0,0.0,1.2155,1.2088,0.0,1.1325,0.0,0.0,0.0,0.0,0.0,0.0,0.0,0.0,1.0237,1.0238,1.0098,1.0474,1.0688,1.0732,1.0454,1.0335,1.0177,0.9514,0.0,0.0,0.0,0.0,0.0,0.0,0.859,0.8437,0.7548,0.7031,0.7162,0.6832,0.6198,0.5485,0.3893,0.2994,0.2701,0.2582,0.2476,0.2384,0.227,0.0,0.0,0.0,0.0,0.0,0.0,0.0,0.0,0.0,0.0,0.0,0.0,0.0,0.0,0.0,0.0,0.0,0.0,0.0,0.0,0.0,0.0,0.0,0.0,0.0,0.0,0.0,0.0,0.0,0.0,0.0,0.0,-0.1364,-0.1889,-0.0329,0.0,0.0,0.0,0.0,0.0,0.0,0.0,0.0,0.0,0.0,0.0,0.0,0.0,0.0,-0.2697,-0.2695,-0.2691,-0.2694,-0.269,-0.2641,-0.2469,-0.3041,-0.3491,-0.3643,-0.3946,-0.4116,-0.4316,-0.4333,-0.4364,1.3186,0.0,0.0,0.0,0.0,1.2705,1.2773,1.2766,1.2725,1.2637,1.2508,1.1918,0.0,0.0,0.0,0.0,0.0,0.0,1.0242,1.0362,1.0639,1.0808,1.0715,1.13,1.1317,1.1102,1.1154,1.1037,1.0568,1.021,0.9878,0.959,0.0,0.0,0.0,0.0,1.0155,0.9061,0.8763,0.8221,0.7233,0.7053,0.6581,0.5442,0.3905,0.3046,0.2789,0.2672,0.2567,0.2478,0.238,0.0,0.0,0.0,0.0,0.0,0.0,0.0,0.0,0.0,0.0,0.0,0.0,0.0,0.0,0.0,0.0,0.0,0.0,0.0,0.0,0.0,0.0,0.0,0.0,0.0,0.0,0.0,0.0,0.0,0.0,0.0,0.0,-0.0324,-0.0985,0.0,0.0,0.0,0.0,0.0,0.0,0.0,0.0,0.0,0.0,0.0,0.0,0.0,-0.0706,-0.1743,-0.2789,-0.2772,-0.2757,-0.2758,-0.2758,-0.2739,-0.2692,-0.2954,-0.3232,-0.339,-0.3713,-0.4052,-0.3931,-0.3944,-0.4125,1.3899,1.3532,1.3057,1.2949,1.3098,1.3247,1.3308,1.3308,1.3308,1.3193,1.2976,1.2589,1.2079,1.1403,1.0987,0.0,0.0,0.0,1.0799,1.1042,1.1339,1.1334,1.1047,1.2033,1.2237,1.1834,1.1882,1.1584,1.0949,1.0715,1.0487,1.0264,0.0,0.0,1.0525,1.1334,1.1146,1.0174,0.9653,0.8887,0.8266,0.7637,0.6757,0.5449,0.4719,0.3852,0.2863,0.2769,0.2671,0.2571,0.2481,0.2372,0.0,0.0,0.0,0.0,0.0,0.0,0.0,0.0,0.0,0.0,0.0,0.0,0.0,0.0,0.0,0.0,0.0,0.0,0.0,0.0,0.0,0.0,0.0,0.0,0.0,0.0,0.0,0.0,0.0,0.0,0.0,0.0,-0.0346,-0.1402,-0.0714,0.0,0.0,0.0,0.0,0.0,0.0,0.0,0.0,0.0,0.0,0.0,-0.0727,-0.1802,-0.2702,-0.2867,-0.2855,-0.2853,-0.2853,-0.2853,-0.2853,-0.2984,-0.3098,-0.3389,-0.3546,-0.3724,-0.3748,-0.3765,-0.3788,1.4543,1.4468,1.379,1.3587,1.3709,1.3838,1.3899,1.3905,1.3885,1.3722,1.3451,1.3152,1.2769,1.2159,1.1499,0.0,1.0443,1.0791,1.1294,1.1657,1.2015,1.1999,1.146,1.2782,1.3211,1.2921,1.2437,1.1959,1.1308,1.1085,1.0976,1.0965,1.0143,1.0081,1.0802,1.1737,1.2035,1.1426,1.0188,0.9587,0.9677,0.799,0.6728,0.5688,0.5963,0.5071,0.3288,0.3034,0.2943,0.2826,0.2727,0.2606,0.2455,0.0,0.0,0.0,0.0,0.0,0.0,0.0,0.0,0.0,0.0,0.0,0.0,0.0,0.0,0.0,0.0,0.0,0.0,0.0,0.0,0.0,0.0,0.0,0.0,0.0,0.0,0.0,0.0,0.0,0.0,0.0,0.0,0.0,0.0,0.0,0.0,0.0,0.0,0.0,0.0,0.0,0.0,0.0,0.0,0.0,-0.0928,-0.1853,-0.2779,-0.2958,-0.296,-0.2954,-0.2961,-0.2773,-0.2775,-0.2765,-0.2928,-0.3346,-0.35,-0.3498,-0.3505,-0.3525,-0.3556,1.4794,1.4672,1.4496,1.4373,1.4306,1.434,1.4421,1.4502,1.4285,1.415,1.4061,1.3654,1.3224,1.2591,1.2235,1.1795,1.1311,1.1927,1.2289,1.2038,1.2586,1.3083,1.3169,1.3607,1.3443,1.2859,1.3011,1.2624,1.1683,1.1542,1.1465,1.146,1.102,1.0914,1.1172,1.2023,1.2047,1.1543,1.1397,1.0577,0.9063,0.7741,0.688,0.6082,0.6076,0.576,0.5347,0.4273,0.3806,0.4072,0.3748,0.3593,0.3442,0.3149,0.0,0.0,0.0,0.0,0.0,0.0,0.0,0.0,0.0,0.0,0.0,0.0,0.0,0.0,0.0,0.0,0.0,0.0,0.0,0.0,0.0,0.0,0.0,0.0,0.0,0.0,0.0,0.0,0.0,0.0,0.0,0.0,0.0,0.0,0.0,0.0,0.0,0.0,0.0,0.0,0.0,0.0,0.0,0.0,-0.0757,-0.1872,-0.2809,-0.2977,-0.2962,-0.2961,-0.2961,-0.2592,-0.2038,-0.2408,-0.2956,-0.3108,-0.3101,-0.3283,-0.365,-0.3472,-0.3297,1.5018,1.4936,1.4936,1.4889,1.4808,1.474,1.4767,1.4828,1.4672,1.4523,1.4373,1.3994,1.3573,1.2933,1.2904,1.2484,1.1865,1.2583,1.2746,1.2699,1.3381,1.3846,1.429,1.4534,1.3973,1.2984,1.318,1.2782,1.1819,1.1748,1.1721,1.1721,1.1446,1.1431,1.1507,1.2179,1.227,1.2115,1.1703,1.0845,0.9318,0.8169,0.7292,0.6667,0.6288,0.5976,0.5739,0.5025,0.4726,0.4306,0.4314,0.3993,0.3698,0.3688,0.3406,0.0,0.0,0.0,0.0,0.0,0.0,0.0,0.0,0.0,0.0,0.0,0.0,0.0,0.0,0.0,0.0,0.0,0.0,0.0,0.0,0.0,0.0,0.0,0.0,0.0,0.0,0.0,0.0,0.0,0.0,0.0,0.0,0.0,0.0,0.0,0.0,0.0,0.0,0.0,0.0,0.0,0.0,0.0,-0.0385,-0.1333,-0.2857,-0.3022,-0.3002,-0.3002,-0.3002,-0.2627,-0.1689,-0.2252,-0.2816,-0.2439,-0.2814,-0.3178,-0.3524,-0.353,-0.3543,1.5181,1.5368,1.5181,1.5181,1.5174,1.5052,1.4997,1.4997,1.4977,1.4808,1.4523,1.4272,1.3907,1.3448,1.3572,1.3167,1.258,1.3052,1.3362,1.3486,1.4164,1.4606,1.5004,1.512,1.4358,1.3121,1.3313,1.2894,1.1868,1.1862,1.1862,1.1873,1.1892,1.1815,1.2026,1.216,1.2526,1.2748,1.1858,1.0941,1.0007,0.8825,0.7715,0.7254,0.6531,0.6027,0.5552,0.5607,0.5317,0.452,0.4715,0.4564,0.4106,0.4271,0.3974,0.0,0.2943,0.0,0.0,0.0,0.0,0.0,0.0,0.0,0.0,0.0,0.0,0.0,0.0,0.0,0.0,0.0,0.0,0.0,0.0,0.0,0.0,0.0,0.0,0.0,0.0,0.0,0.0,0.0,0.0,0.0,0.0,0.0,0.0,0.0,0.0,0.0,0.0,0.0,0.0,0.0,0.0,0.0,0.0,0.0,-0.232,-0.2882,-0.3056,-0.3052,-0.3052,-0.2673,-0.1528,-0.1912,-0.2298,-0.1723,-0.2295,-0.3039,-0.3555,-0.3745,-0.3777,1.5368,1.5751,1.5375,1.5181,1.5181,1.5153,1.514,1.5133,1.5025,1.4869,1.4692,1.4638,1.4597,1.4397,1.4417,1.4081,1.3744,1.414,1.4231,1.4184,1.4587,1.5031,1.514,1.5167,1.4604,1.3645,1.3645,1.3069,1.2107,1.2107,1.2107,1.2112,1.2058,1.2171,1.2278,0.0,0.0,0.0,1.2009,1.1218,1.0608,0.9166,0.8253,0.7645,0.663,0.0,0.6648,0.6599,0.6454,0.6073,0.6059,0.0,0.0,0.0,0.0,0.0,0.0,0.0,0.0,0.0,0.0,0.0,0.0,0.0,0.0,0.0,0.0,0.0,0.0,0.0,0.0,0.0,0.0,0.0,0.0,0.0,0.0,0.0,0.0,0.0,0.0,0.0,0.0,0.0,0.0,0.0,0.0,0.0,0.0,0.0,0.0,0.0,0.0,0.0,0.0,0.0,0.0,0.0,0.0,0.0,0.0,-0.2128,-0.3078,-0.3061,-0.3073,-0.2509,0.0,-0.0388,-0.078,-0.1367,-0.1746,-0.2308,-0.3611,-0.3988,-0.4007,1.6241,0.0,1.6155,1.5931,0.0,1.5931,1.5744,1.5556,1.5293,1.4991,1.4855,1.4855,1.4814,1.474,1.474,1.4415,1.4113,1.4671,1.4745,1.4326,1.4966,1.5228,1.5296,1.5371,1.4793,1.378,1.378,1.3175,1.2172,1.2172,1.2199,1.2265,1.2187,1.2304,1.2427,1.2917,1.3327,1.3243,1.2369,1.172,1.1093,0.9657,0.8712,0.8235,0.0,0.0,0.0,0.0,0.0,0.0,0.0,0.0,0.0,0.0,0.0,0.5179,0.4343,0.3544,0.2466,0.1551,0.0784,0.0,0.0,0.0,0.0,0.0,0.0,0.0,0.0,0.0,0.0,0.0,0.0,0.0,0.0,0.0,0.0,0.0,0.0,0.0,0.0,0.0,0.0,-0.0973,-0.0983,0.0,0.0,0.0,0.0,0.0,0.0,0.0,0.0,0.0,0.0,0.0,0.0,0.0,0.0,0.0,0.0,-0.0782,-0.1946,-0.2713,-0.2332,-0.1169,0.0,0.0,-0.0196,-0.0589,-0.1173,-0.1947,-0.3291,-0.3856,-0.4432,1.717,1.7154,1.683,1.677,1.677,1.677,1.6372,1.5974,0.0,0.0,0.0,1.5011,1.4936,1.4821,1.4814,1.4698,1.4447,1.4852,1.4919,1.4656,1.5187,1.5452,1.5459,1.5581,1.4989,1.3914,1.3914,1.328,1.2237,1.2237,1.2286,1.239,1.231,1.2443,1.2604,1.3322,1.3543,1.3653,1.2927,1.2235,1.1793,0.9974,0.9197,0.9021,0.8211,0.7677,0.7412,0.8281,0.8854,0.8665,0.8149,0.7878,0.7866,0.7508,0.6902,0.5739,0.5008,0.4012,0.2909,0.1946,0.0982,0.0,0.0,0.0,0.0,0.0,0.0,0.0,0.0,0.0,0.0,0.0,0.0,0.0,0.0,0.0,0.0,0.0,0.0,0.0,0.0,0.0,0.0,-0.1759,-0.2567,-0.0995,0.0,0.0,0.0,0.0,0.0,0.0,0.0,0.0,0.0,0.0,0.0,0.0,0.0,0.0,0.0,0.0,0.0,-0.2157,-0.0983,0.0,0.0,0.0,0.0,0.0,-0.0788,-0.1968,-0.2951,-0.3917,-0.4889,1.7528,1.7912,1.7313,1.7113,1.7113,1.7113,1.684,1.6124,1.543,1.5174,1.5153,1.5153,1.514,1.512,1.512,1.5133,1.516,1.5289,1.5357,0.0,1.554,1.5608,1.5608,1.5628,1.5041,1.4055,1.4055,1.3468,1.2487,1.2482,1.2493,1.252,1.2427,1.2636,1.2941,1.3319,1.367,1.3575,1.3466,1.2942,1.2209,1.0987,1.0188,0.9997,0.9224,0.8888,0.8606,0.9454,0.9838,0.9824,0.9279,0.8826,0.8826,0.8452,0.7882,0.7307,0.6148,0.4781,0.356,0.2907,0.1893,0.0,0.0,0.0,0.0,0.0,0.0,0.0,0.0,0.0,0.0,0.0,0.0,0.0,0.0,0.0,0.0,0.0,0.0,0.0,0.0,0.0,0.0,-0.177,-0.2983,-0.2394,-0.1006,0.0,0.0,0.0,0.0,0.0,0.0,0.0,0.0,0.0,0.0,0.0,0.0,0.0,0.0,0.0,0.0,0.0,0.0,0.0,0.0,0.0,0.0,0.0,-0.08,-0.1991,-0.2987,-0.4197,-0.5206,1.8285,1.8463,1.8183,1.7951,1.7951,1.7381,1.6943,1.6287,1.565,1.5337,1.5187,1.5181,1.5181,1.5187,1.5269,1.5309,1.5309,1.5466,1.5533,1.5547,1.5683,1.5757,1.5764,1.544,1.5048,1.4599,1.4,1.3378,1.2542,1.2536,1.2569,1.2634,1.2609,1.2813,1.3232,1.357,1.3692,1.3602,1.3132,1.2839,1.2512,1.153,1.0946,1.0748,0.9915,0.9163,0.9069,1.034,1.1123,1.0926,1.0102,0.9692,1.0049,0.9468,0.8888,0.8317,0.7424,0.6366,0.4958,0.3576,0.2519,0.1799,0.108,0.0899,0.0895,0.0357,0.0,0.0,0.0,0.0,0.0,0.0,0.0,0.0,0.0,0.0,0.0,0.0,0.0,0.0,0.0,0.0,0.0,-0.0793,-0.1997,-0.2609,-0.1417,0.0,0.0,0.0,0.0,0.0,0.0,0.0,0.0,0.0,0.0,0.0,0.0,0.0,0.0,0.0,0.0,0.0,0.0,0.0,0.0,0.0,0.0,0.0,-0.1421,-0.2633,-0.3255,-0.4498,-0.5728,1.9045,1.9029,1.8899,1.8842,1.8649,1.768,1.7076,1.6458,1.5877,1.5533,1.5303,1.5282,1.5282,1.5296,1.5411,1.5459,1.5479,1.5622,1.5689,1.5703,1.5839,1.5906,1.5913,1.5433,1.5228,1.4743,1.3935,1.3291,1.2623,1.2613,1.2672,1.2797,1.2797,1.3167,1.3699,1.3642,1.3752,1.3602,1.2994,1.2726,1.2797,1.2063,1.1696,1.1483,1.0428,0.9658,0.9539,1.1268,1.2085,1.1857,1.0901,1.0519,1.1069,1.0633,1.0039,0.9304,0.8521,0.7606,0.603,0.442,0.3516,0.3703,0.2777,0.2037,0.2035,0.1281,0.0545,0.0,0.0,0.0,0.0,0.0,0.0,0.0,0.0,0.0,0.0,0.0,0.0,0.0,0.0,0.0,0.0,0.0,0.0,-0.1822,-0.1021,0.0,0.0,0.0,0.0,0.0,0.0,0.0,0.0,0.0,0.0,0.0,0.0,0.0,0.0,0.0,0.0,0.0,0.0,0.0,0.0,0.0,0.0,0.0,-0.1232,-0.2474,-0.3124,-0.4812,-0.6051,1.924,1.9232,1.9224,1.901,1.841,1.7818,1.7144,1.6636,1.6028,1.575,1.5608,1.5594,1.5588,1.5601,1.5608,1.5615,1.5628,1.5771,1.5832,1.5845,1.5988,1.6062,1.6049,1.5472,1.4869,1.4247,1.386,1.345,1.2835,1.2841,1.2912,1.2829,1.2952,1.3075,1.3625,1.3846,1.3918,1.3607,1.3711,1.3656,1.322,1.2678,1.2308,1.2094,1.1362,1.1002,1.061,1.1641,1.2289,1.2168,1.1879,1.1452,1.1263,1.1625,1.1436,1.0326,0.9403,0.7929,0.6092,0.5362,0.5187,0.5744,0.4449,0.3893,0.408,0.3355,0.2051,0.0,0.0,0.0,0.0,0.0,0.0,0.0,0.0,0.0,0.0,0.0,0.0,0.0,0.0,0.0,0.0,0.0,0.0,0.0,0.0,0.0,0.0,0.0,0.0,0.0,0.0,0.0,0.0,0.0,0.0,0.0,0.0,0.0,0.0,0.0,0.0,0.0,0.0,0.0,0.0,0.0,0.0,0.0,0.0,-0.1044,-0.2754,-0.4489,-0.5115,1.9573,1.9573,1.9573,1.9163,1.8343,1.7658,1.6978,1.6316,1.6227,1.5954,1.5906,1.59,1.5805,1.5649,1.573,1.5764,1.5778,1.592,1.5988,1.5995,1.6056,1.6083,1.6083,1.5479,1.4875,1.4071,1.3884,1.349,1.289,1.289,1.295,1.2866,1.2973,1.3336,1.3526,1.3918,1.4012,1.3814,1.3798,1.3738,1.3629,1.3236,1.2853,1.269,1.2511,1.2144,1.1983,1.2256,1.2368,1.2314,1.2199,1.194,1.194,1.2069,1.1839,1.0899,0.9777,0.8649,0.7899,0.6773,0.6401,0.697,0.5651,0.4899,0.4901,0.435,0.3594,0.2453,0.1513,0.0948,0.0759,0.0381,0.0191,0.0573,0.0,0.0,0.0,0.0,0.0,0.0,0.0,0.0,0.0,0.0,0.0,0.0,0.0,0.0,0.0,0.0,0.0,0.0,0.0,0.0,0.0,0.0,0.0,0.0,0.0,0.0,0.0,0.0,0.0,0.0,0.0,0.0,0.0,0.0,0.0,0.0,0.0,-0.0645,-0.3026,-0.3906,-0.4323,1.9792,1.9792,1.9589,1.8979,1.8142,1.7422,1.6766,1.6354,1.6246,1.6178,1.6144,1.6144,1.6029,1.5852,1.5893,1.5913,1.594,1.6076,1.6144,1.6151,1.6185,1.6205,1.6198,1.5603,1.4969,1.4331,1.3936,1.3524,1.2895,1.2928,1.2999,1.2909,1.3027,1.3412,1.364,1.399,1.4095,1.4161,1.3874,1.3819,1.3765,1.358,1.3395,1.3238,1.3042,1.2868,1.2913,1.2629,1.2569,1.2536,1.2449,1.2406,1.2401,1.2319,1.208,1.1503,1.0544,0.959,0.9203,0.8251,0.7677,0.7872,0.6725,0.5958,0.5958,0.538,0.4996,0.4612,0.3268,0.2305,0.1908,0.1338,0.1149,0.1724,0.1159,0.0777,0.0,0.0,0.0,0.0,0.0,0.0,0.0,0.0,0.0,0.0,0.0,0.0,0.0,0.0,0.0,0.0,0.0,0.0,0.0,0.0,0.0,0.0,0.0,0.0,0.0,0.0,0.0,0.0,0.0,0.0,0.0,0.0,0.0,0.0,0.0,0.0,-0.3069,-0.3517,-0.3744,1.9792,1.98,1.919,1.8798,1.8157,1.7545,1.6925,1.651,1.649,1.6415,1.6307,1.6098,1.6085,1.6252,1.6137,1.6076,1.6096,1.6232,1.63,1.6313,1.6422,1.649,1.6292,1.589,1.5615,1.5082,1.447,1.3609,1.2917,1.3009,1.3118,1.3021,1.3134,1.3321,1.3541,1.41,1.4172,1.4194,1.395,1.3896,1.3792,1.3662,1.3477,1.3265,1.292,1.295,1.2946,1.2902,1.2852,1.2942,1.2731,1.2531,1.2526,1.2515,1.231,1.1916,1.1722,1.094,0.9565,0.918,0.9188,0.9196,0.821,0.783,0.7622,0.6839,0.6254,0.6264,0.528,0.4277,0.326,0.2888,0.2708,0.2904,0.2927,0.1962,0.0393,0.0,0.0,0.0,0.0,0.0,0.0,0.0,0.0,0.0,0.0,0.0,0.0,0.0,0.0,0.0,0.0,0.0,0.0,0.0,0.0,0.0,0.0,0.0,0.0,0.0,0.0,0.0,0.0,0.0,0.0,0.0,0.0,0.0,0.0,0.0,0.0,-0.3569,-0.3796,2.0125,2.0125,1.9091,1.8677,1.8248,1.7327,1.6872,1.6659,1.6564,1.6497,1.6449,1.6442,1.6442,1.6442,1.6388,1.6361,1.6368,1.6422,1.6442,1.6449,1.6497,1.6517,1.6517,1.6319,1.589,1.5641,1.522,1.459,1.3734,1.3774,1.3649,1.3341,1.3187,1.3359,1.3626,1.4155,1.4249,1.4162,1.4042,1.3934,1.3879,1.3705,1.3526,1.3363,1.3238,1.3064,1.283,1.2825,1.3002,1.2963,1.2689,1.2645,1.2634,1.2574,1.2536,1.2336,1.1942,1.1548,1.1158,1.0574,0.9989,0.9603,0.9212,0.8829,0.8434,0.7847,0.726,0.726,0.7064,0.6446,0.5454,0.4091,0.332,0.391,0.3546,0.298,0.1999,0.0,0.0,0.0,0.0,0.0,0.0,0.0,0.0,0.0,0.0,0.0,0.0,0.0,0.0,0.0,0.0,0.0,0.0,0.0,0.0,0.0,0.0,0.0,0.0,0.0,0.0,0.0,0.0,0.0,0.0,0.0,0.0,0.0,0.0,0.0,0.0,-0.2912,-0.3141,1.9903,1.9903,1.885,1.8432,1.8417,1.728,1.6822,1.6809,1.6714,1.6646,1.6605,1.6598,1.6598,1.6598,1.6592,1.6625,1.6659,1.6619,1.6598,1.6598,1.6646,1.6673,1.6666,1.6666,1.6433,1.5982,1.5731,1.5302,1.4481,1.4311,1.4169,1.3828,1.3697,1.3879,1.4349,1.4868,1.5,1.4686,1.4299,1.4172,1.3928,1.3727,1.3548,1.3428,1.3341,1.3189,1.2955,1.2912,1.289,1.2879,1.2808,1.2765,1.2754,1.2689,1.2651,1.2645,1.2252,1.2247,1.2449,1.1461,1.067,1.0277,0.969,0.9296,0.9103,0.8511,0.8317,0.812,0.8116,0.7718,0.7323,0.5937,0.4942,0.514,0.4585,0.4026,0.3243,0.2045,0.0,0.0,0.0,0.0,0.0,0.0,0.0,0.0,0.0,0.0,0.0,0.0,0.0,0.0,0.0,0.0,0.0,0.0,0.0,0.0,0.0,0.0,-0.1922,-0.2775,-0.2991,-0.15,0.0,0.0,0.0,0.0,0.0,0.0,0.0,0.0,-0.1794,-0.2244,0.0,1.9059,1.9284,1.823,1.8222,1.8432,1.7377,1.6971,1.6958,1.6958,1.6863,1.6761,1.6968,1.6962,1.6754,1.6748,1.6829,1.6897,1.6809,1.6754,1.6761,1.6883,1.6944,1.6937,1.6931,1.687,1.6547,1.5995,1.5526,1.4928,1.5038,1.4892,1.4719,1.4704,1.5088,1.5698,1.6039,1.6181,1.5575,1.4966,1.4622,1.4144,1.3738,1.3564,1.345,1.3423,1.3308,1.2882,1.296,1.2901,1.289,1.2884,1.2884,1.2873,1.2863,1.2873,1.2857,1.2868,1.2873,1.2879,1.2274,1.1668,1.1282,1.0275,0.9669,0.9665,0.9267,0.8862,0.8851,0.845,0.8252,0.8249,0.8055,0.7634,0.5994,0.6065,0.5306,0.3898,0.3305,0.25,0.0,0.0,0.0,0.0,0.0,0.0,0.0,0.0,0.0,0.0,0.0,0.0,0.0,0.0,0.0,0.0,0.0,0.0,0.0,0.0,0.0,0.0,-0.193,-0.3219,-0.2152,-0.065,0.0,0.0,0.0,0.0,0.0,0.0,0.0,0.0,0.0,0.0,1.8641,1.885,1.8432,1.823,1.802,1.7601,1.7398,1.6978,1.6978,1.6951,1.6917,1.691,1.691,1.691,1.691,1.6931,1.6971,1.6924,1.691,1.6917,1.6958,1.6978,1.6978,1.6978,1.6958,1.691,1.6654,1.621,1.5793,1.5831,1.5438,1.5258,1.5617,1.5778,1.6143,1.6493,1.6627,1.6286,1.5486,1.4702,1.4605,1.4023,1.3673,1.3553,1.3466,1.3592,1.3308,1.3118,1.2977,1.2901,1.289,1.289,1.289,1.289,1.289,1.289,1.289,1.2933,1.2802,1.2807,1.2642,1.2293,1.087,1.0228,1.0189,0.9775,0.9544,0.9496,0.9279,0.9279,0.9287,0.9334,0.8742,0.7506,0.6933,0.6178,0.4994,0.3362,0.1692,0.0,0.0,0.0,0.0,0.0,0.0,0.0,0.0,0.0,0.0,0.0,0.0,0.0,0.0,0.0,0.0,0.0886,0.1766,0.1097,0.0,0.0,0.0,-0.1295,-0.2374,-0.3032,-0.1308,0.0,0.0,0.0,0.0,0.0,0.0,0.0,0.0,0.0,0.0,1.8222,1.8222,1.8222,1.8013,1.7811,1.7811,1.7398,1.6978,1.6978,1.6978,1.6978,1.6978,1.6978,1.6978,1.6978,1.6978,1.6978,1.6978,1.6978,1.6978,1.6978,1.6978,1.6978,1.6978,1.6978,1.6978,1.6978,1.6768,1.6551,1.6348,1.6367,1.6221,1.6356,1.672,1.6864,1.7001,1.7131,1.6741,1.5967,1.5397,1.5049,1.4485,1.394,1.3824,1.3951,1.3681,1.3631,1.327,1.3124,1.2982,1.2917,1.289,1.289,1.289,1.2906,1.295,1.296,1.3009,1.2909,1.2925,1.3162,1.3027,1.2004,1.1148,1.0897,1.0274,1.0036,0.9791,0.9787,0.9779,0.9795,0.9828,0.9467,0.9087,0.7854,0.6657,0.5481,0.3194,0.1284,0.0,0.0,0.0,0.0,0.0,0.0,0.0,0.0,0.0,0.0,0.0,0.0,0.0,0.0,0.0,0.0,0.1568,0.3358,0.2446,0.0,0.0,0.0,0.0,-0.1739,-0.2842,-0.22,-0.1106,0.0,0.0,0.0,0.0,0.0,0.0,0.0,0.0,0.0,1.7412,1.7825,1.7811,1.7811,1.7811,1.7811,1.7608,1.6978,1.6978,1.6978,1.6978,1.6978,1.6978,1.6978,1.6978,1.6978,1.6978,1.6978,1.6978,1.6978,1.6978,1.6978,1.6978,1.6978,1.6978,1.6978,1.6978,1.6978,1.6978,1.6978,1.7053,1.6962,1.711,1.727,1.7404,1.7785,1.7632,1.7184,1.6866,1.6294,1.5705,1.5147,1.4579,1.4463,1.444,1.4178,1.367,1.3406,1.3287,1.2882,1.295,1.2895,1.2901,1.2901,1.296,1.3069,1.308,1.314,1.3011,1.3043,1.327,1.3515,1.3314,1.2853,1.1194,1.0776,1.0351,0.9922,0.9926,0.9934,0.9934,0.9951,0.9996,0.9856,0.8605,0.696,0.468,0.3005,0.1509,0.0,0.0,0.0,0.0,0.0,0.0,0.0,0.0,0.0,0.0,0.0,0.0,0.0,0.0,0.0,0.0898,0.2019,0.3587,0.3133,0.2003,0.0,0.0,0.0,0.0,-0.1979,-0.2878,-0.1781,0.0,0.0,0.0,0.0,0.0,0.0,0.0674,0.1796,0.247,1.7134,1.7332,1.8063,1.802,1.7398,1.802,1.7811,1.6978,1.6978,1.6978,1.6978,1.6978,1.6978,1.6978,1.6978,1.6978,1.6978,1.6978,1.6978,1.6978,1.6978,1.6978,1.6978,1.6978,1.6978,1.6978,1.6978,1.6978,1.6978,1.6978,1.706,1.7195,1.7344,1.7494,1.765,1.7792,1.786,1.7639,1.7177,1.6795,1.6366,1.5656,1.5307,1.5096,1.5078,1.4633,1.3752,1.3675,1.3314,1.3086,1.2955,1.2933,1.3009,1.302,1.3075,1.3172,1.32,1.3249,1.3134,1.3161,1.3412,1.3504,1.3703,1.3058,1.1716,1.0874,1.0215,0.9971,0.9951,0.9959,0.9967,1.0012,0.9876,0.953,0.8692,0.7005,0.5113,0.365,0.216,0.0,0.0,0.0,0.1549,0.0,0.0,0.0,0.1568,0.2694,0.247,0.1796,0.1571,0.1347,0.0,0.0,0.1796,0.2693,0.3589,0.3588,0.2911,0.0,0.0,0.0,0.0,-0.0659,-0.2216,-0.1783,-0.0892,0.0,0.0,0.2021,0.2245,0.2021,0.1572,0.2021,0.2694,1.7504,1.7697,1.839,1.8332,1.7903,1.8461,1.8013,1.7398,1.7188,1.6978,1.6978,1.6978,1.6978,1.6978,1.6978,1.6978,1.6978,1.6978,1.7188,1.7398,1.7601,1.7391,1.7188,1.6978,1.6978,1.6978,1.6978,1.6978,1.6978,1.6978,1.7093,1.727,1.7372,1.7528,1.7738,1.7812,1.786,1.7853,1.7144,1.6776,1.6785,1.6277,1.593,1.5748,1.571,1.5283,1.4423,1.4749,1.4588,1.3791,1.3695,1.3683,1.3536,1.3553,1.3399,1.3303,1.3314,1.3368,1.3257,1.3284,1.3526,1.3586,1.3613,1.3153,1.2255,1.1181,1.0517,1.0495,1.0274,1.0061,1.0069,1.011,0.9948,0.9776,0.9155,0.7881,0.5749,0.4311,0.2819,0.1526,0.0881,0.1114,0.2675,0.2015,0.157,0.2019,0.3814,0.4716,0.494,0.4041,0.2919,0.2693,0.2469,0.2469,0.2469,0.3366,0.3589,0.3589,0.3589,0.2692,0.0,0.0,0.0,-0.0222,-0.1335,-0.1561,-0.0447,0.0671,0.2016,0.292,0.3594,0.3369,0.2694,0.2469,0.2919,1.7871,1.8496,1.8756,1.8895,1.8857,1.8716,1.8432,1.7811,1.7398,1.6978,1.6978,1.6978,1.6978,1.6978,1.6978,1.6978,1.7188,1.7188,1.7391,1.7811,1.8222,1.802,1.7391,1.7188,1.7188,1.7188,1.6978,1.6978,1.6992,1.6992,1.7154,1.7351,1.7433,1.7595,1.7785,1.786,1.786,1.784,1.7073,1.6935,1.7203,1.6648,1.6292,1.6169,1.6137,1.592,1.5685,1.6041,1.6132,1.4323,1.4711,1.4687,1.4276,1.4088,1.3945,1.362,1.3444,1.3488,1.3575,1.3586,1.3597,1.3607,1.3607,1.3391,1.2742,1.2098,1.146,1.124,1.0636,1.0614,1.0403,1.0208,1.0208,1.0004,1.0008,0.9159,0.7263,0.4973,0.3495,0.2626,0.222,0.2238,0.2469,0.2918,0.3591,0.2917,0.4712,0.6062,0.6062,0.5163,0.4264,0.3814,0.3814,0.3815,0.3815,0.3815,0.3814,0.3812,0.3814,0.3365,0.1796,0.0,0.0,-0.0,0.0224,0.0,0.0224,0.1571,0.2919,0.3817,0.4041,0.3817,0.3592,0.3366,0.3815,1.911,1.9088,1.944,1.9311,1.9076,1.9143,1.8649,1.7811,1.7601,1.7398,1.7188,1.6978,1.6978,1.6978,1.6978,1.7188,1.7608,1.7601,1.802,1.8432,1.8432,1.8432,1.8222,1.7811,1.7608,1.7601,1.7188,1.6978,1.6998,1.7093,1.7236,1.7399,1.7317,1.7465,1.7833,1.786,1.786,1.784,1.7498,1.7344,1.7203,1.7049,1.6902,1.6781,1.6775,1.6564,1.6137,1.6551,1.6518,1.5793,1.5446,1.5177,1.4618,1.4423,1.4064,1.373,1.3553,1.3575,1.3597,1.3607,1.3607,1.3607,1.3607,1.3396,1.2968,1.2973,1.255,1.1911,1.1699,1.1276,1.0852,1.0428,1.0216,1.0216,1.022,0.9587,0.8109,0.6451,0.4773,0.3938,0.3974,0.4456,0.4035,0.3589,0.3812,0.4036,0.5159,0.6959,0.6732,0.6281,0.5831,0.5157,0.5157,0.5159,0.4935,0.4935,0.471,0.4485,0.4262,0.4262,0.2692,0.1571,0.1347,0.1571,0.2245,0.2245,0.1796,0.202,0.3143,0.3817,0.449,0.4488,0.4488,0.4488,0.4262,1.9717,1.9898,1.9792,1.9859,1.982,1.9602,1.9067,1.8649,1.802,1.7601,1.7398,1.7188,1.6978,1.6978,1.6978,1.7398,1.7811,1.8439,1.8649,1.9067,1.9268,1.9477,1.9268,1.8858,1.8439,1.7811,1.7188,1.6978,1.7019,1.7127,1.7263,1.7419,1.7358,1.7492,1.784,1.786,1.786,1.7812,1.765,1.7494,1.7405,1.7202,1.7073,1.6998,1.6985,1.6775,1.6558,1.6781,1.6775,1.6518,1.6204,1.6158,1.5591,1.4976,1.4592,1.4007,1.3602,1.3602,1.3607,1.3607,1.3607,1.3607,1.3607,1.3396,1.318,1.3185,1.2973,1.2334,1.2122,1.1699,1.1064,1.0636,1.0212,1.0216,1.022,0.9796,0.8957,0.7298,0.5848,0.5024,0.5069,0.5114,0.4918,0.4703,0.4707,0.4931,0.5826,0.7401,0.8076,0.7625,0.7175,0.6724,0.6724,0.6724,0.6279,0.6055,0.5607,0.5381,0.5159,0.5159,0.4262,0.3365,0.2468,0.2918,0.3143,0.4041,0.3817,0.3815,0.3815,0.5161,0.5835,0.5385,0.5161,0.5163,0.4936,2.0285,2.0701,2.0355,2.0428,2.0799,2.0054,1.9493,1.9284,1.8439,1.802,1.7811,1.7188,1.7188,1.6978,1.7188,1.7398,1.8237,1.9067,1.9485,1.9694,1.9903,2.0111,1.9903,1.9485,1.8858,1.802,1.7398,1.7195,1.7053,1.7161,1.7331,1.7467,1.7391,1.7751,1.7846,1.786,1.786,1.7826,1.7589,1.7439,1.7372,1.7154,1.6998,1.6985,1.6978,1.6978,1.6978,1.6978,1.6978,1.6978,1.6978,1.6985,1.6775,1.5927,1.5078,1.4452,1.3813,1.3602,1.3607,1.3607,1.3607,1.3607,1.3607,1.3607,1.3391,1.318,1.2968,1.2757,1.2545,1.1911,1.1487,1.0636,1.0424,1.0424,1.0216,1.0004,0.9379,0.8151,0.7126,0.6315,0.5705,0.553,0.5793,0.5818,0.5822,0.605,0.6945,0.7843,0.8517,0.8744,0.8293,0.807,0.7846,0.7846,0.7622,0.7398,0.6951,0.6727,0.6503,0.6279,0.6055,0.5159,0.4486,0.3591,0.4039,0.4714,0.5385,0.5161,0.5609,0.6732,0.6953,0.6503,0.6281,0.6062,0.5842,2.1164,2.114,2.1002,2.0856,2.0799,2.0264,1.9911,1.9493,1.9284,1.8649,1.7811,1.7601,1.7398,1.7188,1.7601,1.823,1.9075,1.9694,2.0111,2.0111,2.032,2.032,2.0111,1.9903,1.9284,1.8865,1.8042,1.7468,1.7154,1.7311,1.7433,1.7602,1.7745,1.784,1.7853,1.786,1.786,1.7819,1.7575,1.7426,1.7358,1.7148,1.6978,1.6978,1.6978,1.6978,1.6978,1.6978,1.6978,1.6978,1.6978,1.6985,1.6768,1.592,1.5078,1.4452,1.4024,1.3607,1.3607,1.3613,1.3607,1.3607,1.3618,1.3613,1.3613,1.3391,1.3391,1.318,1.2968,1.2545,1.2545,1.1271,1.0636,1.0636,1.0428,1.0004,0.9587,0.8968,0.8148,0.7131,0.654,0.6162,0.6655,0.715,0.739,0.7619,0.829,0.8964,0.9865,0.9642,0.9191,0.8967,0.8744,0.8744,0.8744,0.8744,0.852,0.8517,0.8293,0.8293,0.7846,0.7175,0.6503,0.5607,0.5383,0.5833,0.6057,0.6281,0.6951,0.7849,0.7846,0.7619,0.764,0.7435,0.724,2.1384,2.1352,2.11,2.0937,2.0815,2.058,2.02,1.9911,1.9694,1.9067,1.823,1.802,1.7601,1.7601,1.7601,1.8439,1.9485,2.0111,2.032,2.032,2.032,2.032,2.032,1.9911,1.9485,1.8888,1.852,1.796,1.7202,1.7344,1.7507,1.7643,1.7792,1.786,1.786,1.786,1.786,1.7799,1.7589,1.7419,1.7392,1.7127,1.6998,1.6978,1.6978,1.6978,1.6978,1.6978,1.6978,1.6978,1.6978,1.6978,1.6768,1.6341,1.55,1.4868,1.4235,1.3819,1.3624,1.3651,1.3705,1.37,1.37,1.37,1.3678,1.3651,1.3618,1.3607,1.3391,1.318,1.2757,1.2122,1.1704,1.1064,1.064,1.0216,0.9792,0.958,0.8971,0.8161,0.7818,0.7679,0.7968,0.8462,0.895,0.9191,0.9634,1.0085,1.0763,1.054,0.9865,0.9862,0.9638,0.9638,0.9862,0.9862,0.9862,0.9862,0.9858,0.9862,0.9634,0.8964,0.8296,0.7625,0.7398,0.7175,0.7175,0.7398,0.807,0.8741,0.8741,0.875,0.879,0.8827,0.8637,2.1384,2.1368,2.1197,2.1019,2.084,2.0669,2.0491,2.0136,1.9903,1.9276,1.885,1.823,1.802,1.802,1.823,1.8649,1.9694,2.0111,2.032,2.032,2.032,2.032,2.0328,2.0152,1.9765,1.8745,1.8872,1.8301,1.7497,1.7412,1.7548,1.769,1.7819,1.786,1.786,1.786,1.786,1.7779,1.7616,1.746,1.7324,1.7127,1.6978,1.6978,1.6978,1.6978,1.6978,1.7026,1.7005,1.7005,1.7005,1.7012,1.6985,1.6558,1.6131,1.55,1.4868,1.4246,1.3874,1.3716,1.3567,1.3814,1.3819,1.3819,1.3809,1.3754,1.3684,1.3645,1.3645,1.3418,1.319,1.3195,1.2772,1.1492,1.0636,1.0212,1.0004,0.98,0.9815,0.9239,0.9111,0.8968,0.9038,0.9132,0.9407,0.9858,1.0081,1.0304,1.0759,1.0755,1.0532,1.0532,1.0528,1.0751,1.0751,1.0974,1.0974,1.1197,1.1201,1.1424,1.1201,1.0755,1.0085,0.9188,0.8964,0.8741,0.8517,0.8293,0.8964,0.9411,0.9638,0.9664,1.0165,1.0227,1.0053,2.1384,2.1368,2.1205,2.1019,2.084,2.0677,2.0491,2.0336,2.0111,1.9903,1.9276,1.885,1.8432,1.8641,1.9067,1.9485,2.0119,2.032,2.0353,2.0385,2.0361,2.0361,2.0369,2.0499,1.9695,1.8887,1.8815,1.846,1.7641,1.7541,1.7684,1.7806,1.7833,1.786,1.786,1.786,1.786,1.7833,1.7697,1.7494,1.7263,1.7087,1.7026,1.7005,1.7005,1.7019,1.7046,1.7114,1.7339,1.7039,1.7114,1.71,1.7012,1.6985,1.6558,1.592,1.509,1.4498,1.4366,1.4012,1.3642,1.3923,1.4155,1.4155,1.3912,1.3901,1.3841,1.377,1.3765,1.3732,1.3455,1.3635,1.2984,1.1935,1.0891,1.0457,1.024,1.008,1.0088,1.0136,0.9806,0.9611,0.9656,0.9764,1.0085,1.0304,1.0751,1.0751,1.0751,1.0751,1.0751,1.0751,1.0751,1.0974,1.142,1.1643,1.1866,1.2089,1.2539,1.2762,1.2544,1.2098,1.1201,1.0528,1.0304,1.0081,0.9634,0.9634,1.0081,1.0304,1.0308,1.0804,1.1546,1.1393,1.1,2.1384,2.1376,2.1303,2.1108,2.0856,2.0775,2.058,2.0361,2.032,1.9903,1.9485,1.9276,1.9067,1.9067,1.9485,1.9757,2.0224,2.0377,2.045,2.0547,2.0531,2.0523,2.0621,2.0694,1.9882,1.9066,1.8962,1.8625,1.7799,1.7616,1.7717,1.784,1.786,1.786,1.786,1.786,1.786,1.7819,1.7711,1.7541,1.7365,1.7263,1.7222,1.7222,1.7003,1.7003,1.7236,1.727,1.7297,1.7243,1.7304,1.7249,1.7141,1.7093,1.6862,1.6564,1.601,1.5217,1.4637,1.4111,1.3983,1.4037,1.4271,1.4249,1.3983,1.3961,1.3955,1.389,1.3885,1.3847,1.3814,1.3594,1.3165,1.2511,1.1406,1.0986,1.078,1.0367,1.0408,1.0457,1.0498,1.0308,1.0121,1.0218,1.0304,1.0528,1.0751,1.0751,1.0751,1.0751,1.0751,1.0751,1.0974,1.0974,1.142,1.1866,1.2084,1.2534,1.3425,1.343,1.3663,1.3212,1.2316,1.1643,1.1197,1.0751,1.0532,1.0304,1.0528,1.0751,1.0974,1.1257,1.1542,1.135,1.1174,2.1823,2.1603,2.1384,2.1181,2.0864,2.0848,2.0653,2.0336,2.032,2.0111,1.9694,1.9694,1.9694,1.9508,1.9757,2.0054,2.058,2.0491,2.0621,2.0726,2.0751,2.0734,2.0799,2.0872,2.0276,1.8985,1.9147,1.8784,1.7916,1.7717,1.7772,1.8081,1.786,1.8081,1.8081,1.8081,1.786,1.7846,1.7724,1.7595,1.7487,1.7426,1.7405,1.7405,1.7197,1.7197,1.7419,1.7467,1.7473,1.7405,1.7453,1.7405,1.7277,1.7195,1.7141,1.6882,1.6537,1.6181,1.5392,1.4633,1.4338,1.4387,1.4178,1.4156,1.4091,1.4048,1.4021,1.401,1.4004,1.3988,1.3961,1.3728,1.3496,1.3053,1.2196,1.1781,1.1573,1.1125,1.0921,1.0745,1.0786,1.0608,1.0649,1.0706,1.0747,1.0751,1.0751,1.0751,1.0751,1.0751,1.0751,1.0751,1.1197,1.1197,1.1866,1.2312,1.253,1.2975,1.387,1.4097,1.4103,1.3658,1.2985,1.2312,1.1866,1.142,1.0974,1.0974,1.0751,1.0974,1.0987,1.1257,1.1303,1.1103,1.1124,2.2699,2.2261,2.1603,2.1181,2.0848,2.0848,2.0653,2.0328,2.032,2.0328,2.0136,2.0119,1.9935,1.9757,2.0102,2.0385,2.0621,2.0751,2.0832,2.0856,2.0848,2.0872,2.0954,2.0827,2.0457,1.9386,1.9287,1.8693,1.806,1.8033,1.8281,1.853,1.8302,1.853,1.853,1.8302,1.7853,1.784,1.7738,1.7677,1.7602,1.7534,1.746,1.7453,1.7433,1.7426,1.7433,1.7561,1.7813,1.771,1.7575,1.7561,1.7426,1.7297,1.7209,1.7188,1.7283,1.6707,1.6118,1.5367,1.4613,1.4702,1.473,1.4276,1.4238,1.4271,1.4238,1.414,1.4129,1.4086,1.4021,1.3966,1.3798,1.3378,1.2962,1.2743,1.2306,1.1632,1.1426,1.1251,1.1074,1.0891,1.069,1.0735,1.0747,1.0751,1.0751,1.0751,1.0751,1.0751,1.0751,1.0974,1.1197,1.1643,1.2312,1.2757,1.298,1.3425,1.4097,1.432,1.4325,1.3875,1.343,1.298,1.2312,1.1866,1.142,1.1197,1.0974,1.0974,1.0991,1.102,1.1282,1.132,1.1329,2.2909,2.2699,2.2472,2.2041,2.1489,2.1489,2.1069,2.0353,2.032,2.0393,2.0483,2.007,2.0125,2.0221,2.0072,2.061,2.0897,2.0848,2.0986,2.1083,2.1092,2.1092,2.1165,2.0786,2.0193,1.9543,1.917,1.875,1.8081,1.8101,1.8757,1.8971,1.8985,1.9199,1.8971,1.8515,1.8074,1.7846,1.7812,1.7779,1.7772,1.7745,1.769,1.769,1.769,1.769,1.7711,1.7751,1.7738,1.7724,1.7751,1.7677,1.7568,1.7419,1.7297,1.7236,1.7351,1.719,1.7041,1.6319,1.6053,1.4514,1.432,1.432,1.432,1.432,1.4303,1.426,1.4238,1.4195,1.42,1.4184,1.4195,1.3963,1.3733,1.3722,1.3272,1.2373,1.1942,1.1771,1.1355,1.1163,1.0957,1.0751,1.0751,1.0751,1.0751,1.0751,1.0751,1.0751,1.0751,1.0974,1.142,1.1866,1.2534,1.298,1.3647,1.3875,1.432,1.432,1.432,1.432,1.3875,1.343,1.2757,1.2312,1.1643,1.1201,1.0978,1.0974,1.0978,1.0987,1.1032,1.1299,1.1295,2.401,2.401,2.401,2.3386,2.2019,2.1728,2.1314,2.0635,2.0344,2.0426,2.0596,2.0213,2.03,2.0626,2.0491,2.0555,2.0851,2.0859,2.1189,2.1028,2.1052,2.1068,2.0913,2.0717,2.0042,1.9412,1.8971,1.853,1.7867,1.8572,1.905,1.95,1.9707,1.9692,1.986,1.8736,1.7853,1.786,1.786,1.786,1.786,1.7853,1.7846,1.784,1.7833,1.7833,1.7826,1.784,1.784,1.7833,1.784,1.7806,1.7697,1.7568,1.7419,1.7358,1.7351,1.7419,1.75,1.7033,1.6551,1.477,1.432,1.432,1.432,1.432,1.4309,1.4314,1.4314,1.432,1.432,1.4292,1.4282,1.4038,1.4265,1.4038,1.3595,1.3142,1.2492,1.2071,1.1639,1.1411,1.097,1.0751,1.0751,1.0751,1.0751,1.0751,1.0751,1.0751,1.0974,1.1197,1.1643,1.2089,1.2757,1.342,1.3864,1.4097,1.432,1.432,1.432,1.432,1.432,1.3875,1.3207,1.2534,1.2089,1.1643,1.1197,1.0755,1.0978,1.0982,1.0987,1.1024,1.1007,2.6196,2.5762,2.6196,2.4985,2.3045,2.1993,2.1602,2.1213,2.0652,2.0474,2.0661,2.0783,2.0864,2.0929,2.0851,2.114,2.0964,2.0841,2.0701,2.1132,2.0694,2.0497,2.0505,2.0285,1.9632,1.8971,1.8537,1.8316,1.7887,1.8656,1.9381,1.9849,2.0049,2.0202,2.0985,1.8964,1.8067,1.7846,1.786,1.786,1.786,1.786,1.786,1.786,1.786,1.786,1.786,1.786,1.786,1.786,1.786,1.7846,1.7812,1.7684,1.7548,1.7446,1.7433,1.7439,1.746,1.662,1.5628,1.4542,1.432,1.432,1.432,1.432,1.432,1.432,1.432,1.432,1.432,1.432,1.432,1.4325,1.4325,1.4325,1.3875,1.3652,1.3202,1.2534,1.1866,1.142,1.0974,1.0751,1.0751,1.0751,1.0751,1.0751,1.0751,1.0974,1.1197,1.1407,1.1848,1.252,1.3187,1.3859,1.4303,1.4314,1.432,1.432,1.432,1.432,1.432,1.4097,1.3652,1.2985,1.2312,1.1866,1.142,1.0755,1.0751,1.0755,1.0751,1.0751,1.0974,2.6847,2.6413,2.7063,2.6363,2.4759,2.3476,2.2636,2.1627,2.0922,2.0775,2.0929,2.1027,2.1116,2.1197,2.1238,2.1287,2.1303,2.067,2.0725,2.0725,2.0293,2.0065,1.9853,1.9632,1.9199,1.875,1.8316,1.8163,1.8023,1.8992,1.9729,1.9983,2.0609,2.0898,2.1008,1.9853,1.8743,1.8074,1.786,1.786,1.786,1.786,1.786,1.786,1.786,1.786,1.786,1.786,1.786,1.786,1.786,1.786,1.784,1.7731,1.7636,1.7575,1.7575,1.7636,1.7485,1.6748,1.5646,1.4764,1.432,1.432,1.432,1.432,1.432,1.432,1.432,1.432,1.432,1.432,1.432,1.432,1.4325,1.4325,1.4097,1.4097,1.3652,1.3202,1.2534,1.1643,1.0974,1.0974,1.0755,1.0978,1.0978,1.0974,1.0974,1.1197,1.142,1.1834,1.227,1.294,1.3384,1.4028,1.4265,1.4287,1.4303,1.432,1.432,1.432,1.432,1.432,1.3652,1.3207,1.2534,1.1866,1.1197,1.0755,1.0751,1.0751,1.0751,1.0751,1.0751,2.8134,2.7929,2.7918,2.7486,2.6146,2.4655,2.3162,2.1737,2.1128,2.1019,2.1116,2.1181,2.1262,2.1352,2.1384,2.1384,2.1384,2.0505,2.0505,2.0285,1.9632,1.9412,1.9192,1.8971,1.875,1.8323,1.8156,1.8002,1.8091,1.9549,2.0328,2.1058,2.1446,2.1798,2.1199,2.018,1.8729,1.8288,1.8295,1.786,1.786,1.786,1.786,1.786,1.786,1.786,1.786,1.786,1.786,1.786,1.786,1.786,1.7826,1.7792,1.7697,1.767,1.7663,1.7711,1.7325,1.6748,1.564,1.4531,1.4314,1.432,1.432,1.432,1.432,1.432,1.432,1.432,1.432,1.432,1.432,1.432,1.432,1.432,1.432,1.432,1.4097,1.3425,1.2757,1.1866,1.0974,1.0978,1.0978,1.1201,1.1201,1.1201,1.1197,1.142,1.1852,1.226,1.266,1.3087,1.3518,1.3947,1.4195,1.4249,1.4287,1.432,1.432,1.432,1.432,1.432,1.3875,1.343,1.2539,1.1866,1.142,1.0974,1.0751,1.0751,1.0751,1.0751,1.0751,3.0094,3.0082,2.9426,2.8554,2.7228,2.5321,2.3403,2.1754,2.1275,2.114,2.1157,2.1311,2.1368,2.1376,2.1384,2.1384,2.1164,2.0285,2.0065,1.9845,1.9192,1.8971,1.8757,1.8537,1.8336,1.8156,1.7996,1.8084,1.8362,1.9731,2.1033,2.196,2.2139,2.226,2.1398,2.0309,1.9036,1.88,1.8309,1.8088,1.786,1.786,1.786,1.786,1.786,1.786,1.786,1.786,1.786,1.786,1.786,1.786,1.786,1.786,1.7772,1.7704,1.767,1.7697,1.7518,1.6729,1.5628,1.4525,1.4531,1.432,1.432,1.432,1.432,1.432,1.432,1.432,1.432,1.432,1.432,1.432,1.432,1.432,1.432,1.4097,1.4097,1.343,1.298,1.2089,1.1197,1.0755,1.0978,1.1424,1.1875,1.2098,1.2093,1.1866,1.2288,1.2891,1.3282,1.344,1.3867,1.3899,1.4167,1.4238,1.4287,1.432,1.432,1.432,1.432,1.432,1.432,1.3652,1.2985,1.2312,1.1643,1.1197,1.0974,1.0751,1.0751,1.0751,1.0751,3.0673,3.0094,2.9868,2.8996,2.7259,2.4589,2.3013,2.2109,2.1513,2.1311,2.1319,2.136,2.1384,2.1384,2.1384,2.1384,2.0945,2.0285,1.9853,1.9412,1.875,1.8309,1.8088,1.8101,1.815,1.8009,1.8091,1.8213,1.8623,1.9993,2.1218,2.2153,2.2506,2.2416,2.184,2.0755,1.9931,1.9129,1.8385,1.8101,1.7867,1.786,1.786,1.786,1.786,1.786,1.786,1.786,1.786,1.786,1.786,1.786,1.786,1.786,1.7819,1.7812,1.7806,1.7812,1.7612,1.719,1.6089,1.4963,1.4753,1.4536,1.4542,1.432,1.432,1.432,1.432,1.432,1.432,1.432,1.432,1.432,1.432,1.432,1.432,1.432,1.4097,1.343,1.298,1.2089,1.0974,1.0751,1.0978,1.1871,1.2321,1.2772,1.299,1.2762,1.2723,1.3323,1.3481,1.3856,1.3878,1.4124,1.4178,1.4227,1.4282,1.432,1.432,1.432,1.432,1.432,1.4097,1.3875,1.343,1.2762,1.2089,1.142,1.1197,1.0974,1.0751,1.0751,1.0751,3.1233,3.065,3.0117,2.9007,2.6837,2.4219,2.2909,2.248,2.1823,2.1384,2.1384,2.1384,2.1384,2.1384,2.1384,2.1384,2.1384,2.0505,1.9845,1.9412,1.853,1.8309,1.8095,1.7928,1.8009,1.8097,1.8445,1.8823,1.9233,2.0282,2.1533,2.2448,2.2563,2.2547,2.2017,2.1214,2.0403,1.957,1.8755,1.817,1.7887,1.7867,1.786,1.786,1.786,1.786,1.786,1.786,1.786,1.786,1.786,1.786,1.786,1.786,1.786,1.7853,1.7853,1.7853,1.786,1.7424,1.6539,1.5868,1.5418,1.4975,1.4758,1.4542,1.432,1.432,1.432,1.432,1.432,1.432,1.432,1.432,1.432,1.432,1.432,1.432,1.3875,1.343,1.2762,1.1866,1.1197,1.0974,1.1197,1.2093,1.299,1.3663,1.3663,1.3207,1.3379,1.3748,1.391,1.4075,1.4108,1.4135,1.4167,1.4216,1.4276,1.4309,1.4314,1.432,1.432,1.4097,1.4097,1.3652,1.343,1.3207,1.2534,1.2089,1.1416,1.0974,1.0751,1.0751,1.0755,3.1953,3.1245,3.0389,2.8792,2.6413,2.4228,2.3128,2.2909,2.2042,2.1384,2.1384,2.1384,2.1384,2.1384,2.1384,2.1416,2.1197,2.0757,2.0103,1.9647,1.8978,1.8323,1.817,1.8016,1.8111,1.8445,1.9022,1.9405,1.9949,2.0757,2.1541,2.2464,2.2456,2.2432,2.1923,2.1156,2.0355,2.0016,1.8931,1.8097,1.7941,1.788,1.786,1.786,1.786,1.786,1.786,1.786,1.786,1.786,1.786,1.786,1.786,1.786,1.786,1.786,1.786,1.7867,1.7867,1.7431,1.7438,1.6995,1.6323,1.5646,1.5208,1.4542,1.432,1.432,1.432,1.432,1.432,1.432,1.432,1.432,1.432,1.432,1.432,1.4097,1.3652,1.2985,1.2312,1.142,1.0974,1.0755,1.1197,1.2316,1.3217,1.4113,1.4108,1.3875,1.4054,1.42,1.4579,1.454,1.4338,1.4365,1.4156,1.42,1.4271,1.4303,1.432,1.432,1.432,1.432,1.4097,1.3875,1.3652,1.343,1.3207,1.2312,1.1866,1.1193,1.0974,1.0974,1.0751,3.2073,3.1463,3.0105,2.835,2.663,2.51,2.401,2.3137,2.248,2.2042,2.1384,2.1384,2.1384,2.1384,2.14,2.1457,2.1546,2.1064,2.0614,1.9966,1.9286,1.8871,1.8691,1.8335,1.8219,1.8617,1.9205,1.9978,2.075,2.1287,2.1541,2.1541,2.2011,2.2011,2.1295,2.0534,2.0504,2.0164,1.9127,1.826,1.8084,1.7935,1.786,1.786,1.786,1.786,1.786,1.786,1.786,1.786,1.786,1.786,1.786,1.786,1.786,1.786,1.7867,1.7867,1.7887,1.7679,1.7686,1.7914,1.7242,1.633,1.5652,1.4764,1.4325,1.4325,1.433,1.433,1.4336,1.4336,1.4341,1.4341,1.4341,1.4341,1.4336,1.3885,1.3217,1.2762,1.2089,1.142,1.0974,1.0974,1.142,1.2321,1.3445,1.4341,1.4547,1.4536,1.4758,1.4912,1.5272,1.5456,1.5035,1.4613,1.4415,1.4233,1.4298,1.4314,1.432,1.432,1.432,1.432,1.432,1.4097,1.4097,1.4097,1.3652,1.2757,1.2539,1.2093,1.142,1.1197,1.0974,3.1893,3.1319,2.9686,2.836,2.728,2.5535,2.4446,2.3792,2.2927,2.227,2.1823,2.1603,2.1384,2.1408,2.1465,2.1538,2.166,2.1438,2.1032,2.0601,1.9908,1.9259,1.8853,1.8465,1.8362,1.8747,1.9526,2.0534,2.1764,2.1541,2.1541,2.1302,2.1549,2.131,2.0363,2.0377,2.0355,1.9785,1.9025,1.8437,1.824,1.8091,1.7928,1.7901,1.7867,1.7867,1.786,1.786,1.786,1.786,1.786,1.786,1.786,1.786,1.786,1.786,1.7874,1.7894,1.7935,1.7968,1.7996,1.803,1.8084,1.7207,1.6079,1.5399,1.4636,1.463,1.4417,1.4423,1.445,1.4461,1.4499,1.4521,1.451,1.4499,1.4236,1.3527,1.3039,1.2539,1.1866,1.1197,1.0751,1.0751,1.142,1.2316,1.3445,1.4341,1.4547,1.498,1.5424,1.5628,1.5992,1.5759,1.5127,1.4918,1.4697,1.4514,1.432,1.432,1.432,1.432,1.432,1.432,1.432,1.432,1.432,1.432,1.4097,1.3207,1.3207,1.299,1.2093,1.142,1.0974,3.1701,3.1006,2.9311,2.8576,2.8145,2.6186,2.51,2.4882,2.3583,2.2708,2.248,2.1814,2.1376,2.1441,2.1571,2.1644,2.1717,2.1574,2.1438,2.126,2.0553,1.9876,1.949,1.89,1.8976,1.9275,2.0059,2.1264,2.2242,2.2011,2.1541,2.1071,2.0594,2.0355,2.0117,2.0139,1.9893,1.936,1.8836,1.8559,1.8416,1.8253,1.8057,1.7935,1.7874,1.7867,1.786,1.786,1.786,1.786,1.786,1.786,1.786,1.786,1.786,1.7867,1.7914,1.7968,1.782,1.7873,1.8179,1.826,1.8321,1.7874,1.6714,1.5979,1.5208,1.496,1.4746,1.4532,1.4559,1.4586,1.4635,1.4662,1.4646,1.4635,1.4122,1.3608,1.3083,1.2563,1.188,1.0987,1.0751,1.0751,1.1424,1.2316,1.3212,1.388,1.4547,1.5208,1.5646,1.6089,1.628,1.5844,1.5424,1.5191,1.5179,1.4525,1.432,1.432,1.432,1.4097,1.4097,1.432,1.432,1.4097,1.432,1.432,1.3875,1.3652,1.3663,1.3445,1.2544,1.1648,1.0974,3.1439,3.0998,3.0094,2.9222,2.836,2.727,2.6403,2.5544,2.4891,2.4228,2.3355,2.2025,2.136,2.1392,2.1579,2.1709,2.2071,2.1944,2.205,2.1888,2.1136,2.0471,2.0068,1.9233,1.9756,2.0059,2.0579,2.1295,2.2242,2.2242,2.1772,2.084,2.0363,1.9612,1.9045,1.9087,1.9157,1.8857,1.8877,1.8633,1.8477,1.8308,1.8124,1.8009,1.7928,1.7887,1.786,1.786,1.786,1.786,1.786,1.786,1.7874,1.788,1.7894,1.7935,1.7982,1.8077,1.7927,1.8001,1.8321,1.8603,1.8403,1.8155,1.7231,1.6536,1.602,1.5345,1.5117,1.4651,1.4673,1.4678,1.4711,1.4711,1.4934,1.4917,1.4429,1.3675,1.2927,1.2415,1.1696,1.1227,1.0751,1.0974,1.142,1.2316,1.3445,1.4113,1.4547,1.5208,1.6089,1.6317,1.6539,1.6317,1.6089,1.5646,1.5418,1.4758,1.432,1.432,1.4097,1.3652,1.3875,1.3875,1.3875,1.3875,1.3875,1.4097,1.432,1.4103,1.4113,1.3896,1.2772,1.1871,1.1197]}]]